<?xml version="1.0" encoding="UTF-8" standalone="no" ?>
<gpx xmlns="http://www.topografix.com/GPX/1/1" xmlns:xsi="http://www.w3.org/2001/XMLSchema-instance" xsi:schemaLocation="http://www.topografix.com/GPX/1/1 http://www.topografix.com/GPX/1/1/gpx.xsd" version="1.1" creator="VisuGPX - https://www.visugpx.com">
  <metadata>
    <name>2020-08-12 16:44:01</name>
    <desc><![CDATA[2èmeétape de notre petit tour de bretagne ]]></desc>
  </metadata>
  <trk>
    <name><![CDATA[2020-08-12 16:44:01]]></name>
    <trkseg>
      <trkpt lat="48.26015" lon="-2.90272">
        <ele>217.4</ele>
        <time>2020-08-12T06:08:12Z</time>
      </trkpt>
      <trkpt lat="48.2602" lon="-2.9026">
        <ele>220.76</ele>
        <time>2020-08-12T06:08:44Z</time>
      </trkpt>
      <trkpt lat="48.2602" lon="-2.90262">
        <ele>223.64</ele>
        <time>2020-08-12T06:09:02Z</time>
      </trkpt>
      <trkpt lat="48.26021" lon="-2.90264">
        <ele>225.57</ele>
        <time>2020-08-12T06:09:30Z</time>
      </trkpt>
      <trkpt lat="48.26022" lon="-2.90265">
        <ele>225.57</ele>
        <time>2020-08-12T06:09:53Z</time>
      </trkpt>
      <trkpt lat="48.26021" lon="-2.9026">
        <ele>225.57</ele>
        <time>2020-08-12T06:10:32Z</time>
      </trkpt>
      <trkpt lat="48.26021" lon="-2.90262">
        <ele>225.57</ele>
        <time>2020-08-12T06:11:04Z</time>
      </trkpt>
      <trkpt lat="48.26023" lon="-2.90266">
        <ele>225.09</ele>
        <time>2020-08-12T06:11:35Z</time>
      </trkpt>
      <trkpt lat="48.26022" lon="-2.90263">
        <ele>225.09</ele>
        <time>2020-08-12T06:11:58Z</time>
      </trkpt>
      <trkpt lat="48.26021" lon="-2.90264">
        <ele>225.09</ele>
        <time>2020-08-12T06:12:30Z</time>
      </trkpt>
      <trkpt lat="48.26021" lon="-2.90263">
        <ele>225.09</ele>
        <time>2020-08-12T06:13:02Z</time>
      </trkpt>
      <trkpt lat="48.26019" lon="-2.90267">
        <ele>225.09</ele>
        <time>2020-08-12T06:13:28Z</time>
      </trkpt>
      <trkpt lat="48.26019" lon="-2.90268">
        <ele>224.61</ele>
        <time>2020-08-12T06:14:02Z</time>
      </trkpt>
      <trkpt lat="48.26021" lon="-2.90264">
        <ele>224.61</ele>
        <time>2020-08-12T06:14:24Z</time>
      </trkpt>
      <trkpt lat="48.26022" lon="-2.90263">
        <ele>224.61</ele>
        <time>2020-08-12T06:14:59Z</time>
      </trkpt>
      <trkpt lat="48.26022" lon="-2.90262">
        <ele>224.61</ele>
        <time>2020-08-12T06:15:41Z</time>
      </trkpt>
      <trkpt lat="48.26021" lon="-2.9026">
        <ele>224.61</ele>
        <time>2020-08-12T06:16:19Z</time>
      </trkpt>
      <trkpt lat="48.26021" lon="-2.90262">
        <ele>224.61</ele>
        <time>2020-08-12T06:17:02Z</time>
      </trkpt>
      <trkpt lat="48.26021" lon="-2.90264">
        <ele>225.09</ele>
        <time>2020-08-12T06:17:34Z</time>
      </trkpt>
      <trkpt lat="48.2602" lon="-2.90265">
        <ele>225.09</ele>
        <time>2020-08-12T06:18:05Z</time>
      </trkpt>
      <trkpt lat="48.26022" lon="-2.90261">
        <ele>225.09</ele>
        <time>2020-08-12T06:18:39Z</time>
      </trkpt>
      <trkpt lat="48.26023" lon="-2.90261">
        <ele>225.09</ele>
        <time>2020-08-12T06:19:19Z</time>
      </trkpt>
      <trkpt lat="48.2602" lon="-2.90265">
        <ele>225.09</ele>
        <time>2020-08-12T06:19:57Z</time>
      </trkpt>
      <trkpt lat="48.2602" lon="-2.90265">
        <ele>225.09</ele>
        <time>2020-08-12T06:20:41Z</time>
      </trkpt>
      <trkpt lat="48.26022" lon="-2.90261">
        <ele>225.57</ele>
        <time>2020-08-12T06:21:12Z</time>
      </trkpt>
      <trkpt lat="48.2602" lon="-2.90259">
        <ele>225.57</ele>
        <time>2020-08-12T06:21:46Z</time>
      </trkpt>
      <trkpt lat="48.26021" lon="-2.90263">
        <ele>225.57</ele>
        <time>2020-08-12T06:22:22Z</time>
      </trkpt>
      <trkpt lat="48.26021" lon="-2.90264">
        <ele>225.57</ele>
        <time>2020-08-12T06:23:10Z</time>
      </trkpt>
      <trkpt lat="48.26022" lon="-2.90266">
        <ele>226.05</ele>
        <time>2020-08-12T06:23:53Z</time>
      </trkpt>
      <trkpt lat="48.26023" lon="-2.90266">
        <ele>226.05</ele>
        <time>2020-08-12T06:24:31Z</time>
      </trkpt>
      <trkpt lat="48.26023" lon="-2.90265">
        <ele>226.05</ele>
        <time>2020-08-12T06:25:02Z</time>
      </trkpt>
      <trkpt lat="48.26022" lon="-2.90264">
        <ele>226.05</ele>
        <time>2020-08-12T06:25:44Z</time>
      </trkpt>
      <trkpt lat="48.26022" lon="-2.90262">
        <ele>226.05</ele>
        <time>2020-08-12T06:26:23Z</time>
      </trkpt>
      <trkpt lat="48.26023" lon="-2.90262">
        <ele>226.05</ele>
        <time>2020-08-12T06:26:57Z</time>
      </trkpt>
      <trkpt lat="48.26021" lon="-2.90261">
        <ele>226.05</ele>
        <time>2020-08-12T06:27:33Z</time>
      </trkpt>
      <trkpt lat="48.26019" lon="-2.9026">
        <ele>226.05</ele>
        <time>2020-08-12T06:28:06Z</time>
      </trkpt>
      <trkpt lat="48.26018" lon="-2.90264">
        <ele>226.05</ele>
        <time>2020-08-12T06:28:45Z</time>
      </trkpt>
      <trkpt lat="48.26021" lon="-2.90262">
        <ele>226.05</ele>
        <time>2020-08-12T06:29:15Z</time>
      </trkpt>
      <trkpt lat="48.26023" lon="-2.90264">
        <ele>225.57</ele>
        <time>2020-08-12T06:29:47Z</time>
      </trkpt>
      <trkpt lat="48.26022" lon="-2.90265">
        <ele>225.57</ele>
        <time>2020-08-12T06:30:26Z</time>
      </trkpt>
      <trkpt lat="48.26021" lon="-2.90262">
        <ele>225.57</ele>
        <time>2020-08-12T06:31:00Z</time>
      </trkpt>
      <trkpt lat="48.26024" lon="-2.90262">
        <ele>224.61</ele>
        <time>2020-08-12T06:31:39Z</time>
      </trkpt>
      <trkpt lat="48.26022" lon="-2.90264">
        <ele>224.12</ele>
        <time>2020-08-12T06:32:21Z</time>
      </trkpt>
      <trkpt lat="48.26023" lon="-2.90265">
        <ele>224.12</ele>
        <time>2020-08-12T06:32:56Z</time>
      </trkpt>
      <trkpt lat="48.26023" lon="-2.90262">
        <ele>224.12</ele>
        <time>2020-08-12T06:33:27Z</time>
      </trkpt>
      <trkpt lat="48.26022" lon="-2.90263">
        <ele>224.12</ele>
        <time>2020-08-12T06:33:57Z</time>
      </trkpt>
      <trkpt lat="48.26022" lon="-2.90263">
        <ele>224.12</ele>
        <time>2020-08-12T06:34:26Z</time>
      </trkpt>
      <trkpt lat="48.2602" lon="-2.90263">
        <ele>224.12</ele>
        <time>2020-08-12T06:34:53Z</time>
      </trkpt>
      <trkpt lat="48.26019" lon="-2.90262">
        <ele>225.57</ele>
        <time>2020-08-12T06:35:21Z</time>
      </trkpt>
      <trkpt lat="48.26019" lon="-2.90262">
        <ele>225.57</ele>
        <time>2020-08-12T06:35:22Z</time>
      </trkpt>
      <trkpt lat="48.26019" lon="-2.90262">
        <ele>225.57</ele>
        <time>2020-08-12T06:35:32Z</time>
      </trkpt>
      <trkpt lat="48.2602" lon="-2.90264">
        <ele>225.57</ele>
        <time>2020-08-12T06:36:00Z</time>
      </trkpt>
      <trkpt lat="48.2602" lon="-2.90266">
        <ele>225.57</ele>
        <time>2020-08-12T06:36:27Z</time>
      </trkpt>
      <trkpt lat="48.2602" lon="-2.90264">
        <ele>225.57</ele>
        <time>2020-08-12T06:36:59Z</time>
      </trkpt>
      <trkpt lat="48.26021" lon="-2.90264">
        <ele>225.57</ele>
        <time>2020-08-12T06:37:29Z</time>
      </trkpt>
      <trkpt lat="48.26022" lon="-2.90265">
        <ele>225.57</ele>
        <time>2020-08-12T06:37:58Z</time>
      </trkpt>
      <trkpt lat="48.26021" lon="-2.90264">
        <ele>225.57</ele>
        <time>2020-08-12T06:38:30Z</time>
      </trkpt>
      <trkpt lat="48.26021" lon="-2.90262">
        <ele>225.57</ele>
        <time>2020-08-12T06:38:40Z</time>
      </trkpt>
      <trkpt lat="48.26036" lon="-2.90255">
        <ele>225.57</ele>
        <time>2020-08-12T06:38:52Z</time>
      </trkpt>
      <trkpt lat="48.26042" lon="-2.90248">
        <ele>225.57</ele>
        <time>2020-08-12T06:38:56Z</time>
      </trkpt>
      <trkpt lat="48.26066" lon="-2.9021">
        <ele>225.57</ele>
        <time>2020-08-12T06:39:11Z</time>
      </trkpt>
      <trkpt lat="48.26103" lon="-2.90149">
        <ele>224.12</ele>
        <time>2020-08-12T06:39:29Z</time>
      </trkpt>
      <trkpt lat="48.26105" lon="-2.90145">
        <ele>224.12</ele>
        <time>2020-08-12T06:39:30Z</time>
      </trkpt>
      <trkpt lat="48.26141" lon="-2.90086">
        <ele>221.72</ele>
        <time>2020-08-12T06:39:45Z</time>
      </trkpt>
      <trkpt lat="48.26173" lon="-2.90033">
        <ele>218.84</ele>
        <time>2020-08-12T06:39:55Z</time>
      </trkpt>
      <trkpt lat="48.26185" lon="-2.90017">
        <ele>217.4</ele>
        <time>2020-08-12T06:39:58Z</time>
      </trkpt>
      <trkpt lat="48.26191" lon="-2.90013">
        <ele>216.91</ele>
        <time>2020-08-12T06:39:59Z</time>
      </trkpt>
      <trkpt lat="48.26195" lon="-2.9001">
        <ele>216.43</ele>
        <time>2020-08-12T06:40:00Z</time>
      </trkpt>
      <trkpt lat="48.26218" lon="-2.89997">
        <ele>213.07</ele>
        <time>2020-08-12T06:40:05Z</time>
      </trkpt>
      <trkpt lat="48.26222" lon="-2.89995">
        <ele>213.07</ele>
        <time>2020-08-12T06:40:06Z</time>
      </trkpt>
      <trkpt lat="48.26242" lon="-2.90001">
        <ele>210.67</ele>
        <time>2020-08-12T06:40:13Z</time>
      </trkpt>
      <trkpt lat="48.26247" lon="-2.90013">
        <ele>210.19</ele>
        <time>2020-08-12T06:40:15Z</time>
      </trkpt>
      <trkpt lat="48.26275" lon="-2.90065">
        <ele>206.82</ele>
        <time>2020-08-12T06:40:26Z</time>
      </trkpt>
      <trkpt lat="48.26296" lon="-2.90113">
        <ele>203.94</ele>
        <time>2020-08-12T06:40:33Z</time>
      </trkpt>
      <trkpt lat="48.26298" lon="-2.90119">
        <ele>203.94</ele>
        <time>2020-08-12T06:40:34Z</time>
      </trkpt>
      <trkpt lat="48.26312" lon="-2.90158">
        <ele>200.57</ele>
        <time>2020-08-12T06:40:39Z</time>
      </trkpt>
      <trkpt lat="48.26323" lon="-2.90196">
        <ele>196.73</ele>
        <time>2020-08-12T06:40:43Z</time>
      </trkpt>
      <trkpt lat="48.26328" lon="-2.90228">
        <ele>192.88</ele>
        <time>2020-08-12T06:40:46Z</time>
      </trkpt>
      <trkpt lat="48.26331" lon="-2.90262">
        <ele>189.52</ele>
        <time>2020-08-12T06:40:49Z</time>
      </trkpt>
      <trkpt lat="48.26333" lon="-2.90298">
        <ele>185.67</ele>
        <time>2020-08-12T06:40:52Z</time>
      </trkpt>
      <trkpt lat="48.26335" lon="-2.90309">
        <ele>184.71</ele>
        <time>2020-08-12T06:40:53Z</time>
      </trkpt>
      <trkpt lat="48.26337" lon="-2.9032">
        <ele>183.27</ele>
        <time>2020-08-12T06:40:54Z</time>
      </trkpt>
      <trkpt lat="48.26347" lon="-2.9036">
        <ele>179.42</ele>
        <time>2020-08-12T06:40:57Z</time>
      </trkpt>
      <trkpt lat="48.26351" lon="-2.90374">
        <ele>177.98</ele>
        <time>2020-08-12T06:40:58Z</time>
      </trkpt>
      <trkpt lat="48.26356" lon="-2.90388">
        <ele>177.02</ele>
        <time>2020-08-12T06:40:59Z</time>
      </trkpt>
      <trkpt lat="48.26362" lon="-2.90401">
        <ele>177.02</ele>
        <time>2020-08-12T06:41:00Z</time>
      </trkpt>
      <trkpt lat="48.26397" lon="-2.90468">
        <ele>179.9</ele>
        <time>2020-08-12T06:41:07Z</time>
      </trkpt>
      <trkpt lat="48.26401" lon="-2.90474">
        <ele>180.87</ele>
        <time>2020-08-12T06:41:09Z</time>
      </trkpt>
      <trkpt lat="48.26404" lon="-2.90479">
        <ele>181.83</ele>
        <time>2020-08-12T06:41:11Z</time>
      </trkpt>
      <trkpt lat="48.26419" lon="-2.90495">
        <ele>183.27</ele>
        <time>2020-08-12T06:41:26Z</time>
      </trkpt>
      <trkpt lat="48.26427" lon="-2.90498">
        <ele>183.27</ele>
        <time>2020-08-12T06:42:02Z</time>
      </trkpt>
      <trkpt lat="48.26433" lon="-2.90502">
        <ele>182.31</ele>
        <time>2020-08-12T06:42:04Z</time>
      </trkpt>
      <trkpt lat="48.26436" lon="-2.90507">
        <ele>182.31</ele>
        <time>2020-08-12T06:42:05Z</time>
      </trkpt>
      <trkpt lat="48.26439" lon="-2.90514">
        <ele>181.35</ele>
        <time>2020-08-12T06:42:06Z</time>
      </trkpt>
      <trkpt lat="48.26441" lon="-2.90522">
        <ele>180.38</ele>
        <time>2020-08-12T06:42:07Z</time>
      </trkpt>
      <trkpt lat="48.26443" lon="-2.9053">
        <ele>179.9</ele>
        <time>2020-08-12T06:42:08Z</time>
      </trkpt>
      <trkpt lat="48.26444" lon="-2.90538">
        <ele>179.42</ele>
        <time>2020-08-12T06:42:09Z</time>
      </trkpt>
      <trkpt lat="48.26445" lon="-2.90545">
        <ele>178.94</ele>
        <time>2020-08-12T06:42:10Z</time>
      </trkpt>
      <trkpt lat="48.26448" lon="-2.90553">
        <ele>178.46</ele>
        <time>2020-08-12T06:42:11Z</time>
      </trkpt>
      <trkpt lat="48.26452" lon="-2.90559">
        <ele>177.5</ele>
        <time>2020-08-12T06:42:12Z</time>
      </trkpt>
      <trkpt lat="48.26459" lon="-2.90561">
        <ele>177.5</ele>
        <time>2020-08-12T06:42:13Z</time>
      </trkpt>
      <trkpt lat="48.26466" lon="-2.9056">
        <ele>177.02</ele>
        <time>2020-08-12T06:42:14Z</time>
      </trkpt>
      <trkpt lat="48.26471" lon="-2.90558">
        <ele>176.54</ele>
        <time>2020-08-12T06:42:15Z</time>
      </trkpt>
      <trkpt lat="48.26478" lon="-2.90556">
        <ele>176.54</ele>
        <time>2020-08-12T06:42:16Z</time>
      </trkpt>
      <trkpt lat="48.26519" lon="-2.90543">
        <ele>176.06</ele>
        <time>2020-08-12T06:42:23Z</time>
      </trkpt>
      <trkpt lat="48.2656" lon="-2.90545">
        <ele>177.5</ele>
        <time>2020-08-12T06:42:35Z</time>
      </trkpt>
      <trkpt lat="48.26562" lon="-2.90546">
        <ele>177.5</ele>
        <time>2020-08-12T06:42:36Z</time>
      </trkpt>
      <trkpt lat="48.26601" lon="-2.90534">
        <ele>179.9</ele>
        <time>2020-08-12T06:42:55Z</time>
      </trkpt>
      <trkpt lat="48.26637" lon="-2.90497">
        <ele>182.79</ele>
        <time>2020-08-12T06:43:14Z</time>
      </trkpt>
      <trkpt lat="48.26662" lon="-2.90451">
        <ele>185.19</ele>
        <time>2020-08-12T06:43:34Z</time>
      </trkpt>
      <trkpt lat="48.26683" lon="-2.90402">
        <ele>188.08</ele>
        <time>2020-08-12T06:43:55Z</time>
      </trkpt>
      <trkpt lat="48.26707" lon="-2.90347">
        <ele>190.96</ele>
        <time>2020-08-12T06:44:18Z</time>
      </trkpt>
      <trkpt lat="48.26718" lon="-2.90321">
        <ele>192.4</ele>
        <time>2020-08-12T06:44:30Z</time>
      </trkpt>
      <trkpt lat="48.2672" lon="-2.90321">
        <ele>192.4</ele>
        <time>2020-08-12T06:44:32Z</time>
      </trkpt>
      <trkpt lat="48.26722" lon="-2.90321">
        <ele>192.4</ele>
        <time>2020-08-12T06:44:47Z</time>
      </trkpt>
      <trkpt lat="48.26723" lon="-2.9032">
        <ele>192.4</ele>
        <time>2020-08-12T06:44:59Z</time>
      </trkpt>
      <trkpt lat="48.26725" lon="-2.90319">
        <ele>192.4</ele>
        <time>2020-08-12T06:45:16Z</time>
      </trkpt>
      <trkpt lat="48.26725" lon="-2.90319">
        <ele>192.4</ele>
        <time>2020-08-12T06:46:03Z</time>
      </trkpt>
      <trkpt lat="48.26726" lon="-2.90319">
        <ele>192.4</ele>
        <time>2020-08-12T06:46:32Z</time>
      </trkpt>
      <trkpt lat="48.26729" lon="-2.9032">
        <ele>192.4</ele>
        <time>2020-08-12T06:46:47Z</time>
      </trkpt>
      <trkpt lat="48.2673" lon="-2.90321">
        <ele>192.4</ele>
        <time>2020-08-12T06:46:48Z</time>
      </trkpt>
      <trkpt lat="48.26732" lon="-2.90321">
        <ele>192.4</ele>
        <time>2020-08-12T06:46:49Z</time>
      </trkpt>
      <trkpt lat="48.26733" lon="-2.9032">
        <ele>192.4</ele>
        <time>2020-08-12T06:46:50Z</time>
      </trkpt>
      <trkpt lat="48.26735" lon="-2.90319">
        <ele>192.4</ele>
        <time>2020-08-12T06:46:51Z</time>
      </trkpt>
      <trkpt lat="48.26736" lon="-2.90318">
        <ele>192.4</ele>
        <time>2020-08-12T06:46:52Z</time>
      </trkpt>
      <trkpt lat="48.26766" lon="-2.9031">
        <ele>194.8</ele>
        <time>2020-08-12T06:47:09Z</time>
      </trkpt>
      <trkpt lat="48.26803" lon="-2.90304">
        <ele>197.21</ele>
        <time>2020-08-12T06:47:29Z</time>
      </trkpt>
      <trkpt lat="48.26842" lon="-2.90296">
        <ele>199.61</ele>
        <time>2020-08-12T06:47:50Z</time>
      </trkpt>
      <trkpt lat="48.26893" lon="-2.90283">
        <ele>202.49</ele>
        <time>2020-08-12T06:48:16Z</time>
      </trkpt>
      <trkpt lat="48.26938" lon="-2.90271">
        <ele>205.38</ele>
        <time>2020-08-12T06:48:39Z</time>
      </trkpt>
      <trkpt lat="48.26984" lon="-2.90256">
        <ele>208.26</ele>
        <time>2020-08-12T06:49:04Z</time>
      </trkpt>
      <trkpt lat="48.27026" lon="-2.90239">
        <ele>210.67</ele>
        <time>2020-08-12T06:49:26Z</time>
      </trkpt>
      <trkpt lat="48.27073" lon="-2.90219">
        <ele>214.03</ele>
        <time>2020-08-12T06:49:51Z</time>
      </trkpt>
      <trkpt lat="48.27119" lon="-2.902">
        <ele>217.4</ele>
        <time>2020-08-12T06:50:15Z</time>
      </trkpt>
      <trkpt lat="48.2716" lon="-2.90179">
        <ele>219.32</ele>
        <time>2020-08-12T06:50:37Z</time>
      </trkpt>
      <trkpt lat="48.272" lon="-2.90152">
        <ele>221.72</ele>
        <time>2020-08-12T06:50:59Z</time>
      </trkpt>
      <trkpt lat="48.27246" lon="-2.90117">
        <ele>225.09</ele>
        <time>2020-08-12T06:51:25Z</time>
      </trkpt>
      <trkpt lat="48.27297" lon="-2.90082">
        <ele>227.97</ele>
        <time>2020-08-12T06:51:53Z</time>
      </trkpt>
      <trkpt lat="48.27341" lon="-2.90062">
        <ele>230.37</ele>
        <time>2020-08-12T06:52:16Z</time>
      </trkpt>
      <trkpt lat="48.27387" lon="-2.90041">
        <ele>233.26</ele>
        <time>2020-08-12T06:52:40Z</time>
      </trkpt>
      <trkpt lat="48.27443" lon="-2.90028">
        <ele>235.66</ele>
        <time>2020-08-12T06:53:03Z</time>
      </trkpt>
      <trkpt lat="48.27501" lon="-2.90036">
        <ele>237.58</ele>
        <time>2020-08-12T06:53:27Z</time>
      </trkpt>
      <trkpt lat="48.27552" lon="-2.90021">
        <ele>238.54</ele>
        <time>2020-08-12T06:53:44Z</time>
      </trkpt>
      <trkpt lat="48.27598" lon="-2.89995">
        <ele>240.47</ele>
        <time>2020-08-12T06:54:02Z</time>
      </trkpt>
      <trkpt lat="48.27644" lon="-2.89969">
        <ele>241.91</ele>
        <time>2020-08-12T06:54:21Z</time>
      </trkpt>
      <trkpt lat="48.27686" lon="-2.89939">
        <ele>242.39</ele>
        <time>2020-08-12T06:54:38Z</time>
      </trkpt>
      <trkpt lat="48.27713" lon="-2.89919">
        <ele>242.87</ele>
        <time>2020-08-12T06:54:51Z</time>
      </trkpt>
      <trkpt lat="48.27741" lon="-2.89907">
        <ele>244.79</ele>
        <time>2020-08-12T06:55:06Z</time>
      </trkpt>
      <trkpt lat="48.27742" lon="-2.89909">
        <ele>244.79</ele>
        <time>2020-08-12T06:55:07Z</time>
      </trkpt>
      <trkpt lat="48.27743" lon="-2.89909">
        <ele>244.79</ele>
        <time>2020-08-12T06:55:08Z</time>
      </trkpt>
      <trkpt lat="48.27745" lon="-2.89909">
        <ele>244.79</ele>
        <time>2020-08-12T06:55:09Z</time>
      </trkpt>
      <trkpt lat="48.27747" lon="-2.89907">
        <ele>244.79</ele>
        <time>2020-08-12T06:55:10Z</time>
      </trkpt>
      <trkpt lat="48.27749" lon="-2.89906">
        <ele>244.79</ele>
        <time>2020-08-12T06:55:11Z</time>
      </trkpt>
      <trkpt lat="48.27751" lon="-2.89903">
        <ele>245.27</ele>
        <time>2020-08-12T06:55:12Z</time>
      </trkpt>
      <trkpt lat="48.27752" lon="-2.89899">
        <ele>245.27</ele>
        <time>2020-08-12T06:55:13Z</time>
      </trkpt>
      <trkpt lat="48.27753" lon="-2.89896">
        <ele>245.27</ele>
        <time>2020-08-12T06:55:14Z</time>
      </trkpt>
      <trkpt lat="48.27757" lon="-2.89854">
        <ele>243.83</ele>
        <time>2020-08-12T06:55:22Z</time>
      </trkpt>
      <trkpt lat="48.27756" lon="-2.89848">
        <ele>243.35</ele>
        <time>2020-08-12T06:55:23Z</time>
      </trkpt>
      <trkpt lat="48.27733" lon="-2.89748">
        <ele>239.51</ele>
        <time>2020-08-12T06:55:35Z</time>
      </trkpt>
      <trkpt lat="48.27715" lon="-2.89682">
        <ele>236.62</ele>
        <time>2020-08-12T06:55:41Z</time>
      </trkpt>
      <trkpt lat="48.27694" lon="-2.89601">
        <ele>233.26</ele>
        <time>2020-08-12T06:55:48Z</time>
      </trkpt>
      <trkpt lat="48.27656" lon="-2.89462">
        <ele>230.85</ele>
        <time>2020-08-12T06:56:01Z</time>
      </trkpt>
      <trkpt lat="48.27655" lon="-2.89456">
        <ele>230.37</ele>
        <time>2020-08-12T06:56:02Z</time>
      </trkpt>
      <trkpt lat="48.2765" lon="-2.89396">
        <ele>229.41</ele>
        <time>2020-08-12T06:56:09Z</time>
      </trkpt>
      <trkpt lat="48.27653" lon="-2.8936">
        <ele>228.93</ele>
        <time>2020-08-12T06:56:13Z</time>
      </trkpt>
      <trkpt lat="48.27663" lon="-2.89281">
        <ele>225.57</ele>
        <time>2020-08-12T06:56:21Z</time>
      </trkpt>
      <trkpt lat="48.27667" lon="-2.8923">
        <ele>222.2</ele>
        <time>2020-08-12T06:56:25Z</time>
      </trkpt>
      <trkpt lat="48.27671" lon="-2.89171">
        <ele>217.88</ele>
        <time>2020-08-12T06:56:29Z</time>
      </trkpt>
      <trkpt lat="48.27672" lon="-2.89155">
        <ele>217.88</ele>
        <time>2020-08-12T06:56:30Z</time>
      </trkpt>
      <trkpt lat="48.27677" lon="-2.89108">
        <ele>214.99</ele>
        <time>2020-08-12T06:56:33Z</time>
      </trkpt>
      <trkpt lat="48.27681" lon="-2.89092">
        <ele>214.51</ele>
        <time>2020-08-12T06:56:34Z</time>
      </trkpt>
      <trkpt lat="48.27685" lon="-2.89078">
        <ele>213.55</ele>
        <time>2020-08-12T06:56:35Z</time>
      </trkpt>
      <trkpt lat="48.27691" lon="-2.89063">
        <ele>212.59</ele>
        <time>2020-08-12T06:56:36Z</time>
      </trkpt>
      <trkpt lat="48.27696" lon="-2.89049">
        <ele>212.11</ele>
        <time>2020-08-12T06:56:37Z</time>
      </trkpt>
      <trkpt lat="48.27721" lon="-2.88993">
        <ele>208.74</ele>
        <time>2020-08-12T06:56:41Z</time>
      </trkpt>
      <trkpt lat="48.27752" lon="-2.88862">
        <ele>205.38</ele>
        <time>2020-08-12T06:56:50Z</time>
      </trkpt>
      <trkpt lat="48.27756" lon="-2.88756">
        <ele>205.86</ele>
        <time>2020-08-12T06:57:00Z</time>
      </trkpt>
      <trkpt lat="48.27756" lon="-2.88727">
        <ele>205.86</ele>
        <time>2020-08-12T06:57:04Z</time>
      </trkpt>
      <trkpt lat="48.27757" lon="-2.88714">
        <ele>205.86</ele>
        <time>2020-08-12T06:57:06Z</time>
      </trkpt>
      <trkpt lat="48.27757" lon="-2.887">
        <ele>205.86</ele>
        <time>2020-08-12T06:57:08Z</time>
      </trkpt>
      <trkpt lat="48.27762" lon="-2.88586">
        <ele>202.49</ele>
        <time>2020-08-12T06:57:22Z</time>
      </trkpt>
      <trkpt lat="48.27763" lon="-2.88577">
        <ele>202.49</ele>
        <time>2020-08-12T06:57:23Z</time>
      </trkpt>
      <trkpt lat="48.27768" lon="-2.88509">
        <ele>199.61</ele>
        <time>2020-08-12T06:57:29Z</time>
      </trkpt>
      <trkpt lat="48.27766" lon="-2.88439">
        <ele>195.28</ele>
        <time>2020-08-12T06:57:34Z</time>
      </trkpt>
      <trkpt lat="48.27759" lon="-2.88378">
        <ele>191.92</ele>
        <time>2020-08-12T06:57:38Z</time>
      </trkpt>
      <trkpt lat="48.27757" lon="-2.88311">
        <ele>189.04</ele>
        <time>2020-08-12T06:57:42Z</time>
      </trkpt>
      <trkpt lat="48.27755" lon="-2.88227">
        <ele>185.19</ele>
        <time>2020-08-12T06:57:47Z</time>
      </trkpt>
      <trkpt lat="48.27755" lon="-2.88211">
        <ele>185.19</ele>
        <time>2020-08-12T06:57:48Z</time>
      </trkpt>
      <trkpt lat="48.27755" lon="-2.88058">
        <ele>183.27</ele>
        <time>2020-08-12T06:57:59Z</time>
      </trkpt>
      <trkpt lat="48.27743" lon="-2.87908">
        <ele>179.9</ele>
        <time>2020-08-12T06:58:12Z</time>
      </trkpt>
      <trkpt lat="48.27729" lon="-2.8773">
        <ele>177.98</ele>
        <time>2020-08-12T06:58:31Z</time>
      </trkpt>
      <trkpt lat="48.2772" lon="-2.87603">
        <ele>175.58</ele>
        <time>2020-08-12T06:58:47Z</time>
      </trkpt>
      <trkpt lat="48.27704" lon="-2.87454">
        <ele>172.69</ele>
        <time>2020-08-12T06:59:04Z</time>
      </trkpt>
      <trkpt lat="48.27677" lon="-2.87324">
        <ele>169.81</ele>
        <time>2020-08-12T06:59:19Z</time>
      </trkpt>
      <trkpt lat="48.2766" lon="-2.87243">
        <ele>166.93</ele>
        <time>2020-08-12T06:59:27Z</time>
      </trkpt>
      <trkpt lat="48.27658" lon="-2.87172">
        <ele>164.04</ele>
        <time>2020-08-12T06:59:34Z</time>
      </trkpt>
      <trkpt lat="48.2766" lon="-2.87158">
        <ele>163.08</ele>
        <time>2020-08-12T06:59:35Z</time>
      </trkpt>
      <trkpt lat="48.27662" lon="-2.87148">
        <ele>162.6</ele>
        <time>2020-08-12T06:59:36Z</time>
      </trkpt>
      <trkpt lat="48.27681" lon="-2.87076">
        <ele>159.24</ele>
        <time>2020-08-12T06:59:43Z</time>
      </trkpt>
      <trkpt lat="48.27684" lon="-2.87059">
        <ele>158.27</ele>
        <time>2020-08-12T06:59:50Z</time>
      </trkpt>
      <trkpt lat="48.27684" lon="-2.87056">
        <ele>158.27</ele>
        <time>2020-08-12T07:00:08Z</time>
      </trkpt>
      <trkpt lat="48.27683" lon="-2.87055">
        <ele>158.27</ele>
        <time>2020-08-12T07:00:09Z</time>
      </trkpt>
      <trkpt lat="48.27658" lon="-2.87018">
        <ele>158.27</ele>
        <time>2020-08-12T07:00:23Z</time>
      </trkpt>
      <trkpt lat="48.27622" lon="-2.86984">
        <ele>158.27</ele>
        <time>2020-08-12T07:00:37Z</time>
      </trkpt>
      <trkpt lat="48.27611" lon="-2.86975">
        <ele>158.27</ele>
        <time>2020-08-12T07:00:41Z</time>
      </trkpt>
      <trkpt lat="48.2761" lon="-2.86972">
        <ele>158.27</ele>
        <time>2020-08-12T07:00:42Z</time>
      </trkpt>
      <trkpt lat="48.27609" lon="-2.86968">
        <ele>158.27</ele>
        <time>2020-08-12T07:00:43Z</time>
      </trkpt>
      <trkpt lat="48.27608" lon="-2.86964">
        <ele>158.27</ele>
        <time>2020-08-12T07:00:44Z</time>
      </trkpt>
      <trkpt lat="48.27607" lon="-2.8696">
        <ele>158.27</ele>
        <time>2020-08-12T07:00:45Z</time>
      </trkpt>
      <trkpt lat="48.27591" lon="-2.86893">
        <ele>156.83</ele>
        <time>2020-08-12T07:00:58Z</time>
      </trkpt>
      <trkpt lat="48.27565" lon="-2.86853">
        <ele>157.31</ele>
        <time>2020-08-12T07:01:10Z</time>
      </trkpt>
      <trkpt lat="48.27532" lon="-2.86847">
        <ele>157.31</ele>
        <time>2020-08-12T07:01:20Z</time>
      </trkpt>
      <trkpt lat="48.2752" lon="-2.86897">
        <ele>158.27</ele>
        <time>2020-08-12T07:01:34Z</time>
      </trkpt>
      <trkpt lat="48.27506" lon="-2.86961">
        <ele>157.79</ele>
        <time>2020-08-12T07:01:47Z</time>
      </trkpt>
      <trkpt lat="48.275" lon="-2.87073">
        <ele>156.83</ele>
        <time>2020-08-12T07:02:04Z</time>
      </trkpt>
      <trkpt lat="48.27514" lon="-2.87158">
        <ele>156.83</ele>
        <time>2020-08-12T07:02:18Z</time>
      </trkpt>
      <trkpt lat="48.2753" lon="-2.87242">
        <ele>156.83</ele>
        <time>2020-08-12T07:02:33Z</time>
      </trkpt>
      <trkpt lat="48.2753" lon="-2.87319">
        <ele>156.83</ele>
        <time>2020-08-12T07:02:47Z</time>
      </trkpt>
      <trkpt lat="48.27539" lon="-2.87423">
        <ele>158.27</ele>
        <time>2020-08-12T07:03:05Z</time>
      </trkpt>
      <trkpt lat="48.27547" lon="-2.8748">
        <ele>156.83</ele>
        <time>2020-08-12T07:03:14Z</time>
      </trkpt>
      <trkpt lat="48.27547" lon="-2.87486">
        <ele>156.83</ele>
        <time>2020-08-12T07:03:15Z</time>
      </trkpt>
      <trkpt lat="48.27546" lon="-2.87493">
        <ele>156.83</ele>
        <time>2020-08-12T07:03:16Z</time>
      </trkpt>
      <trkpt lat="48.27545" lon="-2.87499">
        <ele>156.83</ele>
        <time>2020-08-12T07:03:17Z</time>
      </trkpt>
      <trkpt lat="48.27544" lon="-2.87505">
        <ele>156.83</ele>
        <time>2020-08-12T07:03:18Z</time>
      </trkpt>
      <trkpt lat="48.27524" lon="-2.8759">
        <ele>156.35</ele>
        <time>2020-08-12T07:03:32Z</time>
      </trkpt>
      <trkpt lat="48.27517" lon="-2.87686">
        <ele>156.35</ele>
        <time>2020-08-12T07:03:48Z</time>
      </trkpt>
      <trkpt lat="48.27493" lon="-2.87756">
        <ele>156.35</ele>
        <time>2020-08-12T07:04:02Z</time>
      </trkpt>
      <trkpt lat="48.27478" lon="-2.87818">
        <ele>156.35</ele>
        <time>2020-08-12T07:04:14Z</time>
      </trkpt>
      <trkpt lat="48.27476" lon="-2.87877">
        <ele>157.79</ele>
        <time>2020-08-12T07:04:25Z</time>
      </trkpt>
      <trkpt lat="48.27477" lon="-2.87881">
        <ele>157.79</ele>
        <time>2020-08-12T07:04:26Z</time>
      </trkpt>
      <trkpt lat="48.27499" lon="-2.87914">
        <ele>158.27</ele>
        <time>2020-08-12T07:04:37Z</time>
      </trkpt>
      <trkpt lat="48.27502" lon="-2.87949">
        <ele>158.27</ele>
        <time>2020-08-12T07:04:46Z</time>
      </trkpt>
      <trkpt lat="48.27468" lon="-2.87966">
        <ele>156.83</ele>
        <time>2020-08-12T07:04:57Z</time>
      </trkpt>
      <trkpt lat="48.27432" lon="-2.87991">
        <ele>156.83</ele>
        <time>2020-08-12T07:05:09Z</time>
      </trkpt>
      <trkpt lat="48.27419" lon="-2.88047">
        <ele>156.83</ele>
        <time>2020-08-12T07:05:22Z</time>
      </trkpt>
      <trkpt lat="48.27407" lon="-2.8811">
        <ele>156.35</ele>
        <time>2020-08-12T07:05:33Z</time>
      </trkpt>
      <trkpt lat="48.27384" lon="-2.882">
        <ele>155.87</ele>
        <time>2020-08-12T07:05:48Z</time>
      </trkpt>
      <trkpt lat="48.27356" lon="-2.88213">
        <ele>155.87</ele>
        <time>2020-08-12T07:05:57Z</time>
      </trkpt>
      <trkpt lat="48.27335" lon="-2.88163">
        <ele>155.87</ele>
        <time>2020-08-12T07:06:08Z</time>
      </trkpt>
      <trkpt lat="48.27324" lon="-2.88104">
        <ele>156.35</ele>
        <time>2020-08-12T07:06:20Z</time>
      </trkpt>
      <trkpt lat="48.27321" lon="-2.88058">
        <ele>156.35</ele>
        <time>2020-08-12T07:06:29Z</time>
      </trkpt>
      <trkpt lat="48.2732" lon="-2.88054">
        <ele>156.35</ele>
        <time>2020-08-12T07:06:30Z</time>
      </trkpt>
      <trkpt lat="48.27318" lon="-2.88051">
        <ele>156.35</ele>
        <time>2020-08-12T07:06:31Z</time>
      </trkpt>
      <trkpt lat="48.27317" lon="-2.88049">
        <ele>156.35</ele>
        <time>2020-08-12T07:06:32Z</time>
      </trkpt>
      <trkpt lat="48.27317" lon="-2.88046">
        <ele>156.35</ele>
        <time>2020-08-12T07:06:33Z</time>
      </trkpt>
      <trkpt lat="48.27316" lon="-2.88042">
        <ele>156.35</ele>
        <time>2020-08-12T07:06:34Z</time>
      </trkpt>
      <trkpt lat="48.27316" lon="-2.88038">
        <ele>156.35</ele>
        <time>2020-08-12T07:06:35Z</time>
      </trkpt>
      <trkpt lat="48.27315" lon="-2.88034">
        <ele>156.35</ele>
        <time>2020-08-12T07:06:36Z</time>
      </trkpt>
      <trkpt lat="48.27315" lon="-2.8803">
        <ele>156.35</ele>
        <time>2020-08-12T07:06:37Z</time>
      </trkpt>
      <trkpt lat="48.27313" lon="-2.88027">
        <ele>156.35</ele>
        <time>2020-08-12T07:06:38Z</time>
      </trkpt>
      <trkpt lat="48.27312" lon="-2.88026">
        <ele>156.35</ele>
        <time>2020-08-12T07:06:39Z</time>
      </trkpt>
      <trkpt lat="48.27309" lon="-2.88024">
        <ele>156.35</ele>
        <time>2020-08-12T07:06:40Z</time>
      </trkpt>
      <trkpt lat="48.27307" lon="-2.88022">
        <ele>156.35</ele>
        <time>2020-08-12T07:06:41Z</time>
      </trkpt>
      <trkpt lat="48.27305" lon="-2.8802">
        <ele>156.35</ele>
        <time>2020-08-12T07:06:42Z</time>
      </trkpt>
      <trkpt lat="48.27303" lon="-2.88017">
        <ele>156.35</ele>
        <time>2020-08-12T07:06:43Z</time>
      </trkpt>
      <trkpt lat="48.273" lon="-2.88015">
        <ele>156.35</ele>
        <time>2020-08-12T07:06:44Z</time>
      </trkpt>
      <trkpt lat="48.27298" lon="-2.88013">
        <ele>156.35</ele>
        <time>2020-08-12T07:06:45Z</time>
      </trkpt>
      <trkpt lat="48.27295" lon="-2.88011">
        <ele>156.35</ele>
        <time>2020-08-12T07:06:46Z</time>
      </trkpt>
      <trkpt lat="48.27248" lon="-2.88002">
        <ele>155.87</ele>
        <time>2020-08-12T07:06:59Z</time>
      </trkpt>
      <trkpt lat="48.27218" lon="-2.88038">
        <ele>155.39</ele>
        <time>2020-08-12T07:07:09Z</time>
      </trkpt>
      <trkpt lat="48.27209" lon="-2.88053">
        <ele>155.87</ele>
        <time>2020-08-12T07:07:12Z</time>
      </trkpt>
      <trkpt lat="48.27207" lon="-2.88059">
        <ele>155.87</ele>
        <time>2020-08-12T07:07:13Z</time>
      </trkpt>
      <trkpt lat="48.27188" lon="-2.88135">
        <ele>155.87</ele>
        <time>2020-08-12T07:07:27Z</time>
      </trkpt>
      <trkpt lat="48.27174" lon="-2.88162">
        <ele>155.39</ele>
        <time>2020-08-12T07:07:32Z</time>
      </trkpt>
      <trkpt lat="48.27171" lon="-2.88166">
        <ele>155.39</ele>
        <time>2020-08-12T07:07:33Z</time>
      </trkpt>
      <trkpt lat="48.27144" lon="-2.88245">
        <ele>154.91</ele>
        <time>2020-08-12T07:07:47Z</time>
      </trkpt>
      <trkpt lat="48.2712" lon="-2.88314">
        <ele>155.39</ele>
        <time>2020-08-12T07:08:01Z</time>
      </trkpt>
      <trkpt lat="48.2709" lon="-2.88361">
        <ele>155.39</ele>
        <time>2020-08-12T07:08:13Z</time>
      </trkpt>
      <trkpt lat="48.2706" lon="-2.88401">
        <ele>155.39</ele>
        <time>2020-08-12T07:08:24Z</time>
      </trkpt>
      <trkpt lat="48.27021" lon="-2.88477">
        <ele>155.39</ele>
        <time>2020-08-12T07:08:39Z</time>
      </trkpt>
      <trkpt lat="48.26976" lon="-2.88569">
        <ele>155.87</ele>
        <time>2020-08-12T07:08:57Z</time>
      </trkpt>
      <trkpt lat="48.26946" lon="-2.88635">
        <ele>155.87</ele>
        <time>2020-08-12T07:09:10Z</time>
      </trkpt>
      <trkpt lat="48.26946" lon="-2.88638">
        <ele>155.87</ele>
        <time>2020-08-12T07:09:11Z</time>
      </trkpt>
      <trkpt lat="48.26948" lon="-2.88647">
        <ele>156.35</ele>
        <time>2020-08-12T07:09:14Z</time>
      </trkpt>
      <trkpt lat="48.26947" lon="-2.88651">
        <ele>157.31</ele>
        <time>2020-08-12T07:09:15Z</time>
      </trkpt>
      <trkpt lat="48.26946" lon="-2.88654">
        <ele>157.31</ele>
        <time>2020-08-12T07:09:16Z</time>
      </trkpt>
      <trkpt lat="48.26944" lon="-2.88657">
        <ele>157.31</ele>
        <time>2020-08-12T07:09:17Z</time>
      </trkpt>
      <trkpt lat="48.26943" lon="-2.88661">
        <ele>157.31</ele>
        <time>2020-08-12T07:09:18Z</time>
      </trkpt>
      <trkpt lat="48.26942" lon="-2.88666">
        <ele>157.31</ele>
        <time>2020-08-12T07:09:19Z</time>
      </trkpt>
      <trkpt lat="48.26941" lon="-2.8867">
        <ele>157.31</ele>
        <time>2020-08-12T07:09:20Z</time>
      </trkpt>
      <trkpt lat="48.2694" lon="-2.88673">
        <ele>157.31</ele>
        <time>2020-08-12T07:09:21Z</time>
      </trkpt>
      <trkpt lat="48.2694" lon="-2.88677">
        <ele>157.31</ele>
        <time>2020-08-12T07:09:22Z</time>
      </trkpt>
      <trkpt lat="48.26939" lon="-2.88681">
        <ele>157.31</ele>
        <time>2020-08-12T07:09:23Z</time>
      </trkpt>
      <trkpt lat="48.26937" lon="-2.88686">
        <ele>157.31</ele>
        <time>2020-08-12T07:09:24Z</time>
      </trkpt>
      <trkpt lat="48.26912" lon="-2.88765">
        <ele>157.79</ele>
        <time>2020-08-12T07:09:39Z</time>
      </trkpt>
      <trkpt lat="48.269" lon="-2.8879">
        <ele>157.79</ele>
        <time>2020-08-12T07:09:50Z</time>
      </trkpt>
      <trkpt lat="48.26894" lon="-2.88804">
        <ele>157.79</ele>
        <time>2020-08-12T07:10:08Z</time>
      </trkpt>
      <trkpt lat="48.26891" lon="-2.8882">
        <ele>158.27</ele>
        <time>2020-08-12T07:10:30Z</time>
      </trkpt>
      <trkpt lat="48.26882" lon="-2.88835">
        <ele>158.27</ele>
        <time>2020-08-12T07:10:39Z</time>
      </trkpt>
      <trkpt lat="48.26859" lon="-2.88834">
        <ele>158.27</ele>
        <time>2020-08-12T07:10:52Z</time>
      </trkpt>
      <trkpt lat="48.26857" lon="-2.88834">
        <ele>158.27</ele>
        <time>2020-08-12T07:10:53Z</time>
      </trkpt>
      <trkpt lat="48.26854" lon="-2.88834">
        <ele>158.27</ele>
        <time>2020-08-12T07:10:54Z</time>
      </trkpt>
      <trkpt lat="48.26852" lon="-2.88833">
        <ele>158.27</ele>
        <time>2020-08-12T07:10:55Z</time>
      </trkpt>
      <trkpt lat="48.2685" lon="-2.88832">
        <ele>158.27</ele>
        <time>2020-08-12T07:10:56Z</time>
      </trkpt>
      <trkpt lat="48.26849" lon="-2.88832">
        <ele>158.27</ele>
        <time>2020-08-12T07:10:57Z</time>
      </trkpt>
      <trkpt lat="48.26844" lon="-2.88827">
        <ele>158.27</ele>
        <time>2020-08-12T07:11:10Z</time>
      </trkpt>
      <trkpt lat="48.26843" lon="-2.8883">
        <ele>158.27</ele>
        <time>2020-08-12T07:11:36Z</time>
      </trkpt>
      <trkpt lat="48.26842" lon="-2.88834">
        <ele>158.75</ele>
        <time>2020-08-12T07:12:15Z</time>
      </trkpt>
      <trkpt lat="48.26843" lon="-2.88835">
        <ele>158.75</ele>
        <time>2020-08-12T07:12:53Z</time>
      </trkpt>
      <trkpt lat="48.26844" lon="-2.88833">
        <ele>158.75</ele>
        <time>2020-08-12T07:13:36Z</time>
      </trkpt>
      <trkpt lat="48.26845" lon="-2.88836">
        <ele>159.24</ele>
        <time>2020-08-12T07:14:03Z</time>
      </trkpt>
      <trkpt lat="48.2684" lon="-2.88835">
        <ele>159.24</ele>
        <time>2020-08-12T07:14:42Z</time>
      </trkpt>
      <trkpt lat="48.2684" lon="-2.88833">
        <ele>159.24</ele>
        <time>2020-08-12T07:15:15Z</time>
      </trkpt>
      <trkpt lat="48.26843" lon="-2.88832">
        <ele>159.72</ele>
        <time>2020-08-12T07:15:51Z</time>
      </trkpt>
      <trkpt lat="48.26841" lon="-2.88831">
        <ele>159.72</ele>
        <time>2020-08-12T07:16:32Z</time>
      </trkpt>
      <trkpt lat="48.26843" lon="-2.8883">
        <ele>159.72</ele>
        <time>2020-08-12T07:17:11Z</time>
      </trkpt>
      <trkpt lat="48.26844" lon="-2.88831">
        <ele>159.72</ele>
        <time>2020-08-12T07:17:41Z</time>
      </trkpt>
      <trkpt lat="48.26846" lon="-2.88829">
        <ele>159.72</ele>
        <time>2020-08-12T07:18:17Z</time>
      </trkpt>
      <trkpt lat="48.26844" lon="-2.88827">
        <ele>159.72</ele>
        <time>2020-08-12T07:18:55Z</time>
      </trkpt>
      <trkpt lat="48.2684" lon="-2.88826">
        <ele>159.72</ele>
        <time>2020-08-12T07:19:27Z</time>
      </trkpt>
      <trkpt lat="48.26841" lon="-2.88828">
        <ele>160.2</ele>
        <time>2020-08-12T07:19:57Z</time>
      </trkpt>
      <trkpt lat="48.26842" lon="-2.8883">
        <ele>160.2</ele>
        <time>2020-08-12T07:20:25Z</time>
      </trkpt>
      <trkpt lat="48.26843" lon="-2.88828">
        <ele>160.2</ele>
        <time>2020-08-12T07:20:37Z</time>
      </trkpt>
      <trkpt lat="48.26844" lon="-2.88826">
        <ele>160.2</ele>
        <time>2020-08-12T07:20:38Z</time>
      </trkpt>
      <trkpt lat="48.26844" lon="-2.88824">
        <ele>160.2</ele>
        <time>2020-08-12T07:20:39Z</time>
      </trkpt>
      <trkpt lat="48.26844" lon="-2.88821">
        <ele>160.2</ele>
        <time>2020-08-12T07:20:40Z</time>
      </trkpt>
      <trkpt lat="48.26844" lon="-2.88818">
        <ele>160.2</ele>
        <time>2020-08-12T07:20:41Z</time>
      </trkpt>
      <trkpt lat="48.26844" lon="-2.88815">
        <ele>160.2</ele>
        <time>2020-08-12T07:20:42Z</time>
      </trkpt>
      <trkpt lat="48.26845" lon="-2.88811">
        <ele>160.2</ele>
        <time>2020-08-12T07:20:43Z</time>
      </trkpt>
      <trkpt lat="48.26846" lon="-2.88807">
        <ele>160.2</ele>
        <time>2020-08-12T07:20:44Z</time>
      </trkpt>
      <trkpt lat="48.26855" lon="-2.88753">
        <ele>160.2</ele>
        <time>2020-08-12T07:20:57Z</time>
      </trkpt>
      <trkpt lat="48.26856" lon="-2.887">
        <ele>160.2</ele>
        <time>2020-08-12T07:21:09Z</time>
      </trkpt>
      <trkpt lat="48.26857" lon="-2.88636">
        <ele>160.2</ele>
        <time>2020-08-12T07:21:22Z</time>
      </trkpt>
      <trkpt lat="48.26873" lon="-2.88572">
        <ele>160.2</ele>
        <time>2020-08-12T07:21:34Z</time>
      </trkpt>
      <trkpt lat="48.26898" lon="-2.88498">
        <ele>158.75</ele>
        <time>2020-08-12T07:21:47Z</time>
      </trkpt>
      <trkpt lat="48.26924" lon="-2.88425">
        <ele>158.75</ele>
        <time>2020-08-12T07:22:01Z</time>
      </trkpt>
      <trkpt lat="48.26954" lon="-2.88355">
        <ele>158.27</ele>
        <time>2020-08-12T07:22:15Z</time>
      </trkpt>
      <trkpt lat="48.26962" lon="-2.88303">
        <ele>158.27</ele>
        <time>2020-08-12T07:22:26Z</time>
      </trkpt>
      <trkpt lat="48.26975" lon="-2.8825">
        <ele>158.27</ele>
        <time>2020-08-12T07:22:37Z</time>
      </trkpt>
      <trkpt lat="48.26992" lon="-2.88194">
        <ele>158.27</ele>
        <time>2020-08-12T07:22:48Z</time>
      </trkpt>
      <trkpt lat="48.27015" lon="-2.8812">
        <ele>158.75</ele>
        <time>2020-08-12T07:23:02Z</time>
      </trkpt>
      <trkpt lat="48.27041" lon="-2.88033">
        <ele>158.27</ele>
        <time>2020-08-12T07:23:16Z</time>
      </trkpt>
      <trkpt lat="48.27058" lon="-2.87975">
        <ele>158.27</ele>
        <time>2020-08-12T07:23:27Z</time>
      </trkpt>
      <trkpt lat="48.27076" lon="-2.87903">
        <ele>158.75</ele>
        <time>2020-08-12T07:23:41Z</time>
      </trkpt>
      <trkpt lat="48.271" lon="-2.87844">
        <ele>158.75</ele>
        <time>2020-08-12T07:23:54Z</time>
      </trkpt>
      <trkpt lat="48.27129" lon="-2.87777">
        <ele>158.75</ele>
        <time>2020-08-12T07:24:08Z</time>
      </trkpt>
      <trkpt lat="48.27162" lon="-2.8769">
        <ele>159.24</ele>
        <time>2020-08-12T07:24:24Z</time>
      </trkpt>
      <trkpt lat="48.27178" lon="-2.87629">
        <ele>160.2</ele>
        <time>2020-08-12T07:24:36Z</time>
      </trkpt>
      <trkpt lat="48.27179" lon="-2.87615">
        <ele>161.16</ele>
        <time>2020-08-12T07:24:39Z</time>
      </trkpt>
      <trkpt lat="48.27201" lon="-2.87564">
        <ele>161.16</ele>
        <time>2020-08-12T07:24:52Z</time>
      </trkpt>
      <trkpt lat="48.27207" lon="-2.87547">
        <ele>161.16</ele>
        <time>2020-08-12T07:24:55Z</time>
      </trkpt>
      <trkpt lat="48.2723" lon="-2.87434">
        <ele>161.16</ele>
        <time>2020-08-12T07:25:13Z</time>
      </trkpt>
      <trkpt lat="48.27249" lon="-2.87336">
        <ele>161.16</ele>
        <time>2020-08-12T07:25:29Z</time>
      </trkpt>
      <trkpt lat="48.27256" lon="-2.87261">
        <ele>161.16</ele>
        <time>2020-08-12T07:25:43Z</time>
      </trkpt>
      <trkpt lat="48.27262" lon="-2.87187">
        <ele>161.16</ele>
        <time>2020-08-12T07:25:58Z</time>
      </trkpt>
      <trkpt lat="48.27262" lon="-2.87178">
        <ele>161.16</ele>
        <time>2020-08-12T07:26:18Z</time>
      </trkpt>
      <trkpt lat="48.27262" lon="-2.87177">
        <ele>161.16</ele>
        <time>2020-08-12T07:26:19Z</time>
      </trkpt>
      <trkpt lat="48.27263" lon="-2.87175">
        <ele>161.16</ele>
        <time>2020-08-12T07:26:20Z</time>
      </trkpt>
      <trkpt lat="48.27274" lon="-2.87134">
        <ele>161.16</ele>
        <time>2020-08-12T07:26:32Z</time>
      </trkpt>
      <trkpt lat="48.27281" lon="-2.87063">
        <ele>161.16</ele>
        <time>2020-08-12T07:26:46Z</time>
      </trkpt>
      <trkpt lat="48.27282" lon="-2.87004">
        <ele>161.16</ele>
        <time>2020-08-12T07:26:58Z</time>
      </trkpt>
      <trkpt lat="48.27286" lon="-2.86931">
        <ele>161.16</ele>
        <time>2020-08-12T07:27:11Z</time>
      </trkpt>
      <trkpt lat="48.27288" lon="-2.86865">
        <ele>161.16</ele>
        <time>2020-08-12T07:27:22Z</time>
      </trkpt>
      <trkpt lat="48.27301" lon="-2.86787">
        <ele>161.16</ele>
        <time>2020-08-12T07:27:35Z</time>
      </trkpt>
      <trkpt lat="48.27329" lon="-2.86711">
        <ele>160.2</ele>
        <time>2020-08-12T07:27:47Z</time>
      </trkpt>
      <trkpt lat="48.27331" lon="-2.86705">
        <ele>159.72</ele>
        <time>2020-08-12T07:27:48Z</time>
      </trkpt>
      <trkpt lat="48.27332" lon="-2.86699">
        <ele>159.72</ele>
        <time>2020-08-12T07:27:49Z</time>
      </trkpt>
      <trkpt lat="48.27334" lon="-2.86692">
        <ele>159.72</ele>
        <time>2020-08-12T07:27:50Z</time>
      </trkpt>
      <trkpt lat="48.27335" lon="-2.86687">
        <ele>159.72</ele>
        <time>2020-08-12T07:27:51Z</time>
      </trkpt>
      <trkpt lat="48.27336" lon="-2.86681">
        <ele>159.72</ele>
        <time>2020-08-12T07:27:52Z</time>
      </trkpt>
      <trkpt lat="48.27345" lon="-2.86632">
        <ele>159.72</ele>
        <time>2020-08-12T07:28:06Z</time>
      </trkpt>
      <trkpt lat="48.2735" lon="-2.86573">
        <ele>159.72</ele>
        <time>2020-08-12T07:28:18Z</time>
      </trkpt>
      <trkpt lat="48.27352" lon="-2.86492">
        <ele>159.72</ele>
        <time>2020-08-12T07:28:32Z</time>
      </trkpt>
      <trkpt lat="48.27341" lon="-2.8643">
        <ele>159.72</ele>
        <time>2020-08-12T07:28:43Z</time>
      </trkpt>
      <trkpt lat="48.27308" lon="-2.86405">
        <ele>159.72</ele>
        <time>2020-08-12T07:28:53Z</time>
      </trkpt>
      <trkpt lat="48.27267" lon="-2.86438">
        <ele>159.72</ele>
        <time>2020-08-12T07:29:05Z</time>
      </trkpt>
      <trkpt lat="48.27263" lon="-2.86439">
        <ele>159.72</ele>
        <time>2020-08-12T07:29:06Z</time>
      </trkpt>
      <trkpt lat="48.27228" lon="-2.86444">
        <ele>159.72</ele>
        <time>2020-08-12T07:29:16Z</time>
      </trkpt>
      <trkpt lat="48.27194" lon="-2.86441">
        <ele>160.2</ele>
        <time>2020-08-12T07:29:27Z</time>
      </trkpt>
      <trkpt lat="48.2718" lon="-2.8644">
        <ele>160.2</ele>
        <time>2020-08-12T07:29:39Z</time>
      </trkpt>
      <trkpt lat="48.27169" lon="-2.86441">
        <ele>160.2</ele>
        <time>2020-08-12T07:30:10Z</time>
      </trkpt>
      <trkpt lat="48.2717" lon="-2.86439">
        <ele>159.72</ele>
        <time>2020-08-12T07:30:26Z</time>
      </trkpt>
      <trkpt lat="48.27168" lon="-2.86436">
        <ele>161.16</ele>
        <time>2020-08-12T07:30:28Z</time>
      </trkpt>
      <trkpt lat="48.27146" lon="-2.8642">
        <ele>160.68</ele>
        <time>2020-08-12T07:30:44Z</time>
      </trkpt>
      <trkpt lat="48.27118" lon="-2.8639">
        <ele>160.68</ele>
        <time>2020-08-12T07:30:55Z</time>
      </trkpt>
      <trkpt lat="48.27085" lon="-2.86364">
        <ele>160.68</ele>
        <time>2020-08-12T07:31:06Z</time>
      </trkpt>
      <trkpt lat="48.27048" lon="-2.86375">
        <ele>161.16</ele>
        <time>2020-08-12T07:31:15Z</time>
      </trkpt>
      <trkpt lat="48.2703" lon="-2.86381">
        <ele>161.16</ele>
        <time>2020-08-12T07:31:19Z</time>
      </trkpt>
      <trkpt lat="48.27012" lon="-2.86384">
        <ele>161.16</ele>
        <time>2020-08-12T07:31:23Z</time>
      </trkpt>
      <trkpt lat="48.26952" lon="-2.86389">
        <ele>161.16</ele>
        <time>2020-08-12T07:31:38Z</time>
      </trkpt>
      <trkpt lat="48.26915" lon="-2.86395">
        <ele>160.68</ele>
        <time>2020-08-12T07:31:48Z</time>
      </trkpt>
      <trkpt lat="48.2687" lon="-2.86406">
        <ele>160.68</ele>
        <time>2020-08-12T07:31:59Z</time>
      </trkpt>
      <trkpt lat="48.26835" lon="-2.86427">
        <ele>160.68</ele>
        <time>2020-08-12T07:32:09Z</time>
      </trkpt>
      <trkpt lat="48.26794" lon="-2.86462">
        <ele>160.68</ele>
        <time>2020-08-12T07:32:21Z</time>
      </trkpt>
      <trkpt lat="48.26759" lon="-2.86506">
        <ele>160.68</ele>
        <time>2020-08-12T07:32:32Z</time>
      </trkpt>
      <trkpt lat="48.26709" lon="-2.86569">
        <ele>160.68</ele>
        <time>2020-08-12T07:32:46Z</time>
      </trkpt>
      <trkpt lat="48.26697" lon="-2.86582">
        <ele>160.68</ele>
        <time>2020-08-12T07:32:49Z</time>
      </trkpt>
      <trkpt lat="48.26627" lon="-2.86632">
        <ele>160.2</ele>
        <time>2020-08-12T07:33:05Z</time>
      </trkpt>
      <trkpt lat="48.26571" lon="-2.86676">
        <ele>160.2</ele>
        <time>2020-08-12T07:33:21Z</time>
      </trkpt>
      <trkpt lat="48.26526" lon="-2.86722">
        <ele>160.2</ele>
        <time>2020-08-12T07:33:36Z</time>
      </trkpt>
      <trkpt lat="48.26525" lon="-2.86729">
        <ele>160.2</ele>
        <time>2020-08-12T07:33:38Z</time>
      </trkpt>
      <trkpt lat="48.26525" lon="-2.86732">
        <ele>160.2</ele>
        <time>2020-08-12T07:33:39Z</time>
      </trkpt>
      <trkpt lat="48.26524" lon="-2.86735">
        <ele>160.2</ele>
        <time>2020-08-12T07:33:40Z</time>
      </trkpt>
      <trkpt lat="48.26523" lon="-2.86737">
        <ele>160.2</ele>
        <time>2020-08-12T07:33:41Z</time>
      </trkpt>
      <trkpt lat="48.26522" lon="-2.86739">
        <ele>161.64</ele>
        <time>2020-08-12T07:33:42Z</time>
      </trkpt>
      <trkpt lat="48.26521" lon="-2.8674">
        <ele>161.64</ele>
        <time>2020-08-12T07:33:43Z</time>
      </trkpt>
      <trkpt lat="48.26519" lon="-2.86742">
        <ele>161.64</ele>
        <time>2020-08-12T07:33:44Z</time>
      </trkpt>
      <trkpt lat="48.26517" lon="-2.86743">
        <ele>161.64</ele>
        <time>2020-08-12T07:33:45Z</time>
      </trkpt>
      <trkpt lat="48.26478" lon="-2.86762">
        <ele>162.12</ele>
        <time>2020-08-12T07:33:59Z</time>
      </trkpt>
      <trkpt lat="48.26427" lon="-2.86775">
        <ele>162.6</ele>
        <time>2020-08-12T07:34:14Z</time>
      </trkpt>
      <trkpt lat="48.2639" lon="-2.86785">
        <ele>162.6</ele>
        <time>2020-08-12T07:34:25Z</time>
      </trkpt>
      <trkpt lat="48.26382" lon="-2.86786">
        <ele>161.64</ele>
        <time>2020-08-12T07:34:27Z</time>
      </trkpt>
      <trkpt lat="48.26318" lon="-2.86807">
        <ele>159.72</ele>
        <time>2020-08-12T07:34:41Z</time>
      </trkpt>
      <trkpt lat="48.26287" lon="-2.86845">
        <ele>159.72</ele>
        <time>2020-08-12T07:34:51Z</time>
      </trkpt>
      <trkpt lat="48.26283" lon="-2.86847">
        <ele>159.72</ele>
        <time>2020-08-12T07:34:52Z</time>
      </trkpt>
      <trkpt lat="48.2628" lon="-2.86848">
        <ele>159.72</ele>
        <time>2020-08-12T07:34:53Z</time>
      </trkpt>
      <trkpt lat="48.26247" lon="-2.86866">
        <ele>159.72</ele>
        <time>2020-08-12T07:35:04Z</time>
      </trkpt>
      <trkpt lat="48.26213" lon="-2.86916">
        <ele>160.2</ele>
        <time>2020-08-12T07:35:18Z</time>
      </trkpt>
      <trkpt lat="48.26179" lon="-2.86974">
        <ele>159.72</ele>
        <time>2020-08-12T07:35:31Z</time>
      </trkpt>
      <trkpt lat="48.26154" lon="-2.87027">
        <ele>159.72</ele>
        <time>2020-08-12T07:35:42Z</time>
      </trkpt>
      <trkpt lat="48.26107" lon="-2.87055">
        <ele>160.2</ele>
        <time>2020-08-12T07:35:55Z</time>
      </trkpt>
      <trkpt lat="48.26075" lon="-2.87058">
        <ele>161.16</ele>
        <time>2020-08-12T07:36:07Z</time>
      </trkpt>
      <trkpt lat="48.26012" lon="-2.87091">
        <ele>159.72</ele>
        <time>2020-08-12T07:36:22Z</time>
      </trkpt>
      <trkpt lat="48.2596" lon="-2.87119">
        <ele>160.2</ele>
        <time>2020-08-12T07:36:36Z</time>
      </trkpt>
      <trkpt lat="48.25886" lon="-2.87137">
        <ele>159.72</ele>
        <time>2020-08-12T07:36:52Z</time>
      </trkpt>
      <trkpt lat="48.25844" lon="-2.87144">
        <ele>159.72</ele>
        <time>2020-08-12T07:37:04Z</time>
      </trkpt>
      <trkpt lat="48.258" lon="-2.87155">
        <ele>159.72</ele>
        <time>2020-08-12T07:37:17Z</time>
      </trkpt>
      <trkpt lat="48.25782" lon="-2.87157">
        <ele>159.72</ele>
        <time>2020-08-12T07:37:29Z</time>
      </trkpt>
      <trkpt lat="48.25781" lon="-2.87156">
        <ele>159.72</ele>
        <time>2020-08-12T07:37:30Z</time>
      </trkpt>
      <trkpt lat="48.25779" lon="-2.87155">
        <ele>159.72</ele>
        <time>2020-08-12T07:37:31Z</time>
      </trkpt>
      <trkpt lat="48.25778" lon="-2.87153">
        <ele>159.72</ele>
        <time>2020-08-12T07:37:32Z</time>
      </trkpt>
      <trkpt lat="48.25776" lon="-2.87152">
        <ele>159.24</ele>
        <time>2020-08-12T07:37:33Z</time>
      </trkpt>
      <trkpt lat="48.25773" lon="-2.87151">
        <ele>159.24</ele>
        <time>2020-08-12T07:37:34Z</time>
      </trkpt>
      <trkpt lat="48.25735" lon="-2.87159">
        <ele>159.24</ele>
        <time>2020-08-12T07:37:46Z</time>
      </trkpt>
      <trkpt lat="48.25692" lon="-2.87168">
        <ele>159.24</ele>
        <time>2020-08-12T07:37:59Z</time>
      </trkpt>
      <trkpt lat="48.25649" lon="-2.87152">
        <ele>159.24</ele>
        <time>2020-08-12T07:38:12Z</time>
      </trkpt>
      <trkpt lat="48.25604" lon="-2.8714">
        <ele>159.72</ele>
        <time>2020-08-12T07:38:25Z</time>
      </trkpt>
      <trkpt lat="48.25566" lon="-2.87114">
        <ele>159.72</ele>
        <time>2020-08-12T07:38:36Z</time>
      </trkpt>
      <trkpt lat="48.25519" lon="-2.87079">
        <ele>159.72</ele>
        <time>2020-08-12T07:38:49Z</time>
      </trkpt>
      <trkpt lat="48.25481" lon="-2.87063">
        <ele>159.24</ele>
        <time>2020-08-12T07:39:00Z</time>
      </trkpt>
      <trkpt lat="48.25438" lon="-2.87042">
        <ele>159.24</ele>
        <time>2020-08-12T07:39:11Z</time>
      </trkpt>
      <trkpt lat="48.25432" lon="-2.87039">
        <ele>159.24</ele>
        <time>2020-08-12T07:39:12Z</time>
      </trkpt>
      <trkpt lat="48.25381" lon="-2.87047">
        <ele>159.24</ele>
        <time>2020-08-12T07:39:23Z</time>
      </trkpt>
      <trkpt lat="48.25316" lon="-2.87096">
        <ele>159.24</ele>
        <time>2020-08-12T07:39:40Z</time>
      </trkpt>
      <trkpt lat="48.25281" lon="-2.87147">
        <ele>159.24</ele>
        <time>2020-08-12T07:39:53Z</time>
      </trkpt>
      <trkpt lat="48.25243" lon="-2.8717">
        <ele>159.24</ele>
        <time>2020-08-12T07:40:03Z</time>
      </trkpt>
      <trkpt lat="48.25199" lon="-2.8716">
        <ele>159.72</ele>
        <time>2020-08-12T07:40:14Z</time>
      </trkpt>
      <trkpt lat="48.25156" lon="-2.87139">
        <ele>159.24</ele>
        <time>2020-08-12T07:40:26Z</time>
      </trkpt>
      <trkpt lat="48.25111" lon="-2.87127">
        <ele>159.24</ele>
        <time>2020-08-12T07:40:38Z</time>
      </trkpt>
      <trkpt lat="48.25077" lon="-2.87173">
        <ele>159.72</ele>
        <time>2020-08-12T07:40:49Z</time>
      </trkpt>
      <trkpt lat="48.25075" lon="-2.87232">
        <ele>159.72</ele>
        <time>2020-08-12T07:41:00Z</time>
      </trkpt>
      <trkpt lat="48.25077" lon="-2.87304">
        <ele>159.72</ele>
        <time>2020-08-12T07:41:12Z</time>
      </trkpt>
      <trkpt lat="48.25076" lon="-2.8731">
        <ele>159.72</ele>
        <time>2020-08-12T07:41:13Z</time>
      </trkpt>
      <trkpt lat="48.25075" lon="-2.87316">
        <ele>159.72</ele>
        <time>2020-08-12T07:41:14Z</time>
      </trkpt>
      <trkpt lat="48.25073" lon="-2.87322">
        <ele>159.72</ele>
        <time>2020-08-12T07:41:15Z</time>
      </trkpt>
      <trkpt lat="48.25071" lon="-2.87328">
        <ele>159.72</ele>
        <time>2020-08-12T07:41:16Z</time>
      </trkpt>
      <trkpt lat="48.25044" lon="-2.87421">
        <ele>159.72</ele>
        <time>2020-08-12T07:41:31Z</time>
      </trkpt>
      <trkpt lat="48.25017" lon="-2.875">
        <ele>159.72</ele>
        <time>2020-08-12T07:41:45Z</time>
      </trkpt>
      <trkpt lat="48.25014" lon="-2.87504">
        <ele>159.72</ele>
        <time>2020-08-12T07:41:46Z</time>
      </trkpt>
      <trkpt lat="48.2501" lon="-2.87507">
        <ele>159.72</ele>
        <time>2020-08-12T07:41:47Z</time>
      </trkpt>
      <trkpt lat="48.24949" lon="-2.87561">
        <ele>160.2</ele>
        <time>2020-08-12T07:42:05Z</time>
      </trkpt>
      <trkpt lat="48.24896" lon="-2.87609">
        <ele>159.72</ele>
        <time>2020-08-12T07:42:20Z</time>
      </trkpt>
      <trkpt lat="48.24848" lon="-2.87652">
        <ele>159.72</ele>
        <time>2020-08-12T07:42:35Z</time>
      </trkpt>
      <trkpt lat="48.24807" lon="-2.87688">
        <ele>159.72</ele>
        <time>2020-08-12T07:42:48Z</time>
      </trkpt>
      <trkpt lat="48.24768" lon="-2.8772">
        <ele>161.16</ele>
        <time>2020-08-12T07:43:02Z</time>
      </trkpt>
      <trkpt lat="48.24727" lon="-2.87757">
        <ele>161.16</ele>
        <time>2020-08-12T07:43:17Z</time>
      </trkpt>
      <trkpt lat="48.24689" lon="-2.87787">
        <ele>161.16</ele>
        <time>2020-08-12T07:43:32Z</time>
      </trkpt>
      <trkpt lat="48.24686" lon="-2.87788">
        <ele>161.16</ele>
        <time>2020-08-12T07:43:34Z</time>
      </trkpt>
      <trkpt lat="48.24683" lon="-2.87786">
        <ele>161.16</ele>
        <time>2020-08-12T07:43:37Z</time>
      </trkpt>
      <trkpt lat="48.24679" lon="-2.87778">
        <ele>159.72</ele>
        <time>2020-08-12T07:43:41Z</time>
      </trkpt>
      <trkpt lat="48.24674" lon="-2.87765">
        <ele>159.24</ele>
        <time>2020-08-12T07:43:52Z</time>
      </trkpt>
      <trkpt lat="48.24667" lon="-2.87765">
        <ele>159.24</ele>
        <time>2020-08-12T07:44:20Z</time>
      </trkpt>
      <trkpt lat="48.24662" lon="-2.87774">
        <ele>159.24</ele>
        <time>2020-08-12T07:44:53Z</time>
      </trkpt>
      <trkpt lat="48.24661" lon="-2.8778">
        <ele>159.24</ele>
        <time>2020-08-12T07:45:36Z</time>
      </trkpt>
      <trkpt lat="48.2466" lon="-2.87777">
        <ele>159.24</ele>
        <time>2020-08-12T07:46:13Z</time>
      </trkpt>
      <trkpt lat="48.2466" lon="-2.87777">
        <ele>159.24</ele>
        <time>2020-08-12T07:46:45Z</time>
      </trkpt>
      <trkpt lat="48.24663" lon="-2.87775">
        <ele>159.24</ele>
        <time>2020-08-12T07:47:20Z</time>
      </trkpt>
      <trkpt lat="48.24666" lon="-2.87772">
        <ele>159.24</ele>
        <time>2020-08-12T07:47:49Z</time>
      </trkpt>
      <trkpt lat="48.24666" lon="-2.87776">
        <ele>158.75</ele>
        <time>2020-08-12T07:48:24Z</time>
      </trkpt>
      <trkpt lat="48.24664" lon="-2.87781">
        <ele>158.75</ele>
        <time>2020-08-12T07:49:00Z</time>
      </trkpt>
      <trkpt lat="48.2466" lon="-2.87776">
        <ele>158.75</ele>
        <time>2020-08-12T07:49:32Z</time>
      </trkpt>
      <trkpt lat="48.24664" lon="-2.87775">
        <ele>158.75</ele>
        <time>2020-08-12T07:50:09Z</time>
      </trkpt>
      <trkpt lat="48.24664" lon="-2.87771">
        <ele>158.75</ele>
        <time>2020-08-12T07:50:37Z</time>
      </trkpt>
      <trkpt lat="48.24663" lon="-2.87774">
        <ele>158.75</ele>
        <time>2020-08-12T07:51:05Z</time>
      </trkpt>
      <trkpt lat="48.24667" lon="-2.8777">
        <ele>158.75</ele>
        <time>2020-08-12T07:51:35Z</time>
      </trkpt>
      <trkpt lat="48.24668" lon="-2.87767">
        <ele>158.75</ele>
        <time>2020-08-12T07:52:02Z</time>
      </trkpt>
      <trkpt lat="48.24669" lon="-2.87771">
        <ele>157.79</ele>
        <time>2020-08-12T07:52:25Z</time>
      </trkpt>
      <trkpt lat="48.24667" lon="-2.87769">
        <ele>157.79</ele>
        <time>2020-08-12T07:52:52Z</time>
      </trkpt>
      <trkpt lat="48.24668" lon="-2.87767">
        <ele>157.79</ele>
        <time>2020-08-12T07:53:26Z</time>
      </trkpt>
      <trkpt lat="48.24668" lon="-2.8777">
        <ele>157.79</ele>
        <time>2020-08-12T07:53:53Z</time>
      </trkpt>
      <trkpt lat="48.24669" lon="-2.87766">
        <ele>157.79</ele>
        <time>2020-08-12T07:54:20Z</time>
      </trkpt>
      <trkpt lat="48.24668" lon="-2.87772">
        <ele>156.83</ele>
        <time>2020-08-12T07:54:58Z</time>
      </trkpt>
      <trkpt lat="48.2467" lon="-2.87769">
        <ele>156.83</ele>
        <time>2020-08-12T07:55:33Z</time>
      </trkpt>
      <trkpt lat="48.24669" lon="-2.87769">
        <ele>156.35</ele>
        <time>2020-08-12T07:56:14Z</time>
      </trkpt>
      <trkpt lat="48.2467" lon="-2.87765">
        <ele>156.35</ele>
        <time>2020-08-12T07:56:45Z</time>
      </trkpt>
      <trkpt lat="48.24668" lon="-2.87771">
        <ele>156.35</ele>
        <time>2020-08-12T07:57:15Z</time>
      </trkpt>
      <trkpt lat="48.24667" lon="-2.87772">
        <ele>155.87</ele>
        <time>2020-08-12T07:57:55Z</time>
      </trkpt>
      <trkpt lat="48.24668" lon="-2.87772">
        <ele>155.87</ele>
        <time>2020-08-12T07:58:21Z</time>
      </trkpt>
      <trkpt lat="48.24666" lon="-2.87772">
        <ele>155.87</ele>
        <time>2020-08-12T07:58:45Z</time>
      </trkpt>
      <trkpt lat="48.24665" lon="-2.87773">
        <ele>155.87</ele>
        <time>2020-08-12T07:59:22Z</time>
      </trkpt>
      <trkpt lat="48.24668" lon="-2.87768">
        <ele>155.39</ele>
        <time>2020-08-12T07:59:48Z</time>
      </trkpt>
      <trkpt lat="48.24667" lon="-2.87772">
        <ele>155.39</ele>
        <time>2020-08-12T08:00:25Z</time>
      </trkpt>
      <trkpt lat="48.24667" lon="-2.87774">
        <ele>155.87</ele>
        <time>2020-08-12T08:00:58Z</time>
      </trkpt>
      <trkpt lat="48.2467" lon="-2.87769">
        <ele>155.39</ele>
        <time>2020-08-12T08:01:22Z</time>
      </trkpt>
      <trkpt lat="48.24667" lon="-2.87769">
        <ele>155.39</ele>
        <time>2020-08-12T08:01:53Z</time>
      </trkpt>
      <trkpt lat="48.24668" lon="-2.87774">
        <ele>155.39</ele>
        <time>2020-08-12T08:02:29Z</time>
      </trkpt>
      <trkpt lat="48.2467" lon="-2.87773">
        <ele>155.39</ele>
        <time>2020-08-12T08:02:53Z</time>
      </trkpt>
      <trkpt lat="48.24668" lon="-2.87771">
        <ele>155.39</ele>
        <time>2020-08-12T08:03:18Z</time>
      </trkpt>
      <trkpt lat="48.24667" lon="-2.87772">
        <ele>155.87</ele>
        <time>2020-08-12T08:03:43Z</time>
      </trkpt>
      <trkpt lat="48.24669" lon="-2.8777">
        <ele>155.39</ele>
        <time>2020-08-12T08:04:07Z</time>
      </trkpt>
      <trkpt lat="48.24667" lon="-2.87769">
        <ele>155.39</ele>
        <time>2020-08-12T08:04:36Z</time>
      </trkpt>
      <trkpt lat="48.24665" lon="-2.87771">
        <ele>155.39</ele>
        <time>2020-08-12T08:05:05Z</time>
      </trkpt>
      <trkpt lat="48.24669" lon="-2.87768">
        <ele>155.39</ele>
        <time>2020-08-12T08:05:36Z</time>
      </trkpt>
      <trkpt lat="48.24666" lon="-2.87769">
        <ele>154.91</ele>
        <time>2020-08-12T08:06:00Z</time>
      </trkpt>
      <trkpt lat="48.24668" lon="-2.87772">
        <ele>154.91</ele>
        <time>2020-08-12T08:06:31Z</time>
      </trkpt>
      <trkpt lat="48.24668" lon="-2.87768">
        <ele>154.91</ele>
        <time>2020-08-12T08:06:58Z</time>
      </trkpt>
      <trkpt lat="48.24667" lon="-2.87766">
        <ele>154.91</ele>
        <time>2020-08-12T08:07:00Z</time>
      </trkpt>
      <trkpt lat="48.24664" lon="-2.87769">
        <ele>154.43</ele>
        <time>2020-08-12T08:07:03Z</time>
      </trkpt>
      <trkpt lat="48.24666" lon="-2.87775">
        <ele>154.43</ele>
        <time>2020-08-12T08:07:07Z</time>
      </trkpt>
      <trkpt lat="48.24667" lon="-2.87794">
        <ele>155.87</ele>
        <time>2020-08-12T08:07:22Z</time>
      </trkpt>
      <trkpt lat="48.24668" lon="-2.87794">
        <ele>155.87</ele>
        <time>2020-08-12T08:07:57Z</time>
      </trkpt>
      <trkpt lat="48.24662" lon="-2.878">
        <ele>155.87</ele>
        <time>2020-08-12T08:08:13Z</time>
      </trkpt>
      <trkpt lat="48.24661" lon="-2.87801">
        <ele>155.87</ele>
        <time>2020-08-12T08:08:14Z</time>
      </trkpt>
      <trkpt lat="48.24645" lon="-2.87815">
        <ele>155.87</ele>
        <time>2020-08-12T08:08:28Z</time>
      </trkpt>
      <trkpt lat="48.24633" lon="-2.87828">
        <ele>155.87</ele>
        <time>2020-08-12T08:08:46Z</time>
      </trkpt>
      <trkpt lat="48.24601" lon="-2.8787">
        <ele>155.87</ele>
        <time>2020-08-12T08:09:00Z</time>
      </trkpt>
      <trkpt lat="48.24571" lon="-2.87881">
        <ele>155.87</ele>
        <time>2020-08-12T08:09:11Z</time>
      </trkpt>
      <trkpt lat="48.24561" lon="-2.87854">
        <ele>157.31</ele>
        <time>2020-08-12T08:09:21Z</time>
      </trkpt>
      <trkpt lat="48.24565" lon="-2.87817">
        <ele>157.31</ele>
        <time>2020-08-12T08:09:34Z</time>
      </trkpt>
      <trkpt lat="48.24568" lon="-2.87775">
        <ele>157.31</ele>
        <time>2020-08-12T08:09:45Z</time>
      </trkpt>
      <trkpt lat="48.24581" lon="-2.87734">
        <ele>156.35</ele>
        <time>2020-08-12T08:09:57Z</time>
      </trkpt>
      <trkpt lat="48.24585" lon="-2.87669">
        <ele>156.35</ele>
        <time>2020-08-12T08:10:07Z</time>
      </trkpt>
      <trkpt lat="48.24587" lon="-2.87588">
        <ele>155.87</ele>
        <time>2020-08-12T08:10:20Z</time>
      </trkpt>
      <trkpt lat="48.24598" lon="-2.87512">
        <ele>155.87</ele>
        <time>2020-08-12T08:10:33Z</time>
      </trkpt>
      <trkpt lat="48.24611" lon="-2.87439">
        <ele>157.31</ele>
        <time>2020-08-12T08:10:48Z</time>
      </trkpt>
      <trkpt lat="48.24619" lon="-2.87378">
        <ele>157.31</ele>
        <time>2020-08-12T08:10:59Z</time>
      </trkpt>
      <trkpt lat="48.2463" lon="-2.8732">
        <ele>157.31</ele>
        <time>2020-08-12T08:11:10Z</time>
      </trkpt>
      <trkpt lat="48.24652" lon="-2.8726">
        <ele>157.31</ele>
        <time>2020-08-12T08:11:23Z</time>
      </trkpt>
      <trkpt lat="48.24672" lon="-2.872">
        <ele>157.31</ele>
        <time>2020-08-12T08:11:35Z</time>
      </trkpt>
      <trkpt lat="48.24664" lon="-2.87158">
        <ele>157.31</ele>
        <time>2020-08-12T08:11:44Z</time>
      </trkpt>
      <trkpt lat="48.24653" lon="-2.87144">
        <ele>156.35</ele>
        <time>2020-08-12T08:11:49Z</time>
      </trkpt>
      <trkpt lat="48.24602" lon="-2.87127">
        <ele>156.35</ele>
        <time>2020-08-12T08:12:03Z</time>
      </trkpt>
      <trkpt lat="48.2456" lon="-2.87167">
        <ele>156.35</ele>
        <time>2020-08-12T08:12:17Z</time>
      </trkpt>
      <trkpt lat="48.24517" lon="-2.87221">
        <ele>156.35</ele>
        <time>2020-08-12T08:12:32Z</time>
      </trkpt>
      <trkpt lat="48.24512" lon="-2.87223">
        <ele>156.35</ele>
        <time>2020-08-12T08:12:33Z</time>
      </trkpt>
      <trkpt lat="48.24507" lon="-2.87223">
        <ele>156.35</ele>
        <time>2020-08-12T08:12:34Z</time>
      </trkpt>
      <trkpt lat="48.24502" lon="-2.87223">
        <ele>156.35</ele>
        <time>2020-08-12T08:12:35Z</time>
      </trkpt>
      <trkpt lat="48.24498" lon="-2.87223">
        <ele>156.35</ele>
        <time>2020-08-12T08:12:36Z</time>
      </trkpt>
      <trkpt lat="48.24494" lon="-2.87223">
        <ele>156.35</ele>
        <time>2020-08-12T08:12:37Z</time>
      </trkpt>
      <trkpt lat="48.2449" lon="-2.87223">
        <ele>155.39</ele>
        <time>2020-08-12T08:12:38Z</time>
      </trkpt>
      <trkpt lat="48.24453" lon="-2.87218">
        <ele>155.39</ele>
        <time>2020-08-12T08:12:48Z</time>
      </trkpt>
      <trkpt lat="48.24396" lon="-2.87221">
        <ele>155.87</ele>
        <time>2020-08-12T08:13:02Z</time>
      </trkpt>
      <trkpt lat="48.24365" lon="-2.87232">
        <ele>157.79</ele>
        <time>2020-08-12T08:13:13Z</time>
      </trkpt>
      <trkpt lat="48.24333" lon="-2.87239">
        <ele>157.79</ele>
        <time>2020-08-12T08:13:22Z</time>
      </trkpt>
      <trkpt lat="48.24292" lon="-2.87283">
        <ele>157.79</ele>
        <time>2020-08-12T08:13:35Z</time>
      </trkpt>
      <trkpt lat="48.24238" lon="-2.87318">
        <ele>156.83</ele>
        <time>2020-08-12T08:13:50Z</time>
      </trkpt>
      <trkpt lat="48.24213" lon="-2.87372">
        <ele>156.83</ele>
        <time>2020-08-12T08:14:02Z</time>
      </trkpt>
      <trkpt lat="48.24181" lon="-2.8744">
        <ele>156.83</ele>
        <time>2020-08-12T08:14:15Z</time>
      </trkpt>
      <trkpt lat="48.2414" lon="-2.87455">
        <ele>156.83</ele>
        <time>2020-08-12T08:14:26Z</time>
      </trkpt>
      <trkpt lat="48.24098" lon="-2.87489">
        <ele>158.27</ele>
        <time>2020-08-12T08:14:40Z</time>
      </trkpt>
      <trkpt lat="48.24077" lon="-2.87491">
        <ele>158.27</ele>
        <time>2020-08-12T08:14:51Z</time>
      </trkpt>
      <trkpt lat="48.24058" lon="-2.875">
        <ele>158.27</ele>
        <time>2020-08-12T08:15:04Z</time>
      </trkpt>
      <trkpt lat="48.24022" lon="-2.87545">
        <ele>158.27</ele>
        <time>2020-08-12T08:15:18Z</time>
      </trkpt>
      <trkpt lat="48.23993" lon="-2.87555">
        <ele>158.27</ele>
        <time>2020-08-12T08:15:26Z</time>
      </trkpt>
      <trkpt lat="48.2399" lon="-2.87553">
        <ele>158.27</ele>
        <time>2020-08-12T08:15:27Z</time>
      </trkpt>
      <trkpt lat="48.23986" lon="-2.87549">
        <ele>158.27</ele>
        <time>2020-08-12T08:15:28Z</time>
      </trkpt>
      <trkpt lat="48.23941" lon="-2.87505">
        <ele>157.31</ele>
        <time>2020-08-12T08:15:42Z</time>
      </trkpt>
      <trkpt lat="48.2389" lon="-2.87502">
        <ele>157.31</ele>
        <time>2020-08-12T08:15:56Z</time>
      </trkpt>
      <trkpt lat="48.23847" lon="-2.87521">
        <ele>157.31</ele>
        <time>2020-08-12T08:16:09Z</time>
      </trkpt>
      <trkpt lat="48.23818" lon="-2.87565">
        <ele>157.31</ele>
        <time>2020-08-12T08:16:20Z</time>
      </trkpt>
      <trkpt lat="48.23815" lon="-2.87567">
        <ele>157.31</ele>
        <time>2020-08-12T08:16:21Z</time>
      </trkpt>
      <trkpt lat="48.2381" lon="-2.87569">
        <ele>156.83</ele>
        <time>2020-08-12T08:16:22Z</time>
      </trkpt>
      <trkpt lat="48.23806" lon="-2.87569">
        <ele>156.83</ele>
        <time>2020-08-12T08:16:23Z</time>
      </trkpt>
      <trkpt lat="48.23802" lon="-2.87569">
        <ele>156.83</ele>
        <time>2020-08-12T08:16:24Z</time>
      </trkpt>
      <trkpt lat="48.23798" lon="-2.87568">
        <ele>156.83</ele>
        <time>2020-08-12T08:16:25Z</time>
      </trkpt>
      <trkpt lat="48.23795" lon="-2.87566">
        <ele>156.83</ele>
        <time>2020-08-12T08:16:26Z</time>
      </trkpt>
      <trkpt lat="48.23791" lon="-2.87563">
        <ele>156.83</ele>
        <time>2020-08-12T08:16:27Z</time>
      </trkpt>
      <trkpt lat="48.23788" lon="-2.8756">
        <ele>156.83</ele>
        <time>2020-08-12T08:16:28Z</time>
      </trkpt>
      <trkpt lat="48.23785" lon="-2.87556">
        <ele>156.83</ele>
        <time>2020-08-12T08:16:29Z</time>
      </trkpt>
      <trkpt lat="48.23783" lon="-2.87551">
        <ele>156.83</ele>
        <time>2020-08-12T08:16:30Z</time>
      </trkpt>
      <trkpt lat="48.23782" lon="-2.87546">
        <ele>156.83</ele>
        <time>2020-08-12T08:16:31Z</time>
      </trkpt>
      <trkpt lat="48.23781" lon="-2.87541">
        <ele>156.83</ele>
        <time>2020-08-12T08:16:32Z</time>
      </trkpt>
      <trkpt lat="48.2378" lon="-2.87535">
        <ele>156.83</ele>
        <time>2020-08-12T08:16:33Z</time>
      </trkpt>
      <trkpt lat="48.23764" lon="-2.87443">
        <ele>156.83</ele>
        <time>2020-08-12T08:16:50Z</time>
      </trkpt>
      <trkpt lat="48.23741" lon="-2.87353">
        <ele>156.83</ele>
        <time>2020-08-12T08:17:06Z</time>
      </trkpt>
      <trkpt lat="48.2372" lon="-2.87265">
        <ele>156.83</ele>
        <time>2020-08-12T08:17:22Z</time>
      </trkpt>
      <trkpt lat="48.23685" lon="-2.87235">
        <ele>156.83</ele>
        <time>2020-08-12T08:17:35Z</time>
      </trkpt>
      <trkpt lat="48.23648" lon="-2.8721">
        <ele>159.24</ele>
        <time>2020-08-12T08:17:51Z</time>
      </trkpt>
      <trkpt lat="48.23631" lon="-2.87175">
        <ele>159.24</ele>
        <time>2020-08-12T08:18:02Z</time>
      </trkpt>
      <trkpt lat="48.23618" lon="-2.87107">
        <ele>159.24</ele>
        <time>2020-08-12T08:18:14Z</time>
      </trkpt>
      <trkpt lat="48.23587" lon="-2.8705">
        <ele>157.31</ele>
        <time>2020-08-12T08:18:26Z</time>
      </trkpt>
      <trkpt lat="48.23579" lon="-2.87043">
        <ele>157.31</ele>
        <time>2020-08-12T08:18:28Z</time>
      </trkpt>
      <trkpt lat="48.23557" lon="-2.87033">
        <ele>157.31</ele>
        <time>2020-08-12T08:18:33Z</time>
      </trkpt>
      <trkpt lat="48.23505" lon="-2.87032">
        <ele>157.31</ele>
        <time>2020-08-12T08:18:45Z</time>
      </trkpt>
      <trkpt lat="48.23451" lon="-2.87046">
        <ele>157.31</ele>
        <time>2020-08-12T08:18:58Z</time>
      </trkpt>
      <trkpt lat="48.23402" lon="-2.87067">
        <ele>157.31</ele>
        <time>2020-08-12T08:19:09Z</time>
      </trkpt>
      <trkpt lat="48.23358" lon="-2.87064">
        <ele>157.31</ele>
        <time>2020-08-12T08:19:21Z</time>
      </trkpt>
      <trkpt lat="48.23313" lon="-2.87039">
        <ele>157.31</ele>
        <time>2020-08-12T08:19:33Z</time>
      </trkpt>
      <trkpt lat="48.23299" lon="-2.87035">
        <ele>156.83</ele>
        <time>2020-08-12T08:19:36Z</time>
      </trkpt>
      <trkpt lat="48.23294" lon="-2.87036">
        <ele>156.83</ele>
        <time>2020-08-12T08:19:37Z</time>
      </trkpt>
      <trkpt lat="48.23246" lon="-2.87056">
        <ele>156.83</ele>
        <time>2020-08-12T08:19:49Z</time>
      </trkpt>
      <trkpt lat="48.23198" lon="-2.8711">
        <ele>156.83</ele>
        <time>2020-08-12T08:20:03Z</time>
      </trkpt>
      <trkpt lat="48.23195" lon="-2.87115">
        <ele>156.83</ele>
        <time>2020-08-12T08:20:04Z</time>
      </trkpt>
      <trkpt lat="48.23193" lon="-2.8712">
        <ele>156.83</ele>
        <time>2020-08-12T08:20:05Z</time>
      </trkpt>
      <trkpt lat="48.23171" lon="-2.87173">
        <ele>157.79</ele>
        <time>2020-08-12T08:20:17Z</time>
      </trkpt>
      <trkpt lat="48.23141" lon="-2.87232">
        <ele>158.27</ele>
        <time>2020-08-12T08:20:31Z</time>
      </trkpt>
      <trkpt lat="48.23111" lon="-2.87274">
        <ele>158.27</ele>
        <time>2020-08-12T08:20:43Z</time>
      </trkpt>
      <trkpt lat="48.231" lon="-2.87336">
        <ele>158.27</ele>
        <time>2020-08-12T08:20:55Z</time>
      </trkpt>
      <trkpt lat="48.2309" lon="-2.87393">
        <ele>156.83</ele>
        <time>2020-08-12T08:21:06Z</time>
      </trkpt>
      <trkpt lat="48.23091" lon="-2.87451">
        <ele>156.35</ele>
        <time>2020-08-12T08:21:16Z</time>
      </trkpt>
      <trkpt lat="48.2309" lon="-2.87458">
        <ele>156.35</ele>
        <time>2020-08-12T08:21:17Z</time>
      </trkpt>
      <trkpt lat="48.23088" lon="-2.87477">
        <ele>156.35</ele>
        <time>2020-08-12T08:21:20Z</time>
      </trkpt>
      <trkpt lat="48.23088" lon="-2.87483">
        <ele>156.35</ele>
        <time>2020-08-12T08:21:21Z</time>
      </trkpt>
      <trkpt lat="48.23085" lon="-2.8755">
        <ele>156.83</ele>
        <time>2020-08-12T08:21:33Z</time>
      </trkpt>
      <trkpt lat="48.23078" lon="-2.87648">
        <ele>156.83</ele>
        <time>2020-08-12T08:21:49Z</time>
      </trkpt>
      <trkpt lat="48.23086" lon="-2.87716">
        <ele>156.83</ele>
        <time>2020-08-12T08:22:00Z</time>
      </trkpt>
      <trkpt lat="48.23095" lon="-2.878">
        <ele>156.83</ele>
        <time>2020-08-12T08:22:13Z</time>
      </trkpt>
      <trkpt lat="48.23097" lon="-2.87813">
        <ele>156.83</ele>
        <time>2020-08-12T08:22:15Z</time>
      </trkpt>
      <trkpt lat="48.23099" lon="-2.87819">
        <ele>156.83</ele>
        <time>2020-08-12T08:22:16Z</time>
      </trkpt>
      <trkpt lat="48.23101" lon="-2.87824">
        <ele>156.83</ele>
        <time>2020-08-12T08:22:17Z</time>
      </trkpt>
      <trkpt lat="48.23138" lon="-2.87877">
        <ele>157.31</ele>
        <time>2020-08-12T08:22:30Z</time>
      </trkpt>
      <trkpt lat="48.23168" lon="-2.87941">
        <ele>157.31</ele>
        <time>2020-08-12T08:22:43Z</time>
      </trkpt>
      <trkpt lat="48.23179" lon="-2.8803">
        <ele>158.27</ele>
        <time>2020-08-12T08:22:59Z</time>
      </trkpt>
      <trkpt lat="48.23178" lon="-2.8811">
        <ele>158.75</ele>
        <time>2020-08-12T08:23:15Z</time>
      </trkpt>
      <trkpt lat="48.23176" lon="-2.88201">
        <ele>158.75</ele>
        <time>2020-08-12T08:23:30Z</time>
      </trkpt>
      <trkpt lat="48.23175" lon="-2.88208">
        <ele>158.75</ele>
        <time>2020-08-12T08:23:31Z</time>
      </trkpt>
      <trkpt lat="48.23161" lon="-2.8831">
        <ele>158.75</ele>
        <time>2020-08-12T08:23:46Z</time>
      </trkpt>
      <trkpt lat="48.23137" lon="-2.88342">
        <ele>158.75</ele>
        <time>2020-08-12T08:23:55Z</time>
      </trkpt>
      <trkpt lat="48.23133" lon="-2.8834">
        <ele>158.75</ele>
        <time>2020-08-12T08:23:56Z</time>
      </trkpt>
      <trkpt lat="48.2313" lon="-2.88337">
        <ele>158.75</ele>
        <time>2020-08-12T08:23:57Z</time>
      </trkpt>
      <trkpt lat="48.23076" lon="-2.88272">
        <ele>158.75</ele>
        <time>2020-08-12T08:24:14Z</time>
      </trkpt>
      <trkpt lat="48.23048" lon="-2.8821">
        <ele>158.75</ele>
        <time>2020-08-12T08:24:27Z</time>
      </trkpt>
      <trkpt lat="48.23046" lon="-2.88204">
        <ele>158.75</ele>
        <time>2020-08-12T08:24:28Z</time>
      </trkpt>
      <trkpt lat="48.23044" lon="-2.88199">
        <ele>158.75</ele>
        <time>2020-08-12T08:24:29Z</time>
      </trkpt>
      <trkpt lat="48.23042" lon="-2.88194">
        <ele>158.75</ele>
        <time>2020-08-12T08:24:30Z</time>
      </trkpt>
      <trkpt lat="48.23039" lon="-2.88189">
        <ele>158.75</ele>
        <time>2020-08-12T08:24:31Z</time>
      </trkpt>
      <trkpt lat="48.23035" lon="-2.88185">
        <ele>158.75</ele>
        <time>2020-08-12T08:24:32Z</time>
      </trkpt>
      <trkpt lat="48.23019" lon="-2.88163">
        <ele>158.75</ele>
        <time>2020-08-12T08:24:37Z</time>
      </trkpt>
      <trkpt lat="48.22989" lon="-2.88113">
        <ele>158.75</ele>
        <time>2020-08-12T08:24:49Z</time>
      </trkpt>
      <trkpt lat="48.22963" lon="-2.88068">
        <ele>158.27</ele>
        <time>2020-08-12T08:25:00Z</time>
      </trkpt>
      <trkpt lat="48.22915" lon="-2.88054">
        <ele>158.27</ele>
        <time>2020-08-12T08:25:12Z</time>
      </trkpt>
      <trkpt lat="48.22863" lon="-2.88033">
        <ele>158.27</ele>
        <time>2020-08-12T08:25:25Z</time>
      </trkpt>
      <trkpt lat="48.22801" lon="-2.88008">
        <ele>158.27</ele>
        <time>2020-08-12T08:25:41Z</time>
      </trkpt>
      <trkpt lat="48.22762" lon="-2.87983">
        <ele>158.27</ele>
        <time>2020-08-12T08:25:55Z</time>
      </trkpt>
      <trkpt lat="48.22722" lon="-2.87942">
        <ele>158.27</ele>
        <time>2020-08-12T08:26:08Z</time>
      </trkpt>
      <trkpt lat="48.22687" lon="-2.87938">
        <ele>158.75</ele>
        <time>2020-08-12T08:26:20Z</time>
      </trkpt>
      <trkpt lat="48.22652" lon="-2.87967">
        <ele>158.75</ele>
        <time>2020-08-12T08:26:33Z</time>
      </trkpt>
      <trkpt lat="48.2263" lon="-2.8802">
        <ele>158.75</ele>
        <time>2020-08-12T08:26:46Z</time>
      </trkpt>
      <trkpt lat="48.22627" lon="-2.88038">
        <ele>157.79</ele>
        <time>2020-08-12T08:26:49Z</time>
      </trkpt>
      <trkpt lat="48.22626" lon="-2.88045">
        <ele>157.31</ele>
        <time>2020-08-12T08:26:50Z</time>
      </trkpt>
      <trkpt lat="48.22624" lon="-2.88051">
        <ele>157.79</ele>
        <time>2020-08-12T08:26:51Z</time>
      </trkpt>
      <trkpt lat="48.22622" lon="-2.88057">
        <ele>157.31</ele>
        <time>2020-08-12T08:26:52Z</time>
      </trkpt>
      <trkpt lat="48.22598" lon="-2.88143">
        <ele>157.79</ele>
        <time>2020-08-12T08:27:07Z</time>
      </trkpt>
      <trkpt lat="48.22582" lon="-2.88164">
        <ele>157.79</ele>
        <time>2020-08-12T08:27:13Z</time>
      </trkpt>
      <trkpt lat="48.22577" lon="-2.88164">
        <ele>157.79</ele>
        <time>2020-08-12T08:27:14Z</time>
      </trkpt>
      <trkpt lat="48.22574" lon="-2.88162">
        <ele>157.79</ele>
        <time>2020-08-12T08:27:15Z</time>
      </trkpt>
      <trkpt lat="48.2257" lon="-2.88159">
        <ele>157.79</ele>
        <time>2020-08-12T08:27:16Z</time>
      </trkpt>
      <trkpt lat="48.22568" lon="-2.88156">
        <ele>157.79</ele>
        <time>2020-08-12T08:27:17Z</time>
      </trkpt>
      <trkpt lat="48.22565" lon="-2.88152">
        <ele>157.79</ele>
        <time>2020-08-12T08:27:18Z</time>
      </trkpt>
      <trkpt lat="48.22563" lon="-2.88148">
        <ele>157.79</ele>
        <time>2020-08-12T08:27:19Z</time>
      </trkpt>
      <trkpt lat="48.22554" lon="-2.8808">
        <ele>157.79</ele>
        <time>2020-08-12T08:27:32Z</time>
      </trkpt>
      <trkpt lat="48.22549" lon="-2.88002">
        <ele>157.79</ele>
        <time>2020-08-12T08:27:45Z</time>
      </trkpt>
      <trkpt lat="48.22542" lon="-2.87954">
        <ele>157.79</ele>
        <time>2020-08-12T08:27:55Z</time>
      </trkpt>
      <trkpt lat="48.22537" lon="-2.87877">
        <ele>158.75</ele>
        <time>2020-08-12T08:28:09Z</time>
      </trkpt>
      <trkpt lat="48.22541" lon="-2.87793">
        <ele>158.75</ele>
        <time>2020-08-12T08:28:23Z</time>
      </trkpt>
      <trkpt lat="48.22543" lon="-2.87714">
        <ele>158.75</ele>
        <time>2020-08-12T08:28:37Z</time>
      </trkpt>
      <trkpt lat="48.22548" lon="-2.87668">
        <ele>158.75</ele>
        <time>2020-08-12T08:28:50Z</time>
      </trkpt>
      <trkpt lat="48.22548" lon="-2.87615">
        <ele>158.27</ele>
        <time>2020-08-12T08:29:02Z</time>
      </trkpt>
      <trkpt lat="48.22547" lon="-2.87535">
        <ele>158.27</ele>
        <time>2020-08-12T08:29:16Z</time>
      </trkpt>
      <trkpt lat="48.22545" lon="-2.8746">
        <ele>159.24</ele>
        <time>2020-08-12T08:29:30Z</time>
      </trkpt>
      <trkpt lat="48.22534" lon="-2.8738">
        <ele>158.75</ele>
        <time>2020-08-12T08:29:44Z</time>
      </trkpt>
      <trkpt lat="48.22524" lon="-2.87306">
        <ele>158.75</ele>
        <time>2020-08-12T08:29:57Z</time>
      </trkpt>
      <trkpt lat="48.22523" lon="-2.87288">
        <ele>157.31</ele>
        <time>2020-08-12T08:30:00Z</time>
      </trkpt>
      <trkpt lat="48.22523" lon="-2.87229">
        <ele>157.31</ele>
        <time>2020-08-12T08:30:10Z</time>
      </trkpt>
      <trkpt lat="48.22526" lon="-2.87132">
        <ele>157.31</ele>
        <time>2020-08-12T08:30:25Z</time>
      </trkpt>
      <trkpt lat="48.22524" lon="-2.87112">
        <ele>157.31</ele>
        <time>2020-08-12T08:30:28Z</time>
      </trkpt>
      <trkpt lat="48.22522" lon="-2.87106">
        <ele>157.31</ele>
        <time>2020-08-12T08:30:29Z</time>
      </trkpt>
      <trkpt lat="48.22521" lon="-2.871">
        <ele>157.31</ele>
        <time>2020-08-12T08:30:30Z</time>
      </trkpt>
      <trkpt lat="48.22519" lon="-2.87095">
        <ele>157.31</ele>
        <time>2020-08-12T08:30:31Z</time>
      </trkpt>
      <trkpt lat="48.22518" lon="-2.87089">
        <ele>157.31</ele>
        <time>2020-08-12T08:30:32Z</time>
      </trkpt>
      <trkpt lat="48.22499" lon="-2.8703">
        <ele>157.31</ele>
        <time>2020-08-12T08:30:44Z</time>
      </trkpt>
      <trkpt lat="48.22489" lon="-2.86985">
        <ele>157.31</ele>
        <time>2020-08-12T08:30:52Z</time>
      </trkpt>
      <trkpt lat="48.22489" lon="-2.86979">
        <ele>156.83</ele>
        <time>2020-08-12T08:30:53Z</time>
      </trkpt>
      <trkpt lat="48.22492" lon="-2.86959">
        <ele>156.83</ele>
        <time>2020-08-12T08:30:56Z</time>
      </trkpt>
      <trkpt lat="48.22493" lon="-2.86952">
        <ele>156.83</ele>
        <time>2020-08-12T08:30:57Z</time>
      </trkpt>
      <trkpt lat="48.22511" lon="-2.86885">
        <ele>155.87</ele>
        <time>2020-08-12T08:31:10Z</time>
      </trkpt>
      <trkpt lat="48.22524" lon="-2.86815">
        <ele>155.87</ele>
        <time>2020-08-12T08:31:22Z</time>
      </trkpt>
      <trkpt lat="48.22522" lon="-2.86783">
        <ele>155.87</ele>
        <time>2020-08-12T08:31:33Z</time>
      </trkpt>
      <trkpt lat="48.22522" lon="-2.86773">
        <ele>155.87</ele>
        <time>2020-08-12T08:31:48Z</time>
      </trkpt>
      <trkpt lat="48.22522" lon="-2.86774">
        <ele>155.39</ele>
        <time>2020-08-12T08:32:18Z</time>
      </trkpt>
      <trkpt lat="48.22519" lon="-2.86776">
        <ele>156.35</ele>
        <time>2020-08-12T08:32:55Z</time>
      </trkpt>
      <trkpt lat="48.22524" lon="-2.86772">
        <ele>156.35</ele>
        <time>2020-08-12T08:33:34Z</time>
      </trkpt>
      <trkpt lat="48.22524" lon="-2.86768">
        <ele>155.87</ele>
        <time>2020-08-12T08:34:12Z</time>
      </trkpt>
      <trkpt lat="48.22525" lon="-2.86774">
        <ele>155.87</ele>
        <time>2020-08-12T08:34:48Z</time>
      </trkpt>
      <trkpt lat="48.22528" lon="-2.86773">
        <ele>155.87</ele>
        <time>2020-08-12T08:35:28Z</time>
      </trkpt>
      <trkpt lat="48.22527" lon="-2.86773">
        <ele>155.87</ele>
        <time>2020-08-12T08:35:58Z</time>
      </trkpt>
      <trkpt lat="48.22525" lon="-2.86773">
        <ele>155.87</ele>
        <time>2020-08-12T08:36:29Z</time>
      </trkpt>
      <trkpt lat="48.22524" lon="-2.86777">
        <ele>155.87</ele>
        <time>2020-08-12T08:37:08Z</time>
      </trkpt>
      <trkpt lat="48.22526" lon="-2.86771">
        <ele>155.87</ele>
        <time>2020-08-12T08:37:40Z</time>
      </trkpt>
      <trkpt lat="48.22522" lon="-2.86772">
        <ele>155.87</ele>
        <time>2020-08-12T08:38:08Z</time>
      </trkpt>
      <trkpt lat="48.22524" lon="-2.86766">
        <ele>155.87</ele>
        <time>2020-08-12T08:38:40Z</time>
      </trkpt>
      <trkpt lat="48.22515" lon="-2.8675">
        <ele>155.87</ele>
        <time>2020-08-12T08:38:59Z</time>
      </trkpt>
      <trkpt lat="48.22484" lon="-2.86705">
        <ele>155.87</ele>
        <time>2020-08-12T08:39:14Z</time>
      </trkpt>
      <trkpt lat="48.22462" lon="-2.8666">
        <ele>155.87</ele>
        <time>2020-08-12T08:39:27Z</time>
      </trkpt>
      <trkpt lat="48.22442" lon="-2.86615">
        <ele>155.87</ele>
        <time>2020-08-12T08:39:39Z</time>
      </trkpt>
      <trkpt lat="48.22426" lon="-2.86575">
        <ele>156.83</ele>
        <time>2020-08-12T08:39:50Z</time>
      </trkpt>
      <trkpt lat="48.22425" lon="-2.86572">
        <ele>156.83</ele>
        <time>2020-08-12T08:39:51Z</time>
      </trkpt>
      <trkpt lat="48.22424" lon="-2.86569">
        <ele>156.83</ele>
        <time>2020-08-12T08:39:52Z</time>
      </trkpt>
      <trkpt lat="48.22401" lon="-2.86513">
        <ele>156.83</ele>
        <time>2020-08-12T08:40:04Z</time>
      </trkpt>
      <trkpt lat="48.2238" lon="-2.86444">
        <ele>156.35</ele>
        <time>2020-08-12T08:40:17Z</time>
      </trkpt>
      <trkpt lat="48.22352" lon="-2.8641">
        <ele>156.35</ele>
        <time>2020-08-12T08:40:28Z</time>
      </trkpt>
      <trkpt lat="48.22323" lon="-2.86438">
        <ele>156.35</ele>
        <time>2020-08-12T08:40:39Z</time>
      </trkpt>
      <trkpt lat="48.22295" lon="-2.86491">
        <ele>156.35</ele>
        <time>2020-08-12T08:40:52Z</time>
      </trkpt>
      <trkpt lat="48.22279" lon="-2.86549">
        <ele>156.35</ele>
        <time>2020-08-12T08:41:05Z</time>
      </trkpt>
      <trkpt lat="48.22274" lon="-2.86566">
        <ele>156.35</ele>
        <time>2020-08-12T08:41:16Z</time>
      </trkpt>
      <trkpt lat="48.22268" lon="-2.86589">
        <ele>156.35</ele>
        <time>2020-08-12T08:41:40Z</time>
      </trkpt>
      <trkpt lat="48.22253" lon="-2.86653">
        <ele>155.87</ele>
        <time>2020-08-12T08:41:53Z</time>
      </trkpt>
      <trkpt lat="48.22243" lon="-2.86751">
        <ele>155.87</ele>
        <time>2020-08-12T08:42:09Z</time>
      </trkpt>
      <trkpt lat="48.22229" lon="-2.86839">
        <ele>155.87</ele>
        <time>2020-08-12T08:42:24Z</time>
      </trkpt>
      <trkpt lat="48.22208" lon="-2.86943">
        <ele>155.87</ele>
        <time>2020-08-12T08:42:41Z</time>
      </trkpt>
      <trkpt lat="48.22197" lon="-2.86998">
        <ele>154.91</ele>
        <time>2020-08-12T08:42:49Z</time>
      </trkpt>
      <trkpt lat="48.22193" lon="-2.87028">
        <ele>154.91</ele>
        <time>2020-08-12T08:42:53Z</time>
      </trkpt>
      <trkpt lat="48.22193" lon="-2.87036">
        <ele>154.91</ele>
        <time>2020-08-12T08:42:54Z</time>
      </trkpt>
      <trkpt lat="48.22194" lon="-2.87043">
        <ele>154.91</ele>
        <time>2020-08-12T08:42:55Z</time>
      </trkpt>
      <trkpt lat="48.22196" lon="-2.87063">
        <ele>154.91</ele>
        <time>2020-08-12T08:42:58Z</time>
      </trkpt>
      <trkpt lat="48.22206" lon="-2.87141">
        <ele>154.43</ele>
        <time>2020-08-12T08:43:12Z</time>
      </trkpt>
      <trkpt lat="48.22212" lon="-2.87157">
        <ele>154.43</ele>
        <time>2020-08-12T08:43:15Z</time>
      </trkpt>
      <trkpt lat="48.22237" lon="-2.8721">
        <ele>154.43</ele>
        <time>2020-08-12T08:43:26Z</time>
      </trkpt>
      <trkpt lat="48.22257" lon="-2.87304">
        <ele>154.43</ele>
        <time>2020-08-12T08:43:42Z</time>
      </trkpt>
      <trkpt lat="48.22251" lon="-2.87394">
        <ele>154.43</ele>
        <time>2020-08-12T08:43:58Z</time>
      </trkpt>
      <trkpt lat="48.2222" lon="-2.874">
        <ele>154.43</ele>
        <time>2020-08-12T08:44:07Z</time>
      </trkpt>
      <trkpt lat="48.22191" lon="-2.87352">
        <ele>153.95</ele>
        <time>2020-08-12T08:44:19Z</time>
      </trkpt>
      <trkpt lat="48.22145" lon="-2.87302">
        <ele>153.95</ele>
        <time>2020-08-12T08:44:33Z</time>
      </trkpt>
      <trkpt lat="48.22129" lon="-2.87294">
        <ele>153.95</ele>
        <time>2020-08-12T08:44:37Z</time>
      </trkpt>
      <trkpt lat="48.22077" lon="-2.87308">
        <ele>153.47</ele>
        <time>2020-08-12T08:44:50Z</time>
      </trkpt>
      <trkpt lat="48.22029" lon="-2.87333">
        <ele>152.99</ele>
        <time>2020-08-12T08:45:02Z</time>
      </trkpt>
      <trkpt lat="48.21997" lon="-2.87354">
        <ele>152.99</ele>
        <time>2020-08-12T08:45:14Z</time>
      </trkpt>
      <trkpt lat="48.21965" lon="-2.87386">
        <ele>152.99</ele>
        <time>2020-08-12T08:45:26Z</time>
      </trkpt>
      <trkpt lat="48.21924" lon="-2.87425">
        <ele>152.99</ele>
        <time>2020-08-12T08:45:38Z</time>
      </trkpt>
      <trkpt lat="48.21896" lon="-2.8747">
        <ele>152.51</ele>
        <time>2020-08-12T08:45:49Z</time>
      </trkpt>
      <trkpt lat="48.21871" lon="-2.87524">
        <ele>152.99</ele>
        <time>2020-08-12T08:46:01Z</time>
      </trkpt>
      <trkpt lat="48.21847" lon="-2.87522">
        <ele>152.99</ele>
        <time>2020-08-12T08:46:10Z</time>
      </trkpt>
      <trkpt lat="48.21841" lon="-2.8748">
        <ele>152.51</ele>
        <time>2020-08-12T08:46:21Z</time>
      </trkpt>
      <trkpt lat="48.21827" lon="-2.8744">
        <ele>152.51</ele>
        <time>2020-08-12T08:46:31Z</time>
      </trkpt>
      <trkpt lat="48.2178" lon="-2.87411">
        <ele>152.51</ele>
        <time>2020-08-12T08:46:44Z</time>
      </trkpt>
      <trkpt lat="48.21738" lon="-2.87362">
        <ele>152.03</ele>
        <time>2020-08-12T08:46:56Z</time>
      </trkpt>
      <trkpt lat="48.21694" lon="-2.87297">
        <ele>151.54</ele>
        <time>2020-08-12T08:47:09Z</time>
      </trkpt>
      <trkpt lat="48.21685" lon="-2.87288">
        <ele>151.54</ele>
        <time>2020-08-12T08:47:11Z</time>
      </trkpt>
      <trkpt lat="48.2168" lon="-2.87285">
        <ele>151.54</ele>
        <time>2020-08-12T08:47:12Z</time>
      </trkpt>
      <trkpt lat="48.21675" lon="-2.87282">
        <ele>151.54</ele>
        <time>2020-08-12T08:47:13Z</time>
      </trkpt>
      <trkpt lat="48.2167" lon="-2.8728">
        <ele>151.54</ele>
        <time>2020-08-12T08:47:14Z</time>
      </trkpt>
      <trkpt lat="48.21665" lon="-2.87279">
        <ele>151.54</ele>
        <time>2020-08-12T08:47:15Z</time>
      </trkpt>
      <trkpt lat="48.21605" lon="-2.87277">
        <ele>151.54</ele>
        <time>2020-08-12T08:47:29Z</time>
      </trkpt>
      <trkpt lat="48.21601" lon="-2.8728">
        <ele>151.06</ele>
        <time>2020-08-12T08:47:30Z</time>
      </trkpt>
      <trkpt lat="48.21596" lon="-2.87284">
        <ele>151.06</ele>
        <time>2020-08-12T08:47:31Z</time>
      </trkpt>
      <trkpt lat="48.21593" lon="-2.87288">
        <ele>151.06</ele>
        <time>2020-08-12T08:47:32Z</time>
      </trkpt>
      <trkpt lat="48.2159" lon="-2.87293">
        <ele>151.06</ele>
        <time>2020-08-12T08:47:33Z</time>
      </trkpt>
      <trkpt lat="48.2157" lon="-2.87316">
        <ele>152.51</ele>
        <time>2020-08-12T08:47:41Z</time>
      </trkpt>
      <trkpt lat="48.21521" lon="-2.87323">
        <ele>152.51</ele>
        <time>2020-08-12T08:47:55Z</time>
      </trkpt>
      <trkpt lat="48.21493" lon="-2.87351">
        <ele>152.51</ele>
        <time>2020-08-12T08:48:05Z</time>
      </trkpt>
      <trkpt lat="48.21468" lon="-2.87399">
        <ele>152.51</ele>
        <time>2020-08-12T08:48:16Z</time>
      </trkpt>
      <trkpt lat="48.21455" lon="-2.87417">
        <ele>152.51</ele>
        <time>2020-08-12T08:48:21Z</time>
      </trkpt>
      <trkpt lat="48.21452" lon="-2.87417">
        <ele>152.51</ele>
        <time>2020-08-12T08:48:22Z</time>
      </trkpt>
      <trkpt lat="48.21447" lon="-2.87417">
        <ele>152.51</ele>
        <time>2020-08-12T08:48:23Z</time>
      </trkpt>
      <trkpt lat="48.21443" lon="-2.87415">
        <ele>152.51</ele>
        <time>2020-08-12T08:48:24Z</time>
      </trkpt>
      <trkpt lat="48.2144" lon="-2.87413">
        <ele>152.51</ele>
        <time>2020-08-12T08:48:25Z</time>
      </trkpt>
      <trkpt lat="48.21436" lon="-2.8741">
        <ele>152.51</ele>
        <time>2020-08-12T08:48:26Z</time>
      </trkpt>
      <trkpt lat="48.21434" lon="-2.87406">
        <ele>152.51</ele>
        <time>2020-08-12T08:48:27Z</time>
      </trkpt>
      <trkpt lat="48.21431" lon="-2.87402">
        <ele>152.51</ele>
        <time>2020-08-12T08:48:28Z</time>
      </trkpt>
      <trkpt lat="48.21429" lon="-2.87397">
        <ele>152.51</ele>
        <time>2020-08-12T08:48:29Z</time>
      </trkpt>
      <trkpt lat="48.21427" lon="-2.87344">
        <ele>152.51</ele>
        <time>2020-08-12T08:48:40Z</time>
      </trkpt>
      <trkpt lat="48.21441" lon="-2.8726">
        <ele>152.51</ele>
        <time>2020-08-12T08:48:54Z</time>
      </trkpt>
      <trkpt lat="48.21472" lon="-2.87178">
        <ele>152.51</ele>
        <time>2020-08-12T08:49:08Z</time>
      </trkpt>
      <trkpt lat="48.21473" lon="-2.87172">
        <ele>152.51</ele>
        <time>2020-08-12T08:49:09Z</time>
      </trkpt>
      <trkpt lat="48.21474" lon="-2.87166">
        <ele>152.51</ele>
        <time>2020-08-12T08:49:10Z</time>
      </trkpt>
      <trkpt lat="48.21494" lon="-2.87084">
        <ele>152.51</ele>
        <time>2020-08-12T08:49:24Z</time>
      </trkpt>
      <trkpt lat="48.21531" lon="-2.87032">
        <ele>152.51</ele>
        <time>2020-08-12T08:49:36Z</time>
      </trkpt>
      <trkpt lat="48.21581" lon="-2.86996">
        <ele>152.51</ele>
        <time>2020-08-12T08:49:49Z</time>
      </trkpt>
      <trkpt lat="48.21634" lon="-2.86983">
        <ele>152.99</ele>
        <time>2020-08-12T08:50:02Z</time>
      </trkpt>
      <trkpt lat="48.21648" lon="-2.86979">
        <ele>152.99</ele>
        <time>2020-08-12T08:50:05Z</time>
      </trkpt>
      <trkpt lat="48.21674" lon="-2.86966">
        <ele>152.99</ele>
        <time>2020-08-12T08:50:11Z</time>
      </trkpt>
      <trkpt lat="48.21678" lon="-2.86961">
        <ele>152.99</ele>
        <time>2020-08-12T08:50:12Z</time>
      </trkpt>
      <trkpt lat="48.21682" lon="-2.86957">
        <ele>152.99</ele>
        <time>2020-08-12T08:50:13Z</time>
      </trkpt>
      <trkpt lat="48.21685" lon="-2.86952">
        <ele>152.99</ele>
        <time>2020-08-12T08:50:14Z</time>
      </trkpt>
      <trkpt lat="48.21688" lon="-2.86947">
        <ele>152.99</ele>
        <time>2020-08-12T08:50:15Z</time>
      </trkpt>
      <trkpt lat="48.21728" lon="-2.86889">
        <ele>151.54</ele>
        <time>2020-08-12T08:50:27Z</time>
      </trkpt>
      <trkpt lat="48.21759" lon="-2.86836">
        <ele>151.54</ele>
        <time>2020-08-12T08:50:40Z</time>
      </trkpt>
      <trkpt lat="48.21781" lon="-2.86773">
        <ele>151.54</ele>
        <time>2020-08-12T08:50:51Z</time>
      </trkpt>
      <trkpt lat="48.21814" lon="-2.8669">
        <ele>151.54</ele>
        <time>2020-08-12T08:51:06Z</time>
      </trkpt>
      <trkpt lat="48.21832" lon="-2.86629">
        <ele>151.54</ele>
        <time>2020-08-12T08:51:17Z</time>
      </trkpt>
      <trkpt lat="48.21855" lon="-2.86554">
        <ele>151.54</ele>
        <time>2020-08-12T08:51:30Z</time>
      </trkpt>
      <trkpt lat="48.21864" lon="-2.86521">
        <ele>152.03</ele>
        <time>2020-08-12T08:51:35Z</time>
      </trkpt>
      <trkpt lat="48.21866" lon="-2.86514">
        <ele>151.54</ele>
        <time>2020-08-12T08:51:36Z</time>
      </trkpt>
      <trkpt lat="48.21882" lon="-2.86427">
        <ele>152.03</ele>
        <time>2020-08-12T08:51:49Z</time>
      </trkpt>
      <trkpt lat="48.21894" lon="-2.86351">
        <ele>152.03</ele>
        <time>2020-08-12T08:52:02Z</time>
      </trkpt>
      <trkpt lat="48.21898" lon="-2.86305">
        <ele>152.03</ele>
        <time>2020-08-12T08:52:10Z</time>
      </trkpt>
      <trkpt lat="48.21897" lon="-2.86299">
        <ele>152.03</ele>
        <time>2020-08-12T08:52:11Z</time>
      </trkpt>
      <trkpt lat="48.21896" lon="-2.86295">
        <ele>152.03</ele>
        <time>2020-08-12T08:52:12Z</time>
      </trkpt>
      <trkpt lat="48.21895" lon="-2.86286">
        <ele>152.03</ele>
        <time>2020-08-12T08:52:15Z</time>
      </trkpt>
      <trkpt lat="48.21871" lon="-2.86248">
        <ele>152.03</ele>
        <time>2020-08-12T08:52:29Z</time>
      </trkpt>
      <trkpt lat="48.21822" lon="-2.86258">
        <ele>152.03</ele>
        <time>2020-08-12T08:52:42Z</time>
      </trkpt>
      <trkpt lat="48.218" lon="-2.86266">
        <ele>152.03</ele>
        <time>2020-08-12T08:52:48Z</time>
      </trkpt>
      <trkpt lat="48.21792" lon="-2.86269">
        <ele>152.03</ele>
        <time>2020-08-12T08:52:50Z</time>
      </trkpt>
      <trkpt lat="48.21772" lon="-2.86277">
        <ele>152.03</ele>
        <time>2020-08-12T08:52:55Z</time>
      </trkpt>
      <trkpt lat="48.21766" lon="-2.86279">
        <ele>151.54</ele>
        <time>2020-08-12T08:52:56Z</time>
      </trkpt>
      <trkpt lat="48.21715" lon="-2.86285">
        <ele>151.54</ele>
        <time>2020-08-12T08:53:07Z</time>
      </trkpt>
      <trkpt lat="48.21671" lon="-2.86274">
        <ele>151.54</ele>
        <time>2020-08-12T08:53:18Z</time>
      </trkpt>
      <trkpt lat="48.21666" lon="-2.86276">
        <ele>151.54</ele>
        <time>2020-08-12T08:53:20Z</time>
      </trkpt>
      <trkpt lat="48.21663" lon="-2.86278">
        <ele>151.54</ele>
        <time>2020-08-12T08:53:21Z</time>
      </trkpt>
      <trkpt lat="48.21646" lon="-2.86296">
        <ele>152.99</ele>
        <time>2020-08-12T08:53:28Z</time>
      </trkpt>
      <trkpt lat="48.21606" lon="-2.86291">
        <ele>152.99</ele>
        <time>2020-08-12T08:53:40Z</time>
      </trkpt>
      <trkpt lat="48.21553" lon="-2.86294">
        <ele>152.99</ele>
        <time>2020-08-12T08:53:54Z</time>
      </trkpt>
      <trkpt lat="48.21502" lon="-2.86312">
        <ele>152.99</ele>
        <time>2020-08-12T08:54:07Z</time>
      </trkpt>
      <trkpt lat="48.21471" lon="-2.86327">
        <ele>152.03</ele>
        <time>2020-08-12T08:54:14Z</time>
      </trkpt>
      <trkpt lat="48.21468" lon="-2.8633">
        <ele>152.03</ele>
        <time>2020-08-12T08:54:15Z</time>
      </trkpt>
      <trkpt lat="48.21458" lon="-2.86343">
        <ele>152.03</ele>
        <time>2020-08-12T08:54:18Z</time>
      </trkpt>
      <trkpt lat="48.21455" lon="-2.86348">
        <ele>152.03</ele>
        <time>2020-08-12T08:54:19Z</time>
      </trkpt>
      <trkpt lat="48.21452" lon="-2.86352">
        <ele>152.03</ele>
        <time>2020-08-12T08:54:20Z</time>
      </trkpt>
      <trkpt lat="48.21408" lon="-2.86419">
        <ele>152.03</ele>
        <time>2020-08-12T08:54:35Z</time>
      </trkpt>
      <trkpt lat="48.21398" lon="-2.86428">
        <ele>152.03</ele>
        <time>2020-08-12T08:54:38Z</time>
      </trkpt>
      <trkpt lat="48.21394" lon="-2.86429">
        <ele>152.03</ele>
        <time>2020-08-12T08:54:39Z</time>
      </trkpt>
      <trkpt lat="48.2139" lon="-2.8643">
        <ele>152.03</ele>
        <time>2020-08-12T08:54:40Z</time>
      </trkpt>
      <trkpt lat="48.21358" lon="-2.86425">
        <ele>152.03</ele>
        <time>2020-08-12T08:54:47Z</time>
      </trkpt>
      <trkpt lat="48.21354" lon="-2.86423">
        <ele>152.03</ele>
        <time>2020-08-12T08:54:48Z</time>
      </trkpt>
      <trkpt lat="48.21349" lon="-2.86419">
        <ele>152.03</ele>
        <time>2020-08-12T08:54:49Z</time>
      </trkpt>
      <trkpt lat="48.2133" lon="-2.86395">
        <ele>152.03</ele>
        <time>2020-08-12T08:54:55Z</time>
      </trkpt>
      <trkpt lat="48.21327" lon="-2.8639">
        <ele>152.03</ele>
        <time>2020-08-12T08:54:56Z</time>
      </trkpt>
      <trkpt lat="48.21325" lon="-2.86385">
        <ele>152.03</ele>
        <time>2020-08-12T08:54:57Z</time>
      </trkpt>
      <trkpt lat="48.21324" lon="-2.8638">
        <ele>152.03</ele>
        <time>2020-08-12T08:54:58Z</time>
      </trkpt>
      <trkpt lat="48.21323" lon="-2.86374">
        <ele>152.03</ele>
        <time>2020-08-12T08:54:59Z</time>
      </trkpt>
      <trkpt lat="48.21317" lon="-2.86349">
        <ele>152.03</ele>
        <time>2020-08-12T08:55:03Z</time>
      </trkpt>
      <trkpt lat="48.21314" lon="-2.86342">
        <ele>152.03</ele>
        <time>2020-08-12T08:55:04Z</time>
      </trkpt>
      <trkpt lat="48.21312" lon="-2.86336">
        <ele>152.03</ele>
        <time>2020-08-12T08:55:05Z</time>
      </trkpt>
      <trkpt lat="48.21292" lon="-2.86293">
        <ele>152.03</ele>
        <time>2020-08-12T08:55:12Z</time>
      </trkpt>
      <trkpt lat="48.21282" lon="-2.86238">
        <ele>152.03</ele>
        <time>2020-08-12T08:55:24Z</time>
      </trkpt>
      <trkpt lat="48.2129" lon="-2.86181">
        <ele>152.99</ele>
        <time>2020-08-12T08:55:37Z</time>
      </trkpt>
      <trkpt lat="48.21271" lon="-2.86097">
        <ele>152.99</ele>
        <time>2020-08-12T08:55:52Z</time>
      </trkpt>
      <trkpt lat="48.21268" lon="-2.86091">
        <ele>152.99</ele>
        <time>2020-08-12T08:55:53Z</time>
      </trkpt>
      <trkpt lat="48.21248" lon="-2.86067">
        <ele>152.03</ele>
        <time>2020-08-12T08:55:59Z</time>
      </trkpt>
      <trkpt lat="48.21244" lon="-2.86064">
        <ele>152.03</ele>
        <time>2020-08-12T08:56:00Z</time>
      </trkpt>
      <trkpt lat="48.2124" lon="-2.86062">
        <ele>152.03</ele>
        <time>2020-08-12T08:56:01Z</time>
      </trkpt>
      <trkpt lat="48.21186" lon="-2.86045">
        <ele>152.03</ele>
        <time>2020-08-12T08:56:15Z</time>
      </trkpt>
      <trkpt lat="48.21148" lon="-2.86046">
        <ele>152.03</ele>
        <time>2020-08-12T08:56:26Z</time>
      </trkpt>
      <trkpt lat="48.21107" lon="-2.8607">
        <ele>152.03</ele>
        <time>2020-08-12T08:56:39Z</time>
      </trkpt>
      <trkpt lat="48.21075" lon="-2.86123">
        <ele>151.54</ele>
        <time>2020-08-12T08:56:54Z</time>
      </trkpt>
      <trkpt lat="48.21047" lon="-2.86153">
        <ele>151.54</ele>
        <time>2020-08-12T08:57:05Z</time>
      </trkpt>
      <trkpt lat="48.21004" lon="-2.862">
        <ele>151.54</ele>
        <time>2020-08-12T08:57:17Z</time>
      </trkpt>
      <trkpt lat="48.2096" lon="-2.86255">
        <ele>151.54</ele>
        <time>2020-08-12T08:57:29Z</time>
      </trkpt>
      <trkpt lat="48.20928" lon="-2.86309">
        <ele>151.54</ele>
        <time>2020-08-12T08:57:41Z</time>
      </trkpt>
      <trkpt lat="48.20901" lon="-2.86383">
        <ele>151.54</ele>
        <time>2020-08-12T08:57:54Z</time>
      </trkpt>
      <trkpt lat="48.2088" lon="-2.8647">
        <ele>151.54</ele>
        <time>2020-08-12T08:58:09Z</time>
      </trkpt>
      <trkpt lat="48.2087" lon="-2.86491">
        <ele>151.54</ele>
        <time>2020-08-12T08:58:13Z</time>
      </trkpt>
      <trkpt lat="48.20866" lon="-2.86496">
        <ele>151.54</ele>
        <time>2020-08-12T08:58:14Z</time>
      </trkpt>
      <trkpt lat="48.20863" lon="-2.86501">
        <ele>151.54</ele>
        <time>2020-08-12T08:58:15Z</time>
      </trkpt>
      <trkpt lat="48.2086" lon="-2.86506">
        <ele>151.54</ele>
        <time>2020-08-12T08:58:16Z</time>
      </trkpt>
      <trkpt lat="48.20857" lon="-2.86512">
        <ele>151.54</ele>
        <time>2020-08-12T08:58:17Z</time>
      </trkpt>
      <trkpt lat="48.20854" lon="-2.86519">
        <ele>151.54</ele>
        <time>2020-08-12T08:58:18Z</time>
      </trkpt>
      <trkpt lat="48.20852" lon="-2.86525">
        <ele>151.54</ele>
        <time>2020-08-12T08:58:19Z</time>
      </trkpt>
      <trkpt lat="48.2085" lon="-2.86531">
        <ele>151.54</ele>
        <time>2020-08-12T08:58:20Z</time>
      </trkpt>
      <trkpt lat="48.20849" lon="-2.86536">
        <ele>151.54</ele>
        <time>2020-08-12T08:58:21Z</time>
      </trkpt>
      <trkpt lat="48.20847" lon="-2.86543">
        <ele>151.54</ele>
        <time>2020-08-12T08:58:22Z</time>
      </trkpt>
      <trkpt lat="48.20828" lon="-2.86605">
        <ele>151.54</ele>
        <time>2020-08-12T08:58:34Z</time>
      </trkpt>
      <trkpt lat="48.208" lon="-2.86664">
        <ele>152.51</ele>
        <time>2020-08-12T08:58:47Z</time>
      </trkpt>
      <trkpt lat="48.20763" lon="-2.86721">
        <ele>152.51</ele>
        <time>2020-08-12T08:59:01Z</time>
      </trkpt>
      <trkpt lat="48.20738" lon="-2.86763">
        <ele>152.51</ele>
        <time>2020-08-12T08:59:12Z</time>
      </trkpt>
      <trkpt lat="48.20734" lon="-2.86824">
        <ele>152.51</ele>
        <time>2020-08-12T08:59:23Z</time>
      </trkpt>
      <trkpt lat="48.20738" lon="-2.86864">
        <ele>152.51</ele>
        <time>2020-08-12T08:59:30Z</time>
      </trkpt>
      <trkpt lat="48.20737" lon="-2.86871">
        <ele>152.51</ele>
        <time>2020-08-12T08:59:31Z</time>
      </trkpt>
      <trkpt lat="48.20736" lon="-2.86877">
        <ele>152.51</ele>
        <time>2020-08-12T08:59:32Z</time>
      </trkpt>
      <trkpt lat="48.20734" lon="-2.86883">
        <ele>152.51</ele>
        <time>2020-08-12T08:59:33Z</time>
      </trkpt>
      <trkpt lat="48.20732" lon="-2.86888">
        <ele>152.51</ele>
        <time>2020-08-12T08:59:34Z</time>
      </trkpt>
      <trkpt lat="48.20729" lon="-2.86893">
        <ele>152.51</ele>
        <time>2020-08-12T08:59:35Z</time>
      </trkpt>
      <trkpt lat="48.20726" lon="-2.86898">
        <ele>152.51</ele>
        <time>2020-08-12T08:59:36Z</time>
      </trkpt>
      <trkpt lat="48.20691" lon="-2.86953">
        <ele>152.51</ele>
        <time>2020-08-12T08:59:48Z</time>
      </trkpt>
      <trkpt lat="48.20687" lon="-2.86957">
        <ele>152.51</ele>
        <time>2020-08-12T08:59:49Z</time>
      </trkpt>
      <trkpt lat="48.20683" lon="-2.86959">
        <ele>151.54</ele>
        <time>2020-08-12T08:59:50Z</time>
      </trkpt>
      <trkpt lat="48.20678" lon="-2.8696">
        <ele>151.54</ele>
        <time>2020-08-12T08:59:51Z</time>
      </trkpt>
      <trkpt lat="48.20673" lon="-2.86959">
        <ele>151.54</ele>
        <time>2020-08-12T08:59:52Z</time>
      </trkpt>
      <trkpt lat="48.20668" lon="-2.86958">
        <ele>151.54</ele>
        <time>2020-08-12T08:59:53Z</time>
      </trkpt>
      <trkpt lat="48.20663" lon="-2.86956">
        <ele>151.54</ele>
        <time>2020-08-12T08:59:54Z</time>
      </trkpt>
      <trkpt lat="48.20659" lon="-2.86954">
        <ele>151.54</ele>
        <time>2020-08-12T08:59:55Z</time>
      </trkpt>
      <trkpt lat="48.20654" lon="-2.86952">
        <ele>151.54</ele>
        <time>2020-08-12T08:59:56Z</time>
      </trkpt>
      <trkpt lat="48.20651" lon="-2.8695">
        <ele>151.54</ele>
        <time>2020-08-12T08:59:57Z</time>
      </trkpt>
      <trkpt lat="48.20593" lon="-2.86935">
        <ele>151.54</ele>
        <time>2020-08-12T09:00:11Z</time>
      </trkpt>
      <trkpt lat="48.20563" lon="-2.86948">
        <ele>151.54</ele>
        <time>2020-08-12T09:00:21Z</time>
      </trkpt>
      <trkpt lat="48.20532" lon="-2.86957">
        <ele>152.99</ele>
        <time>2020-08-12T09:00:32Z</time>
      </trkpt>
      <trkpt lat="48.20521" lon="-2.86954">
        <ele>152.99</ele>
        <time>2020-08-12T09:00:35Z</time>
      </trkpt>
      <trkpt lat="48.20517" lon="-2.86954">
        <ele>152.99</ele>
        <time>2020-08-12T09:00:36Z</time>
      </trkpt>
      <trkpt lat="48.20512" lon="-2.86955">
        <ele>151.54</ele>
        <time>2020-08-12T09:00:37Z</time>
      </trkpt>
      <trkpt lat="48.20466" lon="-2.86982">
        <ele>151.54</ele>
        <time>2020-08-12T09:00:49Z</time>
      </trkpt>
      <trkpt lat="48.20441" lon="-2.87005">
        <ele>151.54</ele>
        <time>2020-08-12T09:01:02Z</time>
      </trkpt>
      <trkpt lat="48.20441" lon="-2.87008">
        <ele>151.54</ele>
        <time>2020-08-12T09:01:34Z</time>
      </trkpt>
      <trkpt lat="48.2044" lon="-2.87006">
        <ele>151.54</ele>
        <time>2020-08-12T09:01:59Z</time>
      </trkpt>
      <trkpt lat="48.20441" lon="-2.87007">
        <ele>151.54</ele>
        <time>2020-08-12T09:02:26Z</time>
      </trkpt>
      <trkpt lat="48.20442" lon="-2.87007">
        <ele>151.54</ele>
        <time>2020-08-12T09:02:53Z</time>
      </trkpt>
      <trkpt lat="48.20442" lon="-2.87006">
        <ele>151.54</ele>
        <time>2020-08-12T09:03:17Z</time>
      </trkpt>
      <trkpt lat="48.20442" lon="-2.87006">
        <ele>151.54</ele>
        <time>2020-08-12T09:03:39Z</time>
      </trkpt>
      <trkpt lat="48.20432" lon="-2.87012">
        <ele>151.54</ele>
        <time>2020-08-12T09:03:54Z</time>
      </trkpt>
      <trkpt lat="48.20399" lon="-2.87044">
        <ele>151.06</ele>
        <time>2020-08-12T09:04:06Z</time>
      </trkpt>
      <trkpt lat="48.20356" lon="-2.87106">
        <ele>151.06</ele>
        <time>2020-08-12T09:04:21Z</time>
      </trkpt>
      <trkpt lat="48.20322" lon="-2.87156">
        <ele>151.06</ele>
        <time>2020-08-12T09:04:32Z</time>
      </trkpt>
      <trkpt lat="48.20319" lon="-2.87161">
        <ele>151.06</ele>
        <time>2020-08-12T09:04:33Z</time>
      </trkpt>
      <trkpt lat="48.20316" lon="-2.87166">
        <ele>151.06</ele>
        <time>2020-08-12T09:04:34Z</time>
      </trkpt>
      <trkpt lat="48.20312" lon="-2.87172">
        <ele>151.06</ele>
        <time>2020-08-12T09:04:35Z</time>
      </trkpt>
      <trkpt lat="48.20309" lon="-2.87176">
        <ele>151.06</ele>
        <time>2020-08-12T09:04:36Z</time>
      </trkpt>
      <trkpt lat="48.203" lon="-2.87192">
        <ele>151.06</ele>
        <time>2020-08-12T09:04:39Z</time>
      </trkpt>
      <trkpt lat="48.2029" lon="-2.87225">
        <ele>151.06</ele>
        <time>2020-08-12T09:04:45Z</time>
      </trkpt>
      <trkpt lat="48.20275" lon="-2.87307">
        <ele>151.06</ele>
        <time>2020-08-12T09:04:57Z</time>
      </trkpt>
      <trkpt lat="48.20273" lon="-2.87313">
        <ele>151.06</ele>
        <time>2020-08-12T09:04:58Z</time>
      </trkpt>
      <trkpt lat="48.20254" lon="-2.87345">
        <ele>151.06</ele>
        <time>2020-08-12T09:05:04Z</time>
      </trkpt>
      <trkpt lat="48.2024" lon="-2.87368">
        <ele>151.06</ele>
        <time>2020-08-12T09:05:09Z</time>
      </trkpt>
      <trkpt lat="48.20238" lon="-2.87373">
        <ele>151.06</ele>
        <time>2020-08-12T09:05:10Z</time>
      </trkpt>
      <trkpt lat="48.20236" lon="-2.87379">
        <ele>151.06</ele>
        <time>2020-08-12T09:05:11Z</time>
      </trkpt>
      <trkpt lat="48.20234" lon="-2.87385">
        <ele>151.06</ele>
        <time>2020-08-12T09:05:12Z</time>
      </trkpt>
      <trkpt lat="48.20232" lon="-2.87392">
        <ele>151.06</ele>
        <time>2020-08-12T09:05:13Z</time>
      </trkpt>
      <trkpt lat="48.20231" lon="-2.87398">
        <ele>151.06</ele>
        <time>2020-08-12T09:05:14Z</time>
      </trkpt>
      <trkpt lat="48.20223" lon="-2.87429">
        <ele>151.06</ele>
        <time>2020-08-12T09:05:19Z</time>
      </trkpt>
      <trkpt lat="48.20221" lon="-2.87436">
        <ele>151.06</ele>
        <time>2020-08-12T09:05:20Z</time>
      </trkpt>
      <trkpt lat="48.20218" lon="-2.87441">
        <ele>151.06</ele>
        <time>2020-08-12T09:05:21Z</time>
      </trkpt>
      <trkpt lat="48.20215" lon="-2.87445">
        <ele>151.06</ele>
        <time>2020-08-12T09:05:22Z</time>
      </trkpt>
      <trkpt lat="48.20211" lon="-2.8745">
        <ele>151.06</ele>
        <time>2020-08-12T09:05:23Z</time>
      </trkpt>
      <trkpt lat="48.20207" lon="-2.87453">
        <ele>151.06</ele>
        <time>2020-08-12T09:05:24Z</time>
      </trkpt>
      <trkpt lat="48.20202" lon="-2.87455">
        <ele>151.06</ele>
        <time>2020-08-12T09:05:25Z</time>
      </trkpt>
      <trkpt lat="48.20197" lon="-2.87455">
        <ele>151.06</ele>
        <time>2020-08-12T09:05:26Z</time>
      </trkpt>
      <trkpt lat="48.20193" lon="-2.87454">
        <ele>151.06</ele>
        <time>2020-08-12T09:05:27Z</time>
      </trkpt>
      <trkpt lat="48.20189" lon="-2.87452">
        <ele>151.06</ele>
        <time>2020-08-12T09:05:28Z</time>
      </trkpt>
      <trkpt lat="48.20185" lon="-2.87449">
        <ele>151.06</ele>
        <time>2020-08-12T09:05:29Z</time>
      </trkpt>
      <trkpt lat="48.20181" lon="-2.87444">
        <ele>151.06</ele>
        <time>2020-08-12T09:05:30Z</time>
      </trkpt>
      <trkpt lat="48.20179" lon="-2.87439">
        <ele>151.06</ele>
        <time>2020-08-12T09:05:31Z</time>
      </trkpt>
      <trkpt lat="48.20177" lon="-2.87434">
        <ele>151.06</ele>
        <time>2020-08-12T09:05:32Z</time>
      </trkpt>
      <trkpt lat="48.20176" lon="-2.87428">
        <ele>151.06</ele>
        <time>2020-08-12T09:05:33Z</time>
      </trkpt>
      <trkpt lat="48.20175" lon="-2.87422">
        <ele>151.06</ele>
        <time>2020-08-12T09:05:34Z</time>
      </trkpt>
      <trkpt lat="48.20175" lon="-2.87415">
        <ele>151.06</ele>
        <time>2020-08-12T09:05:35Z</time>
      </trkpt>
      <trkpt lat="48.20173" lon="-2.87371">
        <ele>151.06</ele>
        <time>2020-08-12T09:05:42Z</time>
      </trkpt>
      <trkpt lat="48.20173" lon="-2.87364">
        <ele>151.06</ele>
        <time>2020-08-12T09:05:43Z</time>
      </trkpt>
      <trkpt lat="48.20174" lon="-2.87359">
        <ele>151.06</ele>
        <time>2020-08-12T09:05:44Z</time>
      </trkpt>
      <trkpt lat="48.20192" lon="-2.87295">
        <ele>151.06</ele>
        <time>2020-08-12T09:05:55Z</time>
      </trkpt>
      <trkpt lat="48.20196" lon="-2.87269">
        <ele>151.06</ele>
        <time>2020-08-12T09:05:59Z</time>
      </trkpt>
      <trkpt lat="48.20212" lon="-2.87173">
        <ele>151.06</ele>
        <time>2020-08-12T09:06:15Z</time>
      </trkpt>
      <trkpt lat="48.20217" lon="-2.8711">
        <ele>151.06</ele>
        <time>2020-08-12T09:06:25Z</time>
      </trkpt>
      <trkpt lat="48.20218" lon="-2.87104">
        <ele>151.06</ele>
        <time>2020-08-12T09:06:26Z</time>
      </trkpt>
      <trkpt lat="48.20235" lon="-2.87049">
        <ele>151.06</ele>
        <time>2020-08-12T09:06:37Z</time>
      </trkpt>
      <trkpt lat="48.20257" lon="-2.86972">
        <ele>151.06</ele>
        <time>2020-08-12T09:06:51Z</time>
      </trkpt>
      <trkpt lat="48.20259" lon="-2.86966">
        <ele>151.06</ele>
        <time>2020-08-12T09:06:52Z</time>
      </trkpt>
      <trkpt lat="48.20272" lon="-2.86924">
        <ele>151.06</ele>
        <time>2020-08-12T09:06:59Z</time>
      </trkpt>
      <trkpt lat="48.20292" lon="-2.86857">
        <ele>151.06</ele>
        <time>2020-08-12T09:07:10Z</time>
      </trkpt>
      <trkpt lat="48.20294" lon="-2.86851">
        <ele>151.06</ele>
        <time>2020-08-12T09:07:11Z</time>
      </trkpt>
      <trkpt lat="48.20317" lon="-2.86784">
        <ele>152.51</ele>
        <time>2020-08-12T09:07:23Z</time>
      </trkpt>
      <trkpt lat="48.20342" lon="-2.86756">
        <ele>152.51</ele>
        <time>2020-08-12T09:07:33Z</time>
      </trkpt>
      <trkpt lat="48.20368" lon="-2.86744">
        <ele>152.51</ele>
        <time>2020-08-12T09:07:39Z</time>
      </trkpt>
      <trkpt lat="48.20373" lon="-2.86743">
        <ele>152.51</ele>
        <time>2020-08-12T09:07:40Z</time>
      </trkpt>
      <trkpt lat="48.20377" lon="-2.86743">
        <ele>152.51</ele>
        <time>2020-08-12T09:07:41Z</time>
      </trkpt>
      <trkpt lat="48.2038" lon="-2.86743">
        <ele>152.51</ele>
        <time>2020-08-12T09:07:42Z</time>
      </trkpt>
      <trkpt lat="48.20384" lon="-2.86742">
        <ele>152.51</ele>
        <time>2020-08-12T09:07:43Z</time>
      </trkpt>
      <trkpt lat="48.20387" lon="-2.86741">
        <ele>152.51</ele>
        <time>2020-08-12T09:07:44Z</time>
      </trkpt>
      <trkpt lat="48.20391" lon="-2.86739">
        <ele>152.51</ele>
        <time>2020-08-12T09:07:45Z</time>
      </trkpt>
      <trkpt lat="48.20395" lon="-2.86736">
        <ele>152.51</ele>
        <time>2020-08-12T09:07:46Z</time>
      </trkpt>
      <trkpt lat="48.20398" lon="-2.86733">
        <ele>152.51</ele>
        <time>2020-08-12T09:07:47Z</time>
      </trkpt>
      <trkpt lat="48.20402" lon="-2.86729">
        <ele>152.51</ele>
        <time>2020-08-12T09:07:48Z</time>
      </trkpt>
      <trkpt lat="48.20419" lon="-2.86688">
        <ele>152.51</ele>
        <time>2020-08-12T09:07:58Z</time>
      </trkpt>
      <trkpt lat="48.2044" lon="-2.86614">
        <ele>152.51</ele>
        <time>2020-08-12T09:08:12Z</time>
      </trkpt>
      <trkpt lat="48.20443" lon="-2.86607">
        <ele>152.51</ele>
        <time>2020-08-12T09:08:13Z</time>
      </trkpt>
      <trkpt lat="48.20445" lon="-2.86601">
        <ele>152.51</ele>
        <time>2020-08-12T09:08:14Z</time>
      </trkpt>
      <trkpt lat="48.20457" lon="-2.86567">
        <ele>151.54</ele>
        <time>2020-08-12T09:08:19Z</time>
      </trkpt>
      <trkpt lat="48.20459" lon="-2.8656">
        <ele>151.54</ele>
        <time>2020-08-12T09:08:20Z</time>
      </trkpt>
      <trkpt lat="48.20461" lon="-2.86553">
        <ele>151.54</ele>
        <time>2020-08-12T09:08:21Z</time>
      </trkpt>
      <trkpt lat="48.20477" lon="-2.86472">
        <ele>151.54</ele>
        <time>2020-08-12T09:08:34Z</time>
      </trkpt>
      <trkpt lat="48.20492" lon="-2.86424">
        <ele>151.54</ele>
        <time>2020-08-12T09:08:42Z</time>
      </trkpt>
      <trkpt lat="48.20497" lon="-2.8641">
        <ele>151.54</ele>
        <time>2020-08-12T09:08:44Z</time>
      </trkpt>
      <trkpt lat="48.20512" lon="-2.86359">
        <ele>151.54</ele>
        <time>2020-08-12T09:08:52Z</time>
      </trkpt>
      <trkpt lat="48.20514" lon="-2.86352">
        <ele>151.06</ele>
        <time>2020-08-12T09:08:53Z</time>
      </trkpt>
      <trkpt lat="48.20516" lon="-2.86346">
        <ele>151.06</ele>
        <time>2020-08-12T09:08:54Z</time>
      </trkpt>
      <trkpt lat="48.20518" lon="-2.8634">
        <ele>151.06</ele>
        <time>2020-08-12T09:08:55Z</time>
      </trkpt>
      <trkpt lat="48.20521" lon="-2.86334">
        <ele>151.06</ele>
        <time>2020-08-12T09:08:56Z</time>
      </trkpt>
      <trkpt lat="48.20524" lon="-2.86328">
        <ele>151.54</ele>
        <time>2020-08-12T09:08:57Z</time>
      </trkpt>
      <trkpt lat="48.20527" lon="-2.86323">
        <ele>151.54</ele>
        <time>2020-08-12T09:08:58Z</time>
      </trkpt>
      <trkpt lat="48.20552" lon="-2.86263">
        <ele>151.54</ele>
        <time>2020-08-12T09:09:08Z</time>
      </trkpt>
      <trkpt lat="48.2056" lon="-2.86223">
        <ele>152.99</ele>
        <time>2020-08-12T09:09:17Z</time>
      </trkpt>
      <trkpt lat="48.20561" lon="-2.86215">
        <ele>153.47</ele>
        <time>2020-08-12T09:09:19Z</time>
      </trkpt>
      <trkpt lat="48.20562" lon="-2.86211">
        <ele>152.99</ele>
        <time>2020-08-12T09:09:20Z</time>
      </trkpt>
      <trkpt lat="48.20564" lon="-2.86207">
        <ele>153.47</ele>
        <time>2020-08-12T09:09:21Z</time>
      </trkpt>
      <trkpt lat="48.20598" lon="-2.86139">
        <ele>153.47</ele>
        <time>2020-08-12T09:09:35Z</time>
      </trkpt>
      <trkpt lat="48.20611" lon="-2.86099">
        <ele>152.03</ele>
        <time>2020-08-12T09:09:42Z</time>
      </trkpt>
      <trkpt lat="48.20619" lon="-2.86029">
        <ele>151.54</ele>
        <time>2020-08-12T09:09:53Z</time>
      </trkpt>
      <trkpt lat="48.20621" lon="-2.85971">
        <ele>151.54</ele>
        <time>2020-08-12T09:10:01Z</time>
      </trkpt>
      <trkpt lat="48.2062" lon="-2.85963">
        <ele>151.54</ele>
        <time>2020-08-12T09:10:02Z</time>
      </trkpt>
      <trkpt lat="48.20593" lon="-2.85881">
        <ele>152.03</ele>
        <time>2020-08-12T09:10:16Z</time>
      </trkpt>
      <trkpt lat="48.2057" lon="-2.85851">
        <ele>151.54</ele>
        <time>2020-08-12T09:10:22Z</time>
      </trkpt>
      <trkpt lat="48.20565" lon="-2.85847">
        <ele>151.06</ele>
        <time>2020-08-12T09:10:23Z</time>
      </trkpt>
      <trkpt lat="48.20561" lon="-2.85844">
        <ele>151.06</ele>
        <time>2020-08-12T09:10:24Z</time>
      </trkpt>
      <trkpt lat="48.20557" lon="-2.85842">
        <ele>151.06</ele>
        <time>2020-08-12T09:10:25Z</time>
      </trkpt>
      <trkpt lat="48.20552" lon="-2.85841">
        <ele>151.06</ele>
        <time>2020-08-12T09:10:26Z</time>
      </trkpt>
      <trkpt lat="48.20548" lon="-2.85841">
        <ele>151.06</ele>
        <time>2020-08-12T09:10:27Z</time>
      </trkpt>
      <trkpt lat="48.20499" lon="-2.85855">
        <ele>152.51</ele>
        <time>2020-08-12T09:10:41Z</time>
      </trkpt>
      <trkpt lat="48.20473" lon="-2.85843">
        <ele>152.51</ele>
        <time>2020-08-12T09:10:49Z</time>
      </trkpt>
      <trkpt lat="48.20469" lon="-2.8584">
        <ele>152.51</ele>
        <time>2020-08-12T09:10:50Z</time>
      </trkpt>
      <trkpt lat="48.20466" lon="-2.85838">
        <ele>152.51</ele>
        <time>2020-08-12T09:10:51Z</time>
      </trkpt>
      <trkpt lat="48.20462" lon="-2.85835">
        <ele>152.51</ele>
        <time>2020-08-12T09:10:52Z</time>
      </trkpt>
      <trkpt lat="48.20459" lon="-2.85834">
        <ele>152.51</ele>
        <time>2020-08-12T09:10:53Z</time>
      </trkpt>
      <trkpt lat="48.20402" lon="-2.85825">
        <ele>152.51</ele>
        <time>2020-08-12T09:11:06Z</time>
      </trkpt>
      <trkpt lat="48.20332" lon="-2.8583">
        <ele>152.51</ele>
        <time>2020-08-12T09:11:21Z</time>
      </trkpt>
      <trkpt lat="48.20261" lon="-2.85841">
        <ele>152.51</ele>
        <time>2020-08-12T09:11:38Z</time>
      </trkpt>
      <trkpt lat="48.20209" lon="-2.85873">
        <ele>152.51</ele>
        <time>2020-08-12T09:11:51Z</time>
      </trkpt>
      <trkpt lat="48.20195" lon="-2.85885">
        <ele>152.51</ele>
        <time>2020-08-12T09:11:55Z</time>
      </trkpt>
      <trkpt lat="48.20192" lon="-2.85889">
        <ele>152.51</ele>
        <time>2020-08-12T09:11:56Z</time>
      </trkpt>
      <trkpt lat="48.20188" lon="-2.85894">
        <ele>152.51</ele>
        <time>2020-08-12T09:11:57Z</time>
      </trkpt>
      <trkpt lat="48.20147" lon="-2.85968">
        <ele>152.51</ele>
        <time>2020-08-12T09:12:11Z</time>
      </trkpt>
      <trkpt lat="48.20124" lon="-2.86056">
        <ele>152.51</ele>
        <time>2020-08-12T09:12:26Z</time>
      </trkpt>
      <trkpt lat="48.2011" lon="-2.86077">
        <ele>152.51</ele>
        <time>2020-08-12T09:12:31Z</time>
      </trkpt>
      <trkpt lat="48.20106" lon="-2.8608">
        <ele>152.51</ele>
        <time>2020-08-12T09:12:32Z</time>
      </trkpt>
      <trkpt lat="48.20102" lon="-2.86084">
        <ele>152.51</ele>
        <time>2020-08-12T09:12:33Z</time>
      </trkpt>
      <trkpt lat="48.20097" lon="-2.86086">
        <ele>152.51</ele>
        <time>2020-08-12T09:12:34Z</time>
      </trkpt>
      <trkpt lat="48.20092" lon="-2.86087">
        <ele>152.51</ele>
        <time>2020-08-12T09:12:35Z</time>
      </trkpt>
      <trkpt lat="48.20088" lon="-2.86087">
        <ele>152.51</ele>
        <time>2020-08-12T09:12:36Z</time>
      </trkpt>
      <trkpt lat="48.20083" lon="-2.86086">
        <ele>152.51</ele>
        <time>2020-08-12T09:12:37Z</time>
      </trkpt>
      <trkpt lat="48.20079" lon="-2.86085">
        <ele>152.51</ele>
        <time>2020-08-12T09:12:38Z</time>
      </trkpt>
      <trkpt lat="48.20016" lon="-2.8606">
        <ele>151.54</ele>
        <time>2020-08-12T09:12:53Z</time>
      </trkpt>
      <trkpt lat="48.19943" lon="-2.86031">
        <ele>151.54</ele>
        <time>2020-08-12T09:13:10Z</time>
      </trkpt>
      <trkpt lat="48.19939" lon="-2.86031">
        <ele>151.54</ele>
        <time>2020-08-12T09:13:11Z</time>
      </trkpt>
      <trkpt lat="48.1993" lon="-2.86031">
        <ele>151.54</ele>
        <time>2020-08-12T09:13:13Z</time>
      </trkpt>
      <trkpt lat="48.1987" lon="-2.86035">
        <ele>151.06</ele>
        <time>2020-08-12T09:13:27Z</time>
      </trkpt>
      <trkpt lat="48.19799" lon="-2.86029">
        <ele>151.06</ele>
        <time>2020-08-12T09:13:42Z</time>
      </trkpt>
      <trkpt lat="48.1976" lon="-2.86013">
        <ele>151.06</ele>
        <time>2020-08-12T09:13:52Z</time>
      </trkpt>
      <trkpt lat="48.19757" lon="-2.86009">
        <ele>151.06</ele>
        <time>2020-08-12T09:13:53Z</time>
      </trkpt>
      <trkpt lat="48.19731" lon="-2.85952">
        <ele>151.54</ele>
        <time>2020-08-12T09:14:06Z</time>
      </trkpt>
      <trkpt lat="48.19728" lon="-2.85935">
        <ele>151.54</ele>
        <time>2020-08-12T09:14:09Z</time>
      </trkpt>
      <trkpt lat="48.19728" lon="-2.85927">
        <ele>151.54</ele>
        <time>2020-08-12T09:14:10Z</time>
      </trkpt>
      <trkpt lat="48.19715" lon="-2.85846">
        <ele>151.54</ele>
        <time>2020-08-12T09:14:23Z</time>
      </trkpt>
      <trkpt lat="48.19708" lon="-2.85811">
        <ele>151.54</ele>
        <time>2020-08-12T09:14:28Z</time>
      </trkpt>
      <trkpt lat="48.19706" lon="-2.85805">
        <ele>151.54</ele>
        <time>2020-08-12T09:14:29Z</time>
      </trkpt>
      <trkpt lat="48.19704" lon="-2.85798">
        <ele>151.54</ele>
        <time>2020-08-12T09:14:30Z</time>
      </trkpt>
      <trkpt lat="48.19658" lon="-2.85718">
        <ele>151.54</ele>
        <time>2020-08-12T09:14:46Z</time>
      </trkpt>
      <trkpt lat="48.1962" lon="-2.85694">
        <ele>151.54</ele>
        <time>2020-08-12T09:14:57Z</time>
      </trkpt>
      <trkpt lat="48.19595" lon="-2.85709">
        <ele>151.54</ele>
        <time>2020-08-12T09:15:09Z</time>
      </trkpt>
      <trkpt lat="48.19565" lon="-2.85735">
        <ele>151.54</ele>
        <time>2020-08-12T09:15:22Z</time>
      </trkpt>
      <trkpt lat="48.19563" lon="-2.85737">
        <ele>151.54</ele>
        <time>2020-08-12T09:15:36Z</time>
      </trkpt>
      <trkpt lat="48.19561" lon="-2.85736">
        <ele>151.06</ele>
        <time>2020-08-12T09:16:10Z</time>
      </trkpt>
      <trkpt lat="48.19553" lon="-2.8575">
        <ele>150.58</ele>
        <time>2020-08-12T09:16:36Z</time>
      </trkpt>
      <trkpt lat="48.19529" lon="-2.8579">
        <ele>150.58</ele>
        <time>2020-08-12T09:16:44Z</time>
      </trkpt>
      <trkpt lat="48.19526" lon="-2.85796">
        <ele>150.58</ele>
        <time>2020-08-12T09:16:45Z</time>
      </trkpt>
      <trkpt lat="48.19524" lon="-2.85802">
        <ele>150.58</ele>
        <time>2020-08-12T09:16:46Z</time>
      </trkpt>
      <trkpt lat="48.19523" lon="-2.85808">
        <ele>150.58</ele>
        <time>2020-08-12T09:16:47Z</time>
      </trkpt>
      <trkpt lat="48.19521" lon="-2.85814">
        <ele>150.58</ele>
        <time>2020-08-12T09:16:48Z</time>
      </trkpt>
      <trkpt lat="48.19509" lon="-2.85876">
        <ele>150.58</ele>
        <time>2020-08-12T09:17:00Z</time>
      </trkpt>
      <trkpt lat="48.19506" lon="-2.85929">
        <ele>150.58</ele>
        <time>2020-08-12T09:17:13Z</time>
      </trkpt>
      <trkpt lat="48.19507" lon="-2.85989">
        <ele>150.58</ele>
        <time>2020-08-12T09:17:26Z</time>
      </trkpt>
      <trkpt lat="48.19502" lon="-2.86057">
        <ele>150.58</ele>
        <time>2020-08-12T09:17:40Z</time>
      </trkpt>
      <trkpt lat="48.19489" lon="-2.86136">
        <ele>150.58</ele>
        <time>2020-08-12T09:17:55Z</time>
      </trkpt>
      <trkpt lat="48.19483" lon="-2.862">
        <ele>151.54</ele>
        <time>2020-08-12T09:18:09Z</time>
      </trkpt>
      <trkpt lat="48.19472" lon="-2.86244">
        <ele>152.99</ele>
        <time>2020-08-12T09:18:22Z</time>
      </trkpt>
      <trkpt lat="48.19449" lon="-2.86286">
        <ele>152.51</ele>
        <time>2020-08-12T09:18:34Z</time>
      </trkpt>
      <trkpt lat="48.19428" lon="-2.86343">
        <ele>152.51</ele>
        <time>2020-08-12T09:18:47Z</time>
      </trkpt>
      <trkpt lat="48.19437" lon="-2.86397">
        <ele>152.99</ele>
        <time>2020-08-12T09:18:59Z</time>
      </trkpt>
      <trkpt lat="48.19456" lon="-2.86438">
        <ele>151.54</ele>
        <time>2020-08-12T09:19:09Z</time>
      </trkpt>
      <trkpt lat="48.19475" lon="-2.86509">
        <ele>151.06</ele>
        <time>2020-08-12T09:19:23Z</time>
      </trkpt>
      <trkpt lat="48.19467" lon="-2.86545">
        <ele>151.06</ele>
        <time>2020-08-12T09:19:33Z</time>
      </trkpt>
      <trkpt lat="48.19463" lon="-2.86555">
        <ele>151.06</ele>
        <time>2020-08-12T09:19:35Z</time>
      </trkpt>
      <trkpt lat="48.19461" lon="-2.8656">
        <ele>151.06</ele>
        <time>2020-08-12T09:19:36Z</time>
      </trkpt>
      <trkpt lat="48.1946" lon="-2.86566">
        <ele>151.06</ele>
        <time>2020-08-12T09:19:37Z</time>
      </trkpt>
      <trkpt lat="48.19449" lon="-2.86681">
        <ele>150.1</ele>
        <time>2020-08-12T09:19:55Z</time>
      </trkpt>
      <trkpt lat="48.19436" lon="-2.86745">
        <ele>150.1</ele>
        <time>2020-08-12T09:20:07Z</time>
      </trkpt>
      <trkpt lat="48.19422" lon="-2.86809">
        <ele>150.1</ele>
        <time>2020-08-12T09:20:21Z</time>
      </trkpt>
      <trkpt lat="48.19421" lon="-2.86811">
        <ele>151.54</ele>
        <time>2020-08-12T09:20:22Z</time>
      </trkpt>
      <trkpt lat="48.1942" lon="-2.86813">
        <ele>151.54</ele>
        <time>2020-08-12T09:20:23Z</time>
      </trkpt>
      <trkpt lat="48.19417" lon="-2.86814">
        <ele>151.54</ele>
        <time>2020-08-12T09:20:24Z</time>
      </trkpt>
      <trkpt lat="48.19415" lon="-2.86816">
        <ele>151.54</ele>
        <time>2020-08-12T09:20:25Z</time>
      </trkpt>
      <trkpt lat="48.19413" lon="-2.86818">
        <ele>151.54</ele>
        <time>2020-08-12T09:20:26Z</time>
      </trkpt>
      <trkpt lat="48.19412" lon="-2.86822">
        <ele>151.54</ele>
        <time>2020-08-12T09:20:27Z</time>
      </trkpt>
      <trkpt lat="48.19412" lon="-2.86825">
        <ele>151.54</ele>
        <time>2020-08-12T09:20:28Z</time>
      </trkpt>
      <trkpt lat="48.19412" lon="-2.8683">
        <ele>151.54</ele>
        <time>2020-08-12T09:20:29Z</time>
      </trkpt>
      <trkpt lat="48.19413" lon="-2.86834">
        <ele>151.54</ele>
        <time>2020-08-12T09:20:30Z</time>
      </trkpt>
      <trkpt lat="48.19413" lon="-2.86839">
        <ele>151.54</ele>
        <time>2020-08-12T09:20:31Z</time>
      </trkpt>
      <trkpt lat="48.19413" lon="-2.86844">
        <ele>151.54</ele>
        <time>2020-08-12T09:20:32Z</time>
      </trkpt>
      <trkpt lat="48.19412" lon="-2.86847">
        <ele>151.54</ele>
        <time>2020-08-12T09:20:33Z</time>
      </trkpt>
      <trkpt lat="48.19411" lon="-2.86852">
        <ele>151.54</ele>
        <time>2020-08-12T09:20:34Z</time>
      </trkpt>
      <trkpt lat="48.19392" lon="-2.86931">
        <ele>151.06</ele>
        <time>2020-08-12T09:20:48Z</time>
      </trkpt>
      <trkpt lat="48.19384" lon="-2.8701">
        <ele>150.1</ele>
        <time>2020-08-12T09:21:02Z</time>
      </trkpt>
      <trkpt lat="48.19392" lon="-2.87065">
        <ele>150.1</ele>
        <time>2020-08-12T09:21:11Z</time>
      </trkpt>
      <trkpt lat="48.19409" lon="-2.87137">
        <ele>150.1</ele>
        <time>2020-08-12T09:21:23Z</time>
      </trkpt>
      <trkpt lat="48.19409" lon="-2.87143">
        <ele>150.1</ele>
        <time>2020-08-12T09:21:24Z</time>
      </trkpt>
      <trkpt lat="48.19409" lon="-2.8715">
        <ele>149.62</ele>
        <time>2020-08-12T09:21:25Z</time>
      </trkpt>
      <trkpt lat="48.19407" lon="-2.87156">
        <ele>149.62</ele>
        <time>2020-08-12T09:21:26Z</time>
      </trkpt>
      <trkpt lat="48.19405" lon="-2.87162">
        <ele>149.62</ele>
        <time>2020-08-12T09:21:27Z</time>
      </trkpt>
      <trkpt lat="48.19402" lon="-2.87166">
        <ele>149.62</ele>
        <time>2020-08-12T09:21:28Z</time>
      </trkpt>
      <trkpt lat="48.19398" lon="-2.87169">
        <ele>149.62</ele>
        <time>2020-08-12T09:21:29Z</time>
      </trkpt>
      <trkpt lat="48.19394" lon="-2.87172">
        <ele>149.62</ele>
        <time>2020-08-12T09:21:30Z</time>
      </trkpt>
      <trkpt lat="48.1939" lon="-2.87173">
        <ele>149.62</ele>
        <time>2020-08-12T09:21:31Z</time>
      </trkpt>
      <trkpt lat="48.19386" lon="-2.87173">
        <ele>149.62</ele>
        <time>2020-08-12T09:21:32Z</time>
      </trkpt>
      <trkpt lat="48.19382" lon="-2.87172">
        <ele>149.62</ele>
        <time>2020-08-12T09:21:33Z</time>
      </trkpt>
      <trkpt lat="48.19378" lon="-2.8717">
        <ele>149.62</ele>
        <time>2020-08-12T09:21:34Z</time>
      </trkpt>
      <trkpt lat="48.19329" lon="-2.87154">
        <ele>149.62</ele>
        <time>2020-08-12T09:21:47Z</time>
      </trkpt>
      <trkpt lat="48.19325" lon="-2.87151">
        <ele>149.62</ele>
        <time>2020-08-12T09:21:48Z</time>
      </trkpt>
      <trkpt lat="48.19322" lon="-2.87147">
        <ele>149.62</ele>
        <time>2020-08-12T09:21:49Z</time>
      </trkpt>
      <trkpt lat="48.1932" lon="-2.87143">
        <ele>149.62</ele>
        <time>2020-08-12T09:21:50Z</time>
      </trkpt>
      <trkpt lat="48.19318" lon="-2.87138">
        <ele>149.62</ele>
        <time>2020-08-12T09:21:51Z</time>
      </trkpt>
      <trkpt lat="48.19282" lon="-2.871">
        <ele>149.62</ele>
        <time>2020-08-12T09:22:03Z</time>
      </trkpt>
      <trkpt lat="48.19245" lon="-2.87046">
        <ele>149.62</ele>
        <time>2020-08-12T09:22:15Z</time>
      </trkpt>
      <trkpt lat="48.19241" lon="-2.87028">
        <ele>149.62</ele>
        <time>2020-08-12T09:22:18Z</time>
      </trkpt>
      <trkpt lat="48.1922" lon="-2.86959">
        <ele>149.62</ele>
        <time>2020-08-12T09:22:31Z</time>
      </trkpt>
      <trkpt lat="48.19205" lon="-2.86891">
        <ele>149.62</ele>
        <time>2020-08-12T09:22:44Z</time>
      </trkpt>
      <trkpt lat="48.19196" lon="-2.86842">
        <ele>149.62</ele>
        <time>2020-08-12T09:22:54Z</time>
      </trkpt>
      <trkpt lat="48.19161" lon="-2.86844">
        <ele>149.62</ele>
        <time>2020-08-12T09:23:04Z</time>
      </trkpt>
      <trkpt lat="48.1914" lon="-2.86851">
        <ele>149.62</ele>
        <time>2020-08-12T09:23:09Z</time>
      </trkpt>
      <trkpt lat="48.19135" lon="-2.86852">
        <ele>149.62</ele>
        <time>2020-08-12T09:23:10Z</time>
      </trkpt>
      <trkpt lat="48.19131" lon="-2.86852">
        <ele>149.62</ele>
        <time>2020-08-12T09:23:11Z</time>
      </trkpt>
      <trkpt lat="48.19127" lon="-2.86851">
        <ele>149.62</ele>
        <time>2020-08-12T09:23:12Z</time>
      </trkpt>
      <trkpt lat="48.19123" lon="-2.8685">
        <ele>149.62</ele>
        <time>2020-08-12T09:23:13Z</time>
      </trkpt>
      <trkpt lat="48.19068" lon="-2.86856">
        <ele>149.62</ele>
        <time>2020-08-12T09:23:26Z</time>
      </trkpt>
      <trkpt lat="48.19041" lon="-2.86888">
        <ele>149.62</ele>
        <time>2020-08-12T09:23:36Z</time>
      </trkpt>
      <trkpt lat="48.19015" lon="-2.86886">
        <ele>149.62</ele>
        <time>2020-08-12T09:23:44Z</time>
      </trkpt>
      <trkpt lat="48.19004" lon="-2.86841">
        <ele>149.62</ele>
        <time>2020-08-12T09:23:56Z</time>
      </trkpt>
      <trkpt lat="48.18997" lon="-2.86795">
        <ele>151.06</ele>
        <time>2020-08-12T09:24:06Z</time>
      </trkpt>
      <trkpt lat="48.18984" lon="-2.86748">
        <ele>151.54</ele>
        <time>2020-08-12T09:24:18Z</time>
      </trkpt>
      <trkpt lat="48.18976" lon="-2.86738">
        <ele>152.03</ele>
        <time>2020-08-12T09:24:43Z</time>
      </trkpt>
      <trkpt lat="48.18976" lon="-2.86737">
        <ele>152.03</ele>
        <time>2020-08-12T09:25:09Z</time>
      </trkpt>
      <trkpt lat="48.18974" lon="-2.86736">
        <ele>152.03</ele>
        <time>2020-08-12T09:25:21Z</time>
      </trkpt>
      <trkpt lat="48.18972" lon="-2.86736">
        <ele>152.03</ele>
        <time>2020-08-12T09:25:47Z</time>
      </trkpt>
      <trkpt lat="48.18974" lon="-2.86745">
        <ele>152.03</ele>
        <time>2020-08-12T09:26:05Z</time>
      </trkpt>
      <trkpt lat="48.18973" lon="-2.86778">
        <ele>152.03</ele>
        <time>2020-08-12T09:26:21Z</time>
      </trkpt>
      <trkpt lat="48.18977" lon="-2.86825">
        <ele>152.51</ele>
        <time>2020-08-12T09:26:36Z</time>
      </trkpt>
      <trkpt lat="48.1899" lon="-2.86891">
        <ele>153.95</ele>
        <time>2020-08-12T09:26:50Z</time>
      </trkpt>
      <trkpt lat="48.19014" lon="-2.86951">
        <ele>155.39</ele>
        <time>2020-08-12T09:27:06Z</time>
      </trkpt>
      <trkpt lat="48.19023" lon="-2.86968">
        <ele>155.39</ele>
        <time>2020-08-12T09:27:24Z</time>
      </trkpt>
      <trkpt lat="48.19025" lon="-2.86971">
        <ele>155.39</ele>
        <time>2020-08-12T09:27:46Z</time>
      </trkpt>
      <trkpt lat="48.19025" lon="-2.86972">
        <ele>155.39</ele>
        <time>2020-08-12T09:28:21Z</time>
      </trkpt>
      <trkpt lat="48.19032" lon="-2.86988">
        <ele>155.87</ele>
        <time>2020-08-12T09:28:44Z</time>
      </trkpt>
      <trkpt lat="48.19063" lon="-2.87024">
        <ele>156.35</ele>
        <time>2020-08-12T09:28:58Z</time>
      </trkpt>
      <trkpt lat="48.19098" lon="-2.87054">
        <ele>157.79</ele>
        <time>2020-08-12T09:29:11Z</time>
      </trkpt>
      <trkpt lat="48.19132" lon="-2.87084">
        <ele>158.27</ele>
        <time>2020-08-12T09:29:23Z</time>
      </trkpt>
      <trkpt lat="48.19175" lon="-2.87142">
        <ele>159.72</ele>
        <time>2020-08-12T09:29:38Z</time>
      </trkpt>
      <trkpt lat="48.19208" lon="-2.87218">
        <ele>160.68</ele>
        <time>2020-08-12T09:29:53Z</time>
      </trkpt>
      <trkpt lat="48.19223" lon="-2.87281">
        <ele>161.16</ele>
        <time>2020-08-12T09:30:06Z</time>
      </trkpt>
      <trkpt lat="48.19245" lon="-2.87377">
        <ele>162.6</ele>
        <time>2020-08-12T09:30:25Z</time>
      </trkpt>
      <trkpt lat="48.19271" lon="-2.87453">
        <ele>163.56</ele>
        <time>2020-08-12T09:30:42Z</time>
      </trkpt>
      <trkpt lat="48.19297" lon="-2.87493">
        <ele>165</ele>
        <time>2020-08-12T09:30:55Z</time>
      </trkpt>
      <trkpt lat="48.19335" lon="-2.87527">
        <ele>165.48</ele>
        <time>2020-08-12T09:31:09Z</time>
      </trkpt>
      <trkpt lat="48.19367" lon="-2.87543">
        <ele>165.96</ele>
        <time>2020-08-12T09:31:20Z</time>
      </trkpt>
      <trkpt lat="48.1941" lon="-2.87553">
        <ele>166.93</ele>
        <time>2020-08-12T09:31:34Z</time>
      </trkpt>
      <trkpt lat="48.19418" lon="-2.87556">
        <ele>167.41</ele>
        <time>2020-08-12T09:32:02Z</time>
      </trkpt>
      <trkpt lat="48.19422" lon="-2.87554">
        <ele>167.41</ele>
        <time>2020-08-12T09:32:08Z</time>
      </trkpt>
      <trkpt lat="48.19425" lon="-2.87554">
        <ele>167.41</ele>
        <time>2020-08-12T09:32:10Z</time>
      </trkpt>
      <trkpt lat="48.19426" lon="-2.87554">
        <ele>167.41</ele>
        <time>2020-08-12T09:32:11Z</time>
      </trkpt>
      <trkpt lat="48.19458" lon="-2.87546">
        <ele>167.89</ele>
        <time>2020-08-12T09:32:23Z</time>
      </trkpt>
      <trkpt lat="48.19499" lon="-2.87527">
        <ele>169.33</ele>
        <time>2020-08-12T09:32:38Z</time>
      </trkpt>
      <trkpt lat="48.1954" lon="-2.87511">
        <ele>169.33</ele>
        <time>2020-08-12T09:32:52Z</time>
      </trkpt>
      <trkpt lat="48.19601" lon="-2.87488">
        <ele>171.25</ele>
        <time>2020-08-12T09:33:11Z</time>
      </trkpt>
      <trkpt lat="48.19634" lon="-2.87487">
        <ele>171.73</ele>
        <time>2020-08-12T09:33:23Z</time>
      </trkpt>
      <trkpt lat="48.19687" lon="-2.87501">
        <ele>172.69</ele>
        <time>2020-08-12T09:33:40Z</time>
      </trkpt>
      <trkpt lat="48.19733" lon="-2.87531">
        <ele>173.66</ele>
        <time>2020-08-12T09:33:56Z</time>
      </trkpt>
      <trkpt lat="48.19774" lon="-2.87577">
        <ele>175.1</ele>
        <time>2020-08-12T09:34:12Z</time>
      </trkpt>
      <trkpt lat="48.19821" lon="-2.87654">
        <ele>176.54</ele>
        <time>2020-08-12T09:34:29Z</time>
      </trkpt>
      <trkpt lat="48.19843" lon="-2.87735">
        <ele>177.02</ele>
        <time>2020-08-12T09:34:47Z</time>
      </trkpt>
      <trkpt lat="48.19849" lon="-2.87785">
        <ele>177.98</ele>
        <time>2020-08-12T09:35:00Z</time>
      </trkpt>
      <trkpt lat="48.19848" lon="-2.87853">
        <ele>178.46</ele>
        <time>2020-08-12T09:35:15Z</time>
      </trkpt>
      <trkpt lat="48.19835" lon="-2.8795">
        <ele>180.38</ele>
        <time>2020-08-12T09:35:32Z</time>
      </trkpt>
      <trkpt lat="48.1981" lon="-2.88038">
        <ele>180.38</ele>
        <time>2020-08-12T09:35:49Z</time>
      </trkpt>
      <trkpt lat="48.19791" lon="-2.88115">
        <ele>180.87</ele>
        <time>2020-08-12T09:36:05Z</time>
      </trkpt>
      <trkpt lat="48.19781" lon="-2.8819">
        <ele>181.83</ele>
        <time>2020-08-12T09:36:20Z</time>
      </trkpt>
      <trkpt lat="48.19783" lon="-2.88263">
        <ele>182.79</ele>
        <time>2020-08-12T09:36:34Z</time>
      </trkpt>
      <trkpt lat="48.19798" lon="-2.88366">
        <ele>183.75</ele>
        <time>2020-08-12T09:36:52Z</time>
      </trkpt>
      <trkpt lat="48.19829" lon="-2.88461">
        <ele>184.71</ele>
        <time>2020-08-12T09:37:11Z</time>
      </trkpt>
      <trkpt lat="48.19856" lon="-2.88534">
        <ele>185.67</ele>
        <time>2020-08-12T09:37:28Z</time>
      </trkpt>
      <trkpt lat="48.19883" lon="-2.88603">
        <ele>186.63</ele>
        <time>2020-08-12T09:37:43Z</time>
      </trkpt>
      <trkpt lat="48.19924" lon="-2.88692">
        <ele>187.59</ele>
        <time>2020-08-12T09:38:01Z</time>
      </trkpt>
      <trkpt lat="48.1996" lon="-2.88762">
        <ele>189.04</ele>
        <time>2020-08-12T09:38:18Z</time>
      </trkpt>
      <trkpt lat="48.19988" lon="-2.88811">
        <ele>189.52</ele>
        <time>2020-08-12T09:38:31Z</time>
      </trkpt>
      <trkpt lat="48.20015" lon="-2.88859">
        <ele>190.48</ele>
        <time>2020-08-12T09:38:43Z</time>
      </trkpt>
      <trkpt lat="48.2005" lon="-2.88922">
        <ele>191.92</ele>
        <time>2020-08-12T09:38:58Z</time>
      </trkpt>
      <trkpt lat="48.2008" lon="-2.88979">
        <ele>192.4</ele>
        <time>2020-08-12T09:39:12Z</time>
      </trkpt>
      <trkpt lat="48.20114" lon="-2.8904">
        <ele>193.84</ele>
        <time>2020-08-12T09:39:29Z</time>
      </trkpt>
      <trkpt lat="48.20141" lon="-2.89086">
        <ele>195.28</ele>
        <time>2020-08-12T09:39:42Z</time>
      </trkpt>
      <trkpt lat="48.20143" lon="-2.89089">
        <ele>195.28</ele>
        <time>2020-08-12T09:39:43Z</time>
      </trkpt>
      <trkpt lat="48.20144" lon="-2.89092">
        <ele>195.28</ele>
        <time>2020-08-12T09:39:44Z</time>
      </trkpt>
      <trkpt lat="48.20145" lon="-2.89094">
        <ele>195.28</ele>
        <time>2020-08-12T09:39:45Z</time>
      </trkpt>
      <trkpt lat="48.20146" lon="-2.89104">
        <ele>195.77</ele>
        <time>2020-08-12T09:40:00Z</time>
      </trkpt>
      <trkpt lat="48.20148" lon="-2.89106">
        <ele>195.77</ele>
        <time>2020-08-12T09:40:29Z</time>
      </trkpt>
      <trkpt lat="48.20147" lon="-2.89105">
        <ele>195.77</ele>
        <time>2020-08-12T09:40:56Z</time>
      </trkpt>
      <trkpt lat="48.20147" lon="-2.89106">
        <ele>195.28</ele>
        <time>2020-08-12T09:41:20Z</time>
      </trkpt>
      <trkpt lat="48.20148" lon="-2.89107">
        <ele>195.28</ele>
        <time>2020-08-12T09:41:45Z</time>
      </trkpt>
      <trkpt lat="48.20149" lon="-2.89108">
        <ele>195.28</ele>
        <time>2020-08-12T09:42:05Z</time>
      </trkpt>
      <trkpt lat="48.20149" lon="-2.89108">
        <ele>195.28</ele>
        <time>2020-08-12T09:42:28Z</time>
      </trkpt>
      <trkpt lat="48.20148" lon="-2.89104">
        <ele>195.28</ele>
        <time>2020-08-12T09:42:55Z</time>
      </trkpt>
      <trkpt lat="48.20149" lon="-2.89104">
        <ele>195.28</ele>
        <time>2020-08-12T09:43:25Z</time>
      </trkpt>
      <trkpt lat="48.20152" lon="-2.89107">
        <ele>195.28</ele>
        <time>2020-08-12T09:43:46Z</time>
      </trkpt>
      <trkpt lat="48.20153" lon="-2.89108">
        <ele>195.28</ele>
        <time>2020-08-12T09:44:07Z</time>
      </trkpt>
      <trkpt lat="48.20154" lon="-2.89109">
        <ele>195.28</ele>
        <time>2020-08-12T09:44:08Z</time>
      </trkpt>
      <trkpt lat="48.20158" lon="-2.89116">
        <ele>195.28</ele>
        <time>2020-08-12T09:44:12Z</time>
      </trkpt>
      <trkpt lat="48.20159" lon="-2.89119">
        <ele>195.28</ele>
        <time>2020-08-12T09:44:13Z</time>
      </trkpt>
      <trkpt lat="48.2016" lon="-2.89121">
        <ele>195.28</ele>
        <time>2020-08-12T09:44:14Z</time>
      </trkpt>
      <trkpt lat="48.20162" lon="-2.89124">
        <ele>195.28</ele>
        <time>2020-08-12T09:44:15Z</time>
      </trkpt>
      <trkpt lat="48.20163" lon="-2.89127">
        <ele>195.28</ele>
        <time>2020-08-12T09:44:16Z</time>
      </trkpt>
      <trkpt lat="48.20193" lon="-2.89185">
        <ele>195.77</ele>
        <time>2020-08-12T09:44:33Z</time>
      </trkpt>
      <trkpt lat="48.20222" lon="-2.8924">
        <ele>196.73</ele>
        <time>2020-08-12T09:44:47Z</time>
      </trkpt>
      <trkpt lat="48.20265" lon="-2.89318">
        <ele>197.69</ele>
        <time>2020-08-12T09:45:06Z</time>
      </trkpt>
      <trkpt lat="48.20299" lon="-2.8938">
        <ele>198.65</ele>
        <time>2020-08-12T09:45:21Z</time>
      </trkpt>
      <trkpt lat="48.20339" lon="-2.89452">
        <ele>200.09</ele>
        <time>2020-08-12T09:45:39Z</time>
      </trkpt>
      <trkpt lat="48.20371" lon="-2.89518">
        <ele>200.57</ele>
        <time>2020-08-12T09:45:53Z</time>
      </trkpt>
      <trkpt lat="48.20389" lon="-2.89564">
        <ele>200.57</ele>
        <time>2020-08-12T09:46:01Z</time>
      </trkpt>
      <trkpt lat="48.20398" lon="-2.89592">
        <ele>199.61</ele>
        <time>2020-08-12T09:46:05Z</time>
      </trkpt>
      <trkpt lat="48.20399" lon="-2.89598">
        <ele>199.61</ele>
        <time>2020-08-12T09:46:06Z</time>
      </trkpt>
      <trkpt lat="48.20428" lon="-2.89695">
        <ele>197.69</ele>
        <time>2020-08-12T09:46:20Z</time>
      </trkpt>
      <trkpt lat="48.20452" lon="-2.89779">
        <ele>197.21</ele>
        <time>2020-08-12T09:46:32Z</time>
      </trkpt>
      <trkpt lat="48.20455" lon="-2.89786">
        <ele>197.21</ele>
        <time>2020-08-12T09:46:33Z</time>
      </trkpt>
      <trkpt lat="48.20458" lon="-2.89792">
        <ele>197.21</ele>
        <time>2020-08-12T09:46:34Z</time>
      </trkpt>
      <trkpt lat="48.20484" lon="-2.89854">
        <ele>196.25</ele>
        <time>2020-08-12T09:46:45Z</time>
      </trkpt>
      <trkpt lat="48.20511" lon="-2.8994">
        <ele>194.32</ele>
        <time>2020-08-12T09:46:58Z</time>
      </trkpt>
      <trkpt lat="48.20514" lon="-2.89946">
        <ele>193.84</ele>
        <time>2020-08-12T09:46:59Z</time>
      </trkpt>
      <trkpt lat="48.20516" lon="-2.89951">
        <ele>193.84</ele>
        <time>2020-08-12T09:47:00Z</time>
      </trkpt>
      <trkpt lat="48.20519" lon="-2.89955">
        <ele>193.84</ele>
        <time>2020-08-12T09:47:01Z</time>
      </trkpt>
      <trkpt lat="48.20564" lon="-2.90012">
        <ele>192.88</ele>
        <time>2020-08-12T09:47:14Z</time>
      </trkpt>
      <trkpt lat="48.20606" lon="-2.9006">
        <ele>191.92</ele>
        <time>2020-08-12T09:47:26Z</time>
      </trkpt>
      <trkpt lat="48.20649" lon="-2.90113">
        <ele>190.96</ele>
        <time>2020-08-12T09:47:39Z</time>
      </trkpt>
      <trkpt lat="48.20694" lon="-2.90181">
        <ele>189.52</ele>
        <time>2020-08-12T09:47:51Z</time>
      </trkpt>
      <trkpt lat="48.20735" lon="-2.90273">
        <ele>188.08</ele>
        <time>2020-08-12T09:48:07Z</time>
      </trkpt>
      <trkpt lat="48.20772" lon="-2.90355">
        <ele>186.63</ele>
        <time>2020-08-12T09:48:22Z</time>
      </trkpt>
      <trkpt lat="48.20775" lon="-2.90362">
        <ele>186.63</ele>
        <time>2020-08-12T09:48:23Z</time>
      </trkpt>
      <trkpt lat="48.20813" lon="-2.90446">
        <ele>184.71</ele>
        <time>2020-08-12T09:48:39Z</time>
      </trkpt>
      <trkpt lat="48.2086" lon="-2.90534">
        <ele>183.75</ele>
        <time>2020-08-12T09:48:54Z</time>
      </trkpt>
      <trkpt lat="48.20911" lon="-2.90591">
        <ele>182.79</ele>
        <time>2020-08-12T09:49:04Z</time>
      </trkpt>
      <trkpt lat="48.20976" lon="-2.90627">
        <ele>181.35</ele>
        <time>2020-08-12T09:49:16Z</time>
      </trkpt>
      <trkpt lat="48.21026" lon="-2.90636">
        <ele>180.38</ele>
        <time>2020-08-12T09:49:24Z</time>
      </trkpt>
      <trkpt lat="48.21055" lon="-2.90631">
        <ele>179.42</ele>
        <time>2020-08-12T09:49:31Z</time>
      </trkpt>
      <trkpt lat="48.21059" lon="-2.9063">
        <ele>179.42</ele>
        <time>2020-08-12T09:49:32Z</time>
      </trkpt>
      <trkpt lat="48.21128" lon="-2.90598">
        <ele>177.98</ele>
        <time>2020-08-12T09:49:48Z</time>
      </trkpt>
      <trkpt lat="48.212" lon="-2.90559">
        <ele>176.06</ele>
        <time>2020-08-12T09:50:05Z</time>
      </trkpt>
      <trkpt lat="48.21261" lon="-2.90554">
        <ele>175.58</ele>
        <time>2020-08-12T09:50:17Z</time>
      </trkpt>
      <trkpt lat="48.21315" lon="-2.90566">
        <ele>173.66</ele>
        <time>2020-08-12T09:50:27Z</time>
      </trkpt>
      <trkpt lat="48.21369" lon="-2.90606">
        <ele>173.17</ele>
        <time>2020-08-12T09:50:40Z</time>
      </trkpt>
      <trkpt lat="48.21394" lon="-2.90632">
        <ele>172.69</ele>
        <time>2020-08-12T09:50:46Z</time>
      </trkpt>
      <trkpt lat="48.21433" lon="-2.90695">
        <ele>172.21</ele>
        <time>2020-08-12T09:50:58Z</time>
      </trkpt>
      <trkpt lat="48.21441" lon="-2.9071">
        <ele>172.21</ele>
        <time>2020-08-12T09:51:00Z</time>
      </trkpt>
      <trkpt lat="48.21474" lon="-2.90817">
        <ele>172.21</ele>
        <time>2020-08-12T09:51:16Z</time>
      </trkpt>
      <trkpt lat="48.21475" lon="-2.90823">
        <ele>172.21</ele>
        <time>2020-08-12T09:51:17Z</time>
      </trkpt>
      <trkpt lat="48.21485" lon="-2.90916">
        <ele>173.66</ele>
        <time>2020-08-12T09:51:31Z</time>
      </trkpt>
      <trkpt lat="48.21491" lon="-2.90979">
        <ele>174.14</ele>
        <time>2020-08-12T09:51:43Z</time>
      </trkpt>
      <trkpt lat="48.21495" lon="-2.91022">
        <ele>175.1</ele>
        <time>2020-08-12T09:51:55Z</time>
      </trkpt>
      <trkpt lat="48.21502" lon="-2.91105">
        <ele>175.1</ele>
        <time>2020-08-12T09:52:09Z</time>
      </trkpt>
      <trkpt lat="48.2151" lon="-2.91205">
        <ele>175.58</ele>
        <time>2020-08-12T09:52:25Z</time>
      </trkpt>
      <trkpt lat="48.21519" lon="-2.913">
        <ele>176.54</ele>
        <time>2020-08-12T09:52:40Z</time>
      </trkpt>
      <trkpt lat="48.21528" lon="-2.914">
        <ele>177.5</ele>
        <time>2020-08-12T09:52:54Z</time>
      </trkpt>
      <trkpt lat="48.21544" lon="-2.91514">
        <ele>177.98</ele>
        <time>2020-08-12T09:53:11Z</time>
      </trkpt>
      <trkpt lat="48.21573" lon="-2.91599">
        <ele>177.98</ele>
        <time>2020-08-12T09:53:28Z</time>
      </trkpt>
      <trkpt lat="48.21596" lon="-2.91658">
        <ele>177.98</ele>
        <time>2020-08-12T09:53:41Z</time>
      </trkpt>
      <trkpt lat="48.21618" lon="-2.91712">
        <ele>177.02</ele>
        <time>2020-08-12T09:53:51Z</time>
      </trkpt>
      <trkpt lat="48.21652" lon="-2.91784">
        <ele>176.06</ele>
        <time>2020-08-12T09:54:04Z</time>
      </trkpt>
      <trkpt lat="48.21679" lon="-2.91852">
        <ele>175.58</ele>
        <time>2020-08-12T09:54:18Z</time>
      </trkpt>
      <trkpt lat="48.21695" lon="-2.91959">
        <ele>173.66</ele>
        <time>2020-08-12T09:54:31Z</time>
      </trkpt>
      <trkpt lat="48.21685" lon="-2.92066">
        <ele>172.21</ele>
        <time>2020-08-12T09:54:46Z</time>
      </trkpt>
      <trkpt lat="48.2166" lon="-2.92138">
        <ele>171.25</ele>
        <time>2020-08-12T09:54:59Z</time>
      </trkpt>
      <trkpt lat="48.21596" lon="-2.9224">
        <ele>169.33</ele>
        <time>2020-08-12T09:55:13Z</time>
      </trkpt>
      <trkpt lat="48.21502" lon="-2.92373">
        <ele>167.41</ele>
        <time>2020-08-12T09:55:31Z</time>
      </trkpt>
      <trkpt lat="48.21491" lon="-2.92394">
        <ele>166.93</ele>
        <time>2020-08-12T09:55:34Z</time>
      </trkpt>
      <trkpt lat="48.21448" lon="-2.92506">
        <ele>164.52</ele>
        <time>2020-08-12T09:55:49Z</time>
      </trkpt>
      <trkpt lat="48.21422" lon="-2.92628">
        <ele>162.6</ele>
        <time>2020-08-12T09:56:05Z</time>
      </trkpt>
      <trkpt lat="48.21414" lon="-2.92754">
        <ele>160.68</ele>
        <time>2020-08-12T09:56:20Z</time>
      </trkpt>
      <trkpt lat="48.21405" lon="-2.92882">
        <ele>159.24</ele>
        <time>2020-08-12T09:56:35Z</time>
      </trkpt>
      <trkpt lat="48.21398" lon="-2.92917">
        <ele>158.27</ele>
        <time>2020-08-12T09:56:39Z</time>
      </trkpt>
      <trkpt lat="48.21354" lon="-2.93085">
        <ele>158.27</ele>
        <time>2020-08-12T09:57:00Z</time>
      </trkpt>
      <trkpt lat="48.21337" lon="-2.93154">
        <ele>157.31</ele>
        <time>2020-08-12T09:57:10Z</time>
      </trkpt>
      <trkpt lat="48.21334" lon="-2.93168">
        <ele>157.31</ele>
        <time>2020-08-12T09:57:12Z</time>
      </trkpt>
      <trkpt lat="48.21311" lon="-2.93268">
        <ele>157.31</ele>
        <time>2020-08-12T09:57:26Z</time>
      </trkpt>
      <trkpt lat="48.21308" lon="-2.93299">
        <ele>157.31</ele>
        <time>2020-08-12T09:57:30Z</time>
      </trkpt>
      <trkpt lat="48.21308" lon="-2.9337">
        <ele>157.31</ele>
        <time>2020-08-12T09:57:43Z</time>
      </trkpt>
      <trkpt lat="48.21308" lon="-2.93411">
        <ele>157.31</ele>
        <time>2020-08-12T09:57:55Z</time>
      </trkpt>
      <trkpt lat="48.21309" lon="-2.93413">
        <ele>157.31</ele>
        <time>2020-08-12T09:57:56Z</time>
      </trkpt>
      <trkpt lat="48.21308" lon="-2.93415">
        <ele>157.31</ele>
        <time>2020-08-12T09:58:10Z</time>
      </trkpt>
      <trkpt lat="48.21313" lon="-2.93441">
        <ele>157.31</ele>
        <time>2020-08-12T09:58:22Z</time>
      </trkpt>
      <trkpt lat="48.21328" lon="-2.93502">
        <ele>156.83</ele>
        <time>2020-08-12T09:58:36Z</time>
      </trkpt>
      <trkpt lat="48.21331" lon="-2.93513">
        <ele>156.83</ele>
        <time>2020-08-12T09:58:38Z</time>
      </trkpt>
      <trkpt lat="48.21333" lon="-2.93519">
        <ele>156.83</ele>
        <time>2020-08-12T09:58:39Z</time>
      </trkpt>
      <trkpt lat="48.21355" lon="-2.936">
        <ele>156.35</ele>
        <time>2020-08-12T09:58:54Z</time>
      </trkpt>
      <trkpt lat="48.2136" lon="-2.93616">
        <ele>156.35</ele>
        <time>2020-08-12T09:59:02Z</time>
      </trkpt>
      <trkpt lat="48.2136" lon="-2.93617">
        <ele>156.35</ele>
        <time>2020-08-12T09:59:28Z</time>
      </trkpt>
      <trkpt lat="48.21367" lon="-2.93639">
        <ele>156.35</ele>
        <time>2020-08-12T09:59:42Z</time>
      </trkpt>
      <trkpt lat="48.21386" lon="-2.93707">
        <ele>156.35</ele>
        <time>2020-08-12T09:59:59Z</time>
      </trkpt>
      <trkpt lat="48.21391" lon="-2.93724">
        <ele>155.87</ele>
        <time>2020-08-12T10:00:03Z</time>
      </trkpt>
      <trkpt lat="48.21393" lon="-2.93726">
        <ele>155.87</ele>
        <time>2020-08-12T10:00:04Z</time>
      </trkpt>
      <trkpt lat="48.21395" lon="-2.93728">
        <ele>155.87</ele>
        <time>2020-08-12T10:00:05Z</time>
      </trkpt>
      <trkpt lat="48.21396" lon="-2.93729">
        <ele>155.87</ele>
        <time>2020-08-12T10:00:06Z</time>
      </trkpt>
      <trkpt lat="48.21398" lon="-2.93735">
        <ele>155.87</ele>
        <time>2020-08-12T10:00:10Z</time>
      </trkpt>
      <trkpt lat="48.21398" lon="-2.93737">
        <ele>155.87</ele>
        <time>2020-08-12T10:00:11Z</time>
      </trkpt>
      <trkpt lat="48.21398" lon="-2.93739">
        <ele>155.87</ele>
        <time>2020-08-12T10:00:26Z</time>
      </trkpt>
      <trkpt lat="48.21396" lon="-2.93738">
        <ele>155.87</ele>
        <time>2020-08-12T10:00:46Z</time>
      </trkpt>
      <trkpt lat="48.214" lon="-2.93741">
        <ele>155.87</ele>
        <time>2020-08-12T10:01:09Z</time>
      </trkpt>
      <trkpt lat="48.214" lon="-2.9374">
        <ele>155.87</ele>
        <time>2020-08-12T10:01:35Z</time>
      </trkpt>
      <trkpt lat="48.21401" lon="-2.93738">
        <ele>155.39</ele>
        <time>2020-08-12T10:01:52Z</time>
      </trkpt>
      <trkpt lat="48.21401" lon="-2.93737">
        <ele>155.39</ele>
        <time>2020-08-12T10:02:16Z</time>
      </trkpt>
      <trkpt lat="48.21399" lon="-2.93739">
        <ele>155.39</ele>
        <time>2020-08-12T10:02:39Z</time>
      </trkpt>
      <trkpt lat="48.21398" lon="-2.93738">
        <ele>155.39</ele>
        <time>2020-08-12T10:03:06Z</time>
      </trkpt>
      <trkpt lat="48.21398" lon="-2.93738">
        <ele>154.91</ele>
        <time>2020-08-12T10:03:31Z</time>
      </trkpt>
      <trkpt lat="48.21399" lon="-2.93735">
        <ele>154.91</ele>
        <time>2020-08-12T10:03:57Z</time>
      </trkpt>
      <trkpt lat="48.214" lon="-2.93741">
        <ele>154.91</ele>
        <time>2020-08-12T10:04:27Z</time>
      </trkpt>
      <trkpt lat="48.21404" lon="-2.93741">
        <ele>154.91</ele>
        <time>2020-08-12T10:04:57Z</time>
      </trkpt>
      <trkpt lat="48.21402" lon="-2.93745">
        <ele>154.91</ele>
        <time>2020-08-12T10:05:33Z</time>
      </trkpt>
      <trkpt lat="48.214" lon="-2.9374">
        <ele>154.91</ele>
        <time>2020-08-12T10:06:06Z</time>
      </trkpt>
      <trkpt lat="48.21403" lon="-2.93738">
        <ele>154.91</ele>
        <time>2020-08-12T10:06:30Z</time>
      </trkpt>
      <trkpt lat="48.21403" lon="-2.9374">
        <ele>154.91</ele>
        <time>2020-08-12T10:06:59Z</time>
      </trkpt>
      <trkpt lat="48.21402" lon="-2.9374">
        <ele>154.91</ele>
        <time>2020-08-12T10:07:25Z</time>
      </trkpt>
      <trkpt lat="48.21401" lon="-2.93736">
        <ele>154.43</ele>
        <time>2020-08-12T10:07:51Z</time>
      </trkpt>
      <trkpt lat="48.21403" lon="-2.9374">
        <ele>154.43</ele>
        <time>2020-08-12T10:08:26Z</time>
      </trkpt>
      <trkpt lat="48.21401" lon="-2.93737">
        <ele>154.43</ele>
        <time>2020-08-12T10:08:52Z</time>
      </trkpt>
      <trkpt lat="48.21403" lon="-2.93735">
        <ele>154.43</ele>
        <time>2020-08-12T10:09:18Z</time>
      </trkpt>
      <trkpt lat="48.21402" lon="-2.93735">
        <ele>154.43</ele>
        <time>2020-08-12T10:09:48Z</time>
      </trkpt>
      <trkpt lat="48.21399" lon="-2.93734">
        <ele>154.43</ele>
        <time>2020-08-12T10:10:06Z</time>
      </trkpt>
      <trkpt lat="48.21402" lon="-2.93738">
        <ele>154.43</ele>
        <time>2020-08-12T10:10:33Z</time>
      </trkpt>
      <trkpt lat="48.21401" lon="-2.9374">
        <ele>154.43</ele>
        <time>2020-08-12T10:10:56Z</time>
      </trkpt>
      <trkpt lat="48.21398" lon="-2.93742">
        <ele>154.43</ele>
        <time>2020-08-12T10:11:24Z</time>
      </trkpt>
      <trkpt lat="48.21399" lon="-2.93742">
        <ele>154.43</ele>
        <time>2020-08-12T10:11:49Z</time>
      </trkpt>
      <trkpt lat="48.21398" lon="-2.93737">
        <ele>154.43</ele>
        <time>2020-08-12T10:12:18Z</time>
      </trkpt>
      <trkpt lat="48.21399" lon="-2.93729">
        <ele>154.43</ele>
        <time>2020-08-12T10:12:51Z</time>
      </trkpt>
      <trkpt lat="48.21398" lon="-2.93736">
        <ele>154.43</ele>
        <time>2020-08-12T10:13:18Z</time>
      </trkpt>
      <trkpt lat="48.21398" lon="-2.93737">
        <ele>154.43</ele>
        <time>2020-08-12T10:13:46Z</time>
      </trkpt>
      <trkpt lat="48.21398" lon="-2.93739">
        <ele>153.95</ele>
        <time>2020-08-12T10:14:12Z</time>
      </trkpt>
      <trkpt lat="48.214" lon="-2.93738">
        <ele>153.95</ele>
        <time>2020-08-12T10:14:39Z</time>
      </trkpt>
      <trkpt lat="48.21402" lon="-2.93739">
        <ele>153.95</ele>
        <time>2020-08-12T10:15:09Z</time>
      </trkpt>
      <trkpt lat="48.21404" lon="-2.9374">
        <ele>153.95</ele>
        <time>2020-08-12T10:15:29Z</time>
      </trkpt>
      <trkpt lat="48.21403" lon="-2.93741">
        <ele>153.95</ele>
        <time>2020-08-12T10:15:50Z</time>
      </trkpt>
      <trkpt lat="48.21403" lon="-2.9374">
        <ele>153.95</ele>
        <time>2020-08-12T10:16:13Z</time>
      </trkpt>
      <trkpt lat="48.21401" lon="-2.93737">
        <ele>153.95</ele>
        <time>2020-08-12T10:16:40Z</time>
      </trkpt>
      <trkpt lat="48.214" lon="-2.93739">
        <ele>153.95</ele>
        <time>2020-08-12T10:17:09Z</time>
      </trkpt>
      <trkpt lat="48.21402" lon="-2.93738">
        <ele>153.95</ele>
        <time>2020-08-12T10:17:30Z</time>
      </trkpt>
      <trkpt lat="48.21401" lon="-2.93744">
        <ele>153.95</ele>
        <time>2020-08-12T10:17:46Z</time>
      </trkpt>
      <trkpt lat="48.21399" lon="-2.93738">
        <ele>153.95</ele>
        <time>2020-08-12T10:18:12Z</time>
      </trkpt>
      <trkpt lat="48.21402" lon="-2.93737">
        <ele>153.95</ele>
        <time>2020-08-12T10:18:31Z</time>
      </trkpt>
      <trkpt lat="48.21403" lon="-2.93739">
        <ele>153.95</ele>
        <time>2020-08-12T10:19:00Z</time>
      </trkpt>
      <trkpt lat="48.21403" lon="-2.9374">
        <ele>153.95</ele>
        <time>2020-08-12T10:19:32Z</time>
      </trkpt>
      <trkpt lat="48.21401" lon="-2.93745">
        <ele>154.91</ele>
        <time>2020-08-12T10:19:58Z</time>
      </trkpt>
      <trkpt lat="48.21401" lon="-2.93743">
        <ele>154.91</ele>
        <time>2020-08-12T10:20:23Z</time>
      </trkpt>
      <trkpt lat="48.214" lon="-2.9374">
        <ele>154.91</ele>
        <time>2020-08-12T10:20:43Z</time>
      </trkpt>
      <trkpt lat="48.21404" lon="-2.93742">
        <ele>154.91</ele>
        <time>2020-08-12T10:21:11Z</time>
      </trkpt>
      <trkpt lat="48.21405" lon="-2.93743">
        <ele>154.91</ele>
        <time>2020-08-12T10:21:38Z</time>
      </trkpt>
      <trkpt lat="48.21406" lon="-2.93738">
        <ele>154.91</ele>
        <time>2020-08-12T10:22:01Z</time>
      </trkpt>
      <trkpt lat="48.21406" lon="-2.93739">
        <ele>154.91</ele>
        <time>2020-08-12T10:22:25Z</time>
      </trkpt>
      <trkpt lat="48.21403" lon="-2.93743">
        <ele>155.39</ele>
        <time>2020-08-12T10:22:54Z</time>
      </trkpt>
      <trkpt lat="48.21402" lon="-2.93747">
        <ele>155.39</ele>
        <time>2020-08-12T10:23:23Z</time>
      </trkpt>
      <trkpt lat="48.21405" lon="-2.93745">
        <ele>155.39</ele>
        <time>2020-08-12T10:23:46Z</time>
      </trkpt>
      <trkpt lat="48.21406" lon="-2.93736">
        <ele>155.39</ele>
        <time>2020-08-12T10:24:15Z</time>
      </trkpt>
      <trkpt lat="48.21407" lon="-2.93734">
        <ele>155.39</ele>
        <time>2020-08-12T10:24:43Z</time>
      </trkpt>
      <trkpt lat="48.21404" lon="-2.93736">
        <ele>155.39</ele>
        <time>2020-08-12T10:25:16Z</time>
      </trkpt>
      <trkpt lat="48.21401" lon="-2.93736">
        <ele>155.87</ele>
        <time>2020-08-12T10:25:43Z</time>
      </trkpt>
      <trkpt lat="48.21402" lon="-2.93735">
        <ele>155.87</ele>
        <time>2020-08-12T10:26:15Z</time>
      </trkpt>
      <trkpt lat="48.21403" lon="-2.93738">
        <ele>155.87</ele>
        <time>2020-08-12T10:26:41Z</time>
      </trkpt>
      <trkpt lat="48.21402" lon="-2.93738">
        <ele>155.87</ele>
        <time>2020-08-12T10:27:06Z</time>
      </trkpt>
      <trkpt lat="48.21404" lon="-2.93742">
        <ele>155.87</ele>
        <time>2020-08-12T10:27:25Z</time>
      </trkpt>
      <trkpt lat="48.21405" lon="-2.9374">
        <ele>155.87</ele>
        <time>2020-08-12T10:27:44Z</time>
      </trkpt>
      <trkpt lat="48.21402" lon="-2.9374">
        <ele>155.87</ele>
        <time>2020-08-12T10:28:07Z</time>
      </trkpt>
      <trkpt lat="48.214" lon="-2.93741">
        <ele>155.87</ele>
        <time>2020-08-12T10:28:28Z</time>
      </trkpt>
      <trkpt lat="48.21398" lon="-2.93739">
        <ele>155.87</ele>
        <time>2020-08-12T10:28:53Z</time>
      </trkpt>
      <trkpt lat="48.21397" lon="-2.93737">
        <ele>155.87</ele>
        <time>2020-08-12T10:29:18Z</time>
      </trkpt>
      <trkpt lat="48.21399" lon="-2.93735">
        <ele>156.35</ele>
        <time>2020-08-12T10:29:46Z</time>
      </trkpt>
      <trkpt lat="48.21399" lon="-2.93735">
        <ele>156.35</ele>
        <time>2020-08-12T10:30:13Z</time>
      </trkpt>
      <trkpt lat="48.21402" lon="-2.93738">
        <ele>156.35</ele>
        <time>2020-08-12T10:30:35Z</time>
      </trkpt>
      <trkpt lat="48.21401" lon="-2.93737">
        <ele>156.35</ele>
        <time>2020-08-12T10:30:50Z</time>
      </trkpt>
      <trkpt lat="48.21395" lon="-2.93732">
        <ele>156.35</ele>
        <time>2020-08-12T10:31:24Z</time>
      </trkpt>
      <trkpt lat="48.21398" lon="-2.93736">
        <ele>156.35</ele>
        <time>2020-08-12T10:31:49Z</time>
      </trkpt>
      <trkpt lat="48.21397" lon="-2.93736">
        <ele>156.83</ele>
        <time>2020-08-12T10:32:25Z</time>
      </trkpt>
      <trkpt lat="48.21398" lon="-2.93735">
        <ele>156.83</ele>
        <time>2020-08-12T10:32:46Z</time>
      </trkpt>
      <trkpt lat="48.214" lon="-2.93737">
        <ele>156.83</ele>
        <time>2020-08-12T10:33:10Z</time>
      </trkpt>
      <trkpt lat="48.21402" lon="-2.93738">
        <ele>156.83</ele>
        <time>2020-08-12T10:33:38Z</time>
      </trkpt>
      <trkpt lat="48.21399" lon="-2.93739">
        <ele>156.83</ele>
        <time>2020-08-12T10:34:10Z</time>
      </trkpt>
      <trkpt lat="48.21403" lon="-2.93741">
        <ele>156.83</ele>
        <time>2020-08-12T10:34:42Z</time>
      </trkpt>
      <trkpt lat="48.21404" lon="-2.93741">
        <ele>156.83</ele>
        <time>2020-08-12T10:35:14Z</time>
      </trkpt>
      <trkpt lat="48.21403" lon="-2.93744">
        <ele>156.83</ele>
        <time>2020-08-12T10:35:36Z</time>
      </trkpt>
      <trkpt lat="48.21404" lon="-2.93744">
        <ele>156.83</ele>
        <time>2020-08-12T10:36:04Z</time>
      </trkpt>
      <trkpt lat="48.21404" lon="-2.93738">
        <ele>156.83</ele>
        <time>2020-08-12T10:36:37Z</time>
      </trkpt>
      <trkpt lat="48.21403" lon="-2.9374">
        <ele>156.83</ele>
        <time>2020-08-12T10:37:11Z</time>
      </trkpt>
      <trkpt lat="48.21402" lon="-2.93741">
        <ele>156.83</ele>
        <time>2020-08-12T10:37:42Z</time>
      </trkpt>
      <trkpt lat="48.21401" lon="-2.93742">
        <ele>156.35</ele>
        <time>2020-08-12T10:38:11Z</time>
      </trkpt>
      <trkpt lat="48.21402" lon="-2.93739">
        <ele>157.79</ele>
        <time>2020-08-12T10:38:35Z</time>
      </trkpt>
      <trkpt lat="48.21402" lon="-2.93744">
        <ele>157.79</ele>
        <time>2020-08-12T10:39:07Z</time>
      </trkpt>
      <trkpt lat="48.21402" lon="-2.93741">
        <ele>157.79</ele>
        <time>2020-08-12T10:39:30Z</time>
      </trkpt>
      <trkpt lat="48.21399" lon="-2.93739">
        <ele>157.31</ele>
        <time>2020-08-12T10:39:57Z</time>
      </trkpt>
      <trkpt lat="48.21401" lon="-2.93737">
        <ele>157.31</ele>
        <time>2020-08-12T10:40:25Z</time>
      </trkpt>
      <trkpt lat="48.21401" lon="-2.93742">
        <ele>157.31</ele>
        <time>2020-08-12T10:40:57Z</time>
      </trkpt>
      <trkpt lat="48.21404" lon="-2.93744">
        <ele>157.79</ele>
        <time>2020-08-12T10:41:29Z</time>
      </trkpt>
      <trkpt lat="48.21403" lon="-2.93742">
        <ele>157.31</ele>
        <time>2020-08-12T10:41:58Z</time>
      </trkpt>
      <trkpt lat="48.21404" lon="-2.93742">
        <ele>157.31</ele>
        <time>2020-08-12T10:42:20Z</time>
      </trkpt>
      <trkpt lat="48.21406" lon="-2.93743">
        <ele>157.31</ele>
        <time>2020-08-12T10:42:55Z</time>
      </trkpt>
      <trkpt lat="48.21407" lon="-2.93745">
        <ele>157.31</ele>
        <time>2020-08-12T10:43:20Z</time>
      </trkpt>
      <trkpt lat="48.21404" lon="-2.93741">
        <ele>157.31</ele>
        <time>2020-08-12T10:43:47Z</time>
      </trkpt>
      <trkpt lat="48.21403" lon="-2.93741">
        <ele>157.79</ele>
        <time>2020-08-12T10:44:10Z</time>
      </trkpt>
      <trkpt lat="48.21399" lon="-2.93738">
        <ele>157.31</ele>
        <time>2020-08-12T10:44:44Z</time>
      </trkpt>
      <trkpt lat="48.21401" lon="-2.93737">
        <ele>157.31</ele>
        <time>2020-08-12T10:45:18Z</time>
      </trkpt>
      <trkpt lat="48.21403" lon="-2.93738">
        <ele>157.79</ele>
        <time>2020-08-12T10:45:48Z</time>
      </trkpt>
      <trkpt lat="48.21403" lon="-2.93739">
        <ele>157.79</ele>
        <time>2020-08-12T10:46:20Z</time>
      </trkpt>
      <trkpt lat="48.21399" lon="-2.93734">
        <ele>157.79</ele>
        <time>2020-08-12T10:46:58Z</time>
      </trkpt>
      <trkpt lat="48.214" lon="-2.93735">
        <ele>157.79</ele>
        <time>2020-08-12T10:47:31Z</time>
      </trkpt>
      <trkpt lat="48.21399" lon="-2.93733">
        <ele>157.79</ele>
        <time>2020-08-12T10:47:56Z</time>
      </trkpt>
      <trkpt lat="48.214" lon="-2.93736">
        <ele>157.79</ele>
        <time>2020-08-12T10:48:23Z</time>
      </trkpt>
      <trkpt lat="48.214" lon="-2.93737">
        <ele>157.79</ele>
        <time>2020-08-12T10:48:46Z</time>
      </trkpt>
      <trkpt lat="48.21401" lon="-2.93736">
        <ele>157.79</ele>
        <time>2020-08-12T10:49:16Z</time>
      </trkpt>
      <trkpt lat="48.21405" lon="-2.93736">
        <ele>157.79</ele>
        <time>2020-08-12T10:49:44Z</time>
      </trkpt>
      <trkpt lat="48.21401" lon="-2.93738">
        <ele>157.79</ele>
        <time>2020-08-12T10:50:23Z</time>
      </trkpt>
      <trkpt lat="48.214" lon="-2.93743">
        <ele>157.79</ele>
        <time>2020-08-12T10:50:48Z</time>
      </trkpt>
      <trkpt lat="48.21398" lon="-2.9374">
        <ele>157.79</ele>
        <time>2020-08-12T10:51:14Z</time>
      </trkpt>
      <trkpt lat="48.21398" lon="-2.9374">
        <ele>158.27</ele>
        <time>2020-08-12T10:51:51Z</time>
      </trkpt>
      <trkpt lat="48.21402" lon="-2.9374">
        <ele>157.79</ele>
        <time>2020-08-12T10:52:22Z</time>
      </trkpt>
      <trkpt lat="48.214" lon="-2.93736">
        <ele>157.79</ele>
        <time>2020-08-12T10:52:56Z</time>
      </trkpt>
      <trkpt lat="48.21399" lon="-2.93737">
        <ele>157.79</ele>
        <time>2020-08-12T10:53:34Z</time>
      </trkpt>
      <trkpt lat="48.21402" lon="-2.9374">
        <ele>157.79</ele>
        <time>2020-08-12T10:54:04Z</time>
      </trkpt>
      <trkpt lat="48.21401" lon="-2.93738">
        <ele>157.31</ele>
        <time>2020-08-12T10:54:32Z</time>
      </trkpt>
      <trkpt lat="48.21398" lon="-2.93738">
        <ele>157.31</ele>
        <time>2020-08-12T10:55:01Z</time>
      </trkpt>
      <trkpt lat="48.214" lon="-2.93738">
        <ele>157.31</ele>
        <time>2020-08-12T10:55:32Z</time>
      </trkpt>
      <trkpt lat="48.21401" lon="-2.93736">
        <ele>157.31</ele>
        <time>2020-08-12T10:55:58Z</time>
      </trkpt>
      <trkpt lat="48.21402" lon="-2.9374">
        <ele>157.31</ele>
        <time>2020-08-12T10:56:29Z</time>
      </trkpt>
      <trkpt lat="48.214" lon="-2.93739">
        <ele>157.31</ele>
        <time>2020-08-12T10:57:03Z</time>
      </trkpt>
      <trkpt lat="48.21401" lon="-2.93743">
        <ele>157.31</ele>
        <time>2020-08-12T10:57:33Z</time>
      </trkpt>
      <trkpt lat="48.21402" lon="-2.93734">
        <ele>157.79</ele>
        <time>2020-08-12T10:58:09Z</time>
      </trkpt>
      <trkpt lat="48.21402" lon="-2.93737">
        <ele>157.31</ele>
        <time>2020-08-12T10:58:42Z</time>
      </trkpt>
      <trkpt lat="48.214" lon="-2.93737">
        <ele>157.31</ele>
        <time>2020-08-12T10:59:22Z</time>
      </trkpt>
      <trkpt lat="48.21401" lon="-2.93737">
        <ele>157.31</ele>
        <time>2020-08-12T10:59:54Z</time>
      </trkpt>
      <trkpt lat="48.21401" lon="-2.9374">
        <ele>157.31</ele>
        <time>2020-08-12T11:00:33Z</time>
      </trkpt>
      <trkpt lat="48.21399" lon="-2.9374">
        <ele>157.31</ele>
        <time>2020-08-12T11:01:09Z</time>
      </trkpt>
      <trkpt lat="48.214" lon="-2.93739">
        <ele>157.31</ele>
        <time>2020-08-12T11:01:48Z</time>
      </trkpt>
      <trkpt lat="48.21402" lon="-2.93739">
        <ele>157.31</ele>
        <time>2020-08-12T11:02:39Z</time>
      </trkpt>
      <trkpt lat="48.21401" lon="-2.9374">
        <ele>157.31</ele>
        <time>2020-08-12T11:03:24Z</time>
      </trkpt>
      <trkpt lat="48.21401" lon="-2.93741">
        <ele>157.31</ele>
        <time>2020-08-12T11:03:59Z</time>
      </trkpt>
      <trkpt lat="48.21401" lon="-2.93741">
        <ele>157.79</ele>
        <time>2020-08-12T11:04:27Z</time>
      </trkpt>
      <trkpt lat="48.214" lon="-2.93735">
        <ele>157.31</ele>
        <time>2020-08-12T11:05:01Z</time>
      </trkpt>
      <trkpt lat="48.21403" lon="-2.93736">
        <ele>157.31</ele>
        <time>2020-08-12T11:05:36Z</time>
      </trkpt>
      <trkpt lat="48.21402" lon="-2.93735">
        <ele>157.31</ele>
        <time>2020-08-12T11:06:09Z</time>
      </trkpt>
      <trkpt lat="48.21402" lon="-2.93739">
        <ele>157.31</ele>
        <time>2020-08-12T11:06:33Z</time>
      </trkpt>
      <trkpt lat="48.21402" lon="-2.93736">
        <ele>157.31</ele>
        <time>2020-08-12T11:07:05Z</time>
      </trkpt>
      <trkpt lat="48.214" lon="-2.93737">
        <ele>157.31</ele>
        <time>2020-08-12T11:07:37Z</time>
      </trkpt>
      <trkpt lat="48.214" lon="-2.93739">
        <ele>157.31</ele>
        <time>2020-08-12T11:08:08Z</time>
      </trkpt>
      <trkpt lat="48.21398" lon="-2.93739">
        <ele>157.31</ele>
        <time>2020-08-12T11:08:36Z</time>
      </trkpt>
      <trkpt lat="48.21399" lon="-2.93737">
        <ele>157.31</ele>
        <time>2020-08-12T11:09:03Z</time>
      </trkpt>
      <trkpt lat="48.21399" lon="-2.93735">
        <ele>157.31</ele>
        <time>2020-08-12T11:09:34Z</time>
      </trkpt>
      <trkpt lat="48.214" lon="-2.93732">
        <ele>156.83</ele>
        <time>2020-08-12T11:10:09Z</time>
      </trkpt>
      <trkpt lat="48.21402" lon="-2.93736">
        <ele>157.31</ele>
        <time>2020-08-12T11:10:43Z</time>
      </trkpt>
      <trkpt lat="48.21402" lon="-2.93737">
        <ele>157.31</ele>
        <time>2020-08-12T11:11:08Z</time>
      </trkpt>
      <trkpt lat="48.214" lon="-2.93737">
        <ele>157.31</ele>
        <time>2020-08-12T11:11:37Z</time>
      </trkpt>
      <trkpt lat="48.21403" lon="-2.93746">
        <ele>157.31</ele>
        <time>2020-08-12T11:11:59Z</time>
      </trkpt>
      <trkpt lat="48.21404" lon="-2.93748">
        <ele>157.31</ele>
        <time>2020-08-12T11:12:00Z</time>
      </trkpt>
      <trkpt lat="48.21405" lon="-2.9375">
        <ele>157.31</ele>
        <time>2020-08-12T11:12:01Z</time>
      </trkpt>
      <trkpt lat="48.21405" lon="-2.93761">
        <ele>157.31</ele>
        <time>2020-08-12T11:12:06Z</time>
      </trkpt>
      <trkpt lat="48.21406" lon="-2.93763">
        <ele>157.31</ele>
        <time>2020-08-12T11:12:07Z</time>
      </trkpt>
      <trkpt lat="48.21412" lon="-2.93796">
        <ele>157.31</ele>
        <time>2020-08-12T11:12:19Z</time>
      </trkpt>
      <trkpt lat="48.21411" lon="-2.93797">
        <ele>157.31</ele>
        <time>2020-08-12T11:12:32Z</time>
      </trkpt>
      <trkpt lat="48.21408" lon="-2.93797">
        <ele>157.31</ele>
        <time>2020-08-12T11:13:04Z</time>
      </trkpt>
      <trkpt lat="48.2141" lon="-2.93797">
        <ele>156.83</ele>
        <time>2020-08-12T11:13:27Z</time>
      </trkpt>
      <trkpt lat="48.21412" lon="-2.93802">
        <ele>156.83</ele>
        <time>2020-08-12T11:13:33Z</time>
      </trkpt>
      <trkpt lat="48.21416" lon="-2.93809">
        <ele>156.83</ele>
        <time>2020-08-12T11:13:37Z</time>
      </trkpt>
      <trkpt lat="48.21451" lon="-2.93843">
        <ele>156.83</ele>
        <time>2020-08-12T11:13:51Z</time>
      </trkpt>
      <trkpt lat="48.21501" lon="-2.93864">
        <ele>156.83</ele>
        <time>2020-08-12T11:14:09Z</time>
      </trkpt>
      <trkpt lat="48.21538" lon="-2.93892">
        <ele>156.83</ele>
        <time>2020-08-12T11:14:23Z</time>
      </trkpt>
      <trkpt lat="48.21576" lon="-2.93889">
        <ele>156.83</ele>
        <time>2020-08-12T11:14:38Z</time>
      </trkpt>
      <trkpt lat="48.21581" lon="-2.93863">
        <ele>156.83</ele>
        <time>2020-08-12T11:14:47Z</time>
      </trkpt>
      <trkpt lat="48.2158" lon="-2.93861">
        <ele>156.83</ele>
        <time>2020-08-12T11:14:48Z</time>
      </trkpt>
      <trkpt lat="48.21577" lon="-2.93859">
        <ele>156.83</ele>
        <time>2020-08-12T11:14:49Z</time>
      </trkpt>
      <trkpt lat="48.21551" lon="-2.93829">
        <ele>156.83</ele>
        <time>2020-08-12T11:15:02Z</time>
      </trkpt>
      <trkpt lat="48.21518" lon="-2.938">
        <ele>156.83</ele>
        <time>2020-08-12T11:15:17Z</time>
      </trkpt>
      <trkpt lat="48.21481" lon="-2.93746">
        <ele>156.83</ele>
        <time>2020-08-12T11:15:33Z</time>
      </trkpt>
      <trkpt lat="48.21444" lon="-2.93712">
        <ele>156.83</ele>
        <time>2020-08-12T11:15:47Z</time>
      </trkpt>
      <trkpt lat="48.2142" lon="-2.93734">
        <ele>156.83</ele>
        <time>2020-08-12T11:15:57Z</time>
      </trkpt>
      <trkpt lat="48.21397" lon="-2.93738">
        <ele>157.31</ele>
        <time>2020-08-12T11:16:08Z</time>
      </trkpt>
      <trkpt lat="48.21396" lon="-2.93748">
        <ele>157.31</ele>
        <time>2020-08-12T11:16:12Z</time>
      </trkpt>
      <trkpt lat="48.21396" lon="-2.93751">
        <ele>157.31</ele>
        <time>2020-08-12T11:16:13Z</time>
      </trkpt>
      <trkpt lat="48.21397" lon="-2.93792">
        <ele>156.83</ele>
        <time>2020-08-12T11:16:25Z</time>
      </trkpt>
      <trkpt lat="48.21393" lon="-2.93834">
        <ele>155.87</ele>
        <time>2020-08-12T11:16:36Z</time>
      </trkpt>
      <trkpt lat="48.21393" lon="-2.93838">
        <ele>155.87</ele>
        <time>2020-08-12T11:16:37Z</time>
      </trkpt>
      <trkpt lat="48.21392" lon="-2.93842">
        <ele>155.87</ele>
        <time>2020-08-12T11:16:38Z</time>
      </trkpt>
      <trkpt lat="48.21392" lon="-2.93845">
        <ele>155.87</ele>
        <time>2020-08-12T11:16:39Z</time>
      </trkpt>
      <trkpt lat="48.21392" lon="-2.93849">
        <ele>155.87</ele>
        <time>2020-08-12T11:16:40Z</time>
      </trkpt>
      <trkpt lat="48.21391" lon="-2.93854">
        <ele>155.87</ele>
        <time>2020-08-12T11:16:41Z</time>
      </trkpt>
      <trkpt lat="48.2139" lon="-2.93858">
        <ele>155.87</ele>
        <time>2020-08-12T11:16:42Z</time>
      </trkpt>
      <trkpt lat="48.21389" lon="-2.93863">
        <ele>155.87</ele>
        <time>2020-08-12T11:16:43Z</time>
      </trkpt>
      <trkpt lat="48.21376" lon="-2.93926">
        <ele>155.39</ele>
        <time>2020-08-12T11:16:55Z</time>
      </trkpt>
      <trkpt lat="48.21348" lon="-2.9399">
        <ele>154.91</ele>
        <time>2020-08-12T11:17:09Z</time>
      </trkpt>
      <trkpt lat="48.21318" lon="-2.94046">
        <ele>154.43</ele>
        <time>2020-08-12T11:17:23Z</time>
      </trkpt>
      <trkpt lat="48.21292" lon="-2.94087">
        <ele>154.43</ele>
        <time>2020-08-12T11:17:34Z</time>
      </trkpt>
      <trkpt lat="48.21261" lon="-2.94135">
        <ele>154.43</ele>
        <time>2020-08-12T11:17:48Z</time>
      </trkpt>
      <trkpt lat="48.2123" lon="-2.94182">
        <ele>154.43</ele>
        <time>2020-08-12T11:18:00Z</time>
      </trkpt>
      <trkpt lat="48.21186" lon="-2.94245">
        <ele>154.43</ele>
        <time>2020-08-12T11:18:13Z</time>
      </trkpt>
      <trkpt lat="48.21152" lon="-2.94294">
        <ele>154.91</ele>
        <time>2020-08-12T11:18:26Z</time>
      </trkpt>
      <trkpt lat="48.2111" lon="-2.94353">
        <ele>154.91</ele>
        <time>2020-08-12T11:18:42Z</time>
      </trkpt>
      <trkpt lat="48.21069" lon="-2.9442">
        <ele>154.91</ele>
        <time>2020-08-12T11:18:57Z</time>
      </trkpt>
      <trkpt lat="48.21039" lon="-2.94479">
        <ele>154.91</ele>
        <time>2020-08-12T11:19:11Z</time>
      </trkpt>
      <trkpt lat="48.2101" lon="-2.94545">
        <ele>154.91</ele>
        <time>2020-08-12T11:19:27Z</time>
      </trkpt>
      <trkpt lat="48.20981" lon="-2.94612">
        <ele>154.91</ele>
        <time>2020-08-12T11:19:42Z</time>
      </trkpt>
      <trkpt lat="48.20961" lon="-2.9466">
        <ele>154.91</ele>
        <time>2020-08-12T11:19:53Z</time>
      </trkpt>
      <trkpt lat="48.2092" lon="-2.9476">
        <ele>154.91</ele>
        <time>2020-08-12T11:20:13Z</time>
      </trkpt>
      <trkpt lat="48.20871" lon="-2.94882">
        <ele>154.91</ele>
        <time>2020-08-12T11:20:36Z</time>
      </trkpt>
      <trkpt lat="48.2084" lon="-2.94962">
        <ele>154.91</ele>
        <time>2020-08-12T11:20:53Z</time>
      </trkpt>
      <trkpt lat="48.20811" lon="-2.95035">
        <ele>153.95</ele>
        <time>2020-08-12T11:21:07Z</time>
      </trkpt>
      <trkpt lat="48.20775" lon="-2.9512">
        <ele>153.47</ele>
        <time>2020-08-12T11:21:24Z</time>
      </trkpt>
      <trkpt lat="48.20745" lon="-2.95194">
        <ele>152.03</ele>
        <time>2020-08-12T11:21:39Z</time>
      </trkpt>
      <trkpt lat="48.20712" lon="-2.95274">
        <ele>151.06</ele>
        <time>2020-08-12T11:21:53Z</time>
      </trkpt>
      <trkpt lat="48.20674" lon="-2.95368">
        <ele>149.14</ele>
        <time>2020-08-12T11:22:08Z</time>
      </trkpt>
      <trkpt lat="48.20625" lon="-2.95485">
        <ele>146.74</ele>
        <time>2020-08-12T11:22:27Z</time>
      </trkpt>
      <trkpt lat="48.20609" lon="-2.95524">
        <ele>146.26</ele>
        <time>2020-08-12T11:22:33Z</time>
      </trkpt>
      <trkpt lat="48.20572" lon="-2.95639">
        <ele>144.34</ele>
        <time>2020-08-12T11:22:51Z</time>
      </trkpt>
      <trkpt lat="48.20557" lon="-2.95734">
        <ele>143.37</ele>
        <time>2020-08-12T11:23:06Z</time>
      </trkpt>
      <trkpt lat="48.20555" lon="-2.95758">
        <ele>142.89</ele>
        <time>2020-08-12T11:23:10Z</time>
      </trkpt>
      <trkpt lat="48.20554" lon="-2.95763">
        <ele>142.89</ele>
        <time>2020-08-12T11:23:11Z</time>
      </trkpt>
      <trkpt lat="48.20551" lon="-2.95819">
        <ele>141.93</ele>
        <time>2020-08-12T11:23:21Z</time>
      </trkpt>
      <trkpt lat="48.20548" lon="-2.95896">
        <ele>140.97</ele>
        <time>2020-08-12T11:23:33Z</time>
      </trkpt>
      <trkpt lat="48.20545" lon="-2.95958">
        <ele>140.49</ele>
        <time>2020-08-12T11:23:45Z</time>
      </trkpt>
      <trkpt lat="48.20542" lon="-2.95986">
        <ele>140.01</ele>
        <time>2020-08-12T11:23:50Z</time>
      </trkpt>
      <trkpt lat="48.20542" lon="-2.95999">
        <ele>140.01</ele>
        <time>2020-08-12T11:23:52Z</time>
      </trkpt>
      <trkpt lat="48.20534" lon="-2.96106">
        <ele>138.09</ele>
        <time>2020-08-12T11:24:09Z</time>
      </trkpt>
      <trkpt lat="48.20533" lon="-2.96155">
        <ele>137.61</ele>
        <time>2020-08-12T11:24:23Z</time>
      </trkpt>
      <trkpt lat="48.20527" lon="-2.96232">
        <ele>136.16</ele>
        <time>2020-08-12T11:24:37Z</time>
      </trkpt>
      <trkpt lat="48.2052" lon="-2.96285">
        <ele>135.68</ele>
        <time>2020-08-12T11:24:46Z</time>
      </trkpt>
      <trkpt lat="48.20495" lon="-2.96366">
        <ele>134.24</ele>
        <time>2020-08-12T11:25:00Z</time>
      </trkpt>
      <trkpt lat="48.20469" lon="-2.96418">
        <ele>133.76</ele>
        <time>2020-08-12T11:25:12Z</time>
      </trkpt>
      <trkpt lat="48.20467" lon="-2.9642">
        <ele>133.76</ele>
        <time>2020-08-12T11:25:13Z</time>
      </trkpt>
      <trkpt lat="48.20464" lon="-2.96422">
        <ele>133.76</ele>
        <time>2020-08-12T11:25:14Z</time>
      </trkpt>
      <trkpt lat="48.20461" lon="-2.96424">
        <ele>133.28</ele>
        <time>2020-08-12T11:25:15Z</time>
      </trkpt>
      <trkpt lat="48.20458" lon="-2.96428">
        <ele>133.28</ele>
        <time>2020-08-12T11:25:16Z</time>
      </trkpt>
      <trkpt lat="48.20456" lon="-2.96432">
        <ele>133.28</ele>
        <time>2020-08-12T11:25:17Z</time>
      </trkpt>
      <trkpt lat="48.20454" lon="-2.96437">
        <ele>133.28</ele>
        <time>2020-08-12T11:25:18Z</time>
      </trkpt>
      <trkpt lat="48.20428" lon="-2.96475">
        <ele>133.28</ele>
        <time>2020-08-12T11:25:29Z</time>
      </trkpt>
      <trkpt lat="48.20418" lon="-2.96469">
        <ele>131.84</ele>
        <time>2020-08-12T11:25:40Z</time>
      </trkpt>
      <trkpt lat="48.204" lon="-2.9645">
        <ele>130.4</ele>
        <time>2020-08-12T11:25:53Z</time>
      </trkpt>
      <trkpt lat="48.20388" lon="-2.96445">
        <ele>129.92</ele>
        <time>2020-08-12T11:25:57Z</time>
      </trkpt>
      <trkpt lat="48.20384" lon="-2.96448">
        <ele>129.92</ele>
        <time>2020-08-12T11:25:58Z</time>
      </trkpt>
      <trkpt lat="48.20382" lon="-2.96451">
        <ele>129.92</ele>
        <time>2020-08-12T11:25:59Z</time>
      </trkpt>
      <trkpt lat="48.2038" lon="-2.96454">
        <ele>129.92</ele>
        <time>2020-08-12T11:26:00Z</time>
      </trkpt>
      <trkpt lat="48.20378" lon="-2.96459">
        <ele>129.92</ele>
        <time>2020-08-12T11:26:01Z</time>
      </trkpt>
      <trkpt lat="48.20345" lon="-2.96553">
        <ele>128.47</ele>
        <time>2020-08-12T11:26:20Z</time>
      </trkpt>
      <trkpt lat="48.20314" lon="-2.96586">
        <ele>127.99</ele>
        <time>2020-08-12T11:26:32Z</time>
      </trkpt>
      <trkpt lat="48.20293" lon="-2.96602">
        <ele>127.51</ele>
        <time>2020-08-12T11:26:39Z</time>
      </trkpt>
      <trkpt lat="48.2029" lon="-2.96606">
        <ele>127.03</ele>
        <time>2020-08-12T11:26:40Z</time>
      </trkpt>
      <trkpt lat="48.20287" lon="-2.96611">
        <ele>127.51</ele>
        <time>2020-08-12T11:26:41Z</time>
      </trkpt>
      <trkpt lat="48.20282" lon="-2.96622">
        <ele>126.55</ele>
        <time>2020-08-12T11:26:43Z</time>
      </trkpt>
      <trkpt lat="48.2028" lon="-2.96629">
        <ele>126.55</ele>
        <time>2020-08-12T11:26:44Z</time>
      </trkpt>
      <trkpt lat="48.20278" lon="-2.96636">
        <ele>126.07</ele>
        <time>2020-08-12T11:26:45Z</time>
      </trkpt>
      <trkpt lat="48.20277" lon="-2.96641">
        <ele>126.07</ele>
        <time>2020-08-12T11:26:46Z</time>
      </trkpt>
      <trkpt lat="48.20276" lon="-2.96647">
        <ele>126.07</ele>
        <time>2020-08-12T11:26:47Z</time>
      </trkpt>
      <trkpt lat="48.20275" lon="-2.96655">
        <ele>126.07</ele>
        <time>2020-08-12T11:26:48Z</time>
      </trkpt>
      <trkpt lat="48.20274" lon="-2.96677">
        <ele>125.59</ele>
        <time>2020-08-12T11:26:51Z</time>
      </trkpt>
      <trkpt lat="48.20275" lon="-2.96685">
        <ele>125.11</ele>
        <time>2020-08-12T11:26:52Z</time>
      </trkpt>
      <trkpt lat="48.20295" lon="-2.9685">
        <ele>121.74</ele>
        <time>2020-08-12T11:27:10Z</time>
      </trkpt>
      <trkpt lat="48.20301" lon="-2.96889">
        <ele>120.78</ele>
        <time>2020-08-12T11:27:14Z</time>
      </trkpt>
      <trkpt lat="48.20304" lon="-2.96898">
        <ele>120.3</ele>
        <time>2020-08-12T11:27:15Z</time>
      </trkpt>
      <trkpt lat="48.20307" lon="-2.96908">
        <ele>119.82</ele>
        <time>2020-08-12T11:27:16Z</time>
      </trkpt>
      <trkpt lat="48.20311" lon="-2.96918">
        <ele>119.82</ele>
        <time>2020-08-12T11:27:17Z</time>
      </trkpt>
      <trkpt lat="48.20316" lon="-2.96926">
        <ele>119.34</ele>
        <time>2020-08-12T11:27:18Z</time>
      </trkpt>
      <trkpt lat="48.20345" lon="-2.96963">
        <ele>118.38</ele>
        <time>2020-08-12T11:27:26Z</time>
      </trkpt>
      <trkpt lat="48.20383" lon="-2.9698">
        <ele>118.38</ele>
        <time>2020-08-12T11:27:42Z</time>
      </trkpt>
      <trkpt lat="48.20416" lon="-2.96999">
        <ele>119.82</ele>
        <time>2020-08-12T11:27:55Z</time>
      </trkpt>
      <trkpt lat="48.20438" lon="-2.97">
        <ele>121.26</ele>
        <time>2020-08-12T11:28:08Z</time>
      </trkpt>
      <trkpt lat="48.20439" lon="-2.96997">
        <ele>121.74</ele>
        <time>2020-08-12T11:28:09Z</time>
      </trkpt>
      <trkpt lat="48.20439" lon="-2.96996">
        <ele>121.74</ele>
        <time>2020-08-12T11:28:10Z</time>
      </trkpt>
      <trkpt lat="48.20438" lon="-2.96994">
        <ele>121.74</ele>
        <time>2020-08-12T11:28:11Z</time>
      </trkpt>
      <trkpt lat="48.20438" lon="-2.96993">
        <ele>122.22</ele>
        <time>2020-08-12T11:28:12Z</time>
      </trkpt>
      <trkpt lat="48.20437" lon="-2.96992">
        <ele>122.22</ele>
        <time>2020-08-12T11:28:13Z</time>
      </trkpt>
      <trkpt lat="48.20436" lon="-2.9699">
        <ele>122.71</ele>
        <time>2020-08-12T11:28:14Z</time>
      </trkpt>
      <trkpt lat="48.20436" lon="-2.96988">
        <ele>122.71</ele>
        <time>2020-08-12T11:28:15Z</time>
      </trkpt>
      <trkpt lat="48.20435" lon="-2.96987">
        <ele>122.71</ele>
        <time>2020-08-12T11:28:16Z</time>
      </trkpt>
      <trkpt lat="48.20434" lon="-2.96986">
        <ele>123.19</ele>
        <time>2020-08-12T11:28:17Z</time>
      </trkpt>
      <trkpt lat="48.20422" lon="-2.96971">
        <ele>126.07</ele>
        <time>2020-08-12T11:28:29Z</time>
      </trkpt>
      <trkpt lat="48.2042" lon="-2.96972">
        <ele>125.59</ele>
        <time>2020-08-12T11:28:30Z</time>
      </trkpt>
      <trkpt lat="48.20419" lon="-2.96972">
        <ele>126.55</ele>
        <time>2020-08-12T11:28:31Z</time>
      </trkpt>
      <trkpt lat="48.20418" lon="-2.96974">
        <ele>126.55</ele>
        <time>2020-08-12T11:28:32Z</time>
      </trkpt>
      <trkpt lat="48.20418" lon="-2.96976">
        <ele>126.55</ele>
        <time>2020-08-12T11:28:33Z</time>
      </trkpt>
      <trkpt lat="48.20418" lon="-2.96978">
        <ele>126.55</ele>
        <time>2020-08-12T11:28:34Z</time>
      </trkpt>
      <trkpt lat="48.20417" lon="-2.9698">
        <ele>126.55</ele>
        <time>2020-08-12T11:28:35Z</time>
      </trkpt>
      <trkpt lat="48.20417" lon="-2.96982">
        <ele>126.55</ele>
        <time>2020-08-12T11:28:36Z</time>
      </trkpt>
      <trkpt lat="48.20418" lon="-2.97002">
        <ele>126.55</ele>
        <time>2020-08-12T11:28:51Z</time>
      </trkpt>
      <trkpt lat="48.20417" lon="-2.97004">
        <ele>126.55</ele>
        <time>2020-08-12T11:29:23Z</time>
      </trkpt>
      <trkpt lat="48.20415" lon="-2.97034">
        <ele>126.55</ele>
        <time>2020-08-12T11:29:37Z</time>
      </trkpt>
      <trkpt lat="48.20411" lon="-2.97099">
        <ele>126.07</ele>
        <time>2020-08-12T11:29:51Z</time>
      </trkpt>
      <trkpt lat="48.20409" lon="-2.9712">
        <ele>126.07</ele>
        <time>2020-08-12T11:29:54Z</time>
      </trkpt>
      <trkpt lat="48.20398" lon="-2.97182">
        <ele>126.55</ele>
        <time>2020-08-12T11:30:06Z</time>
      </trkpt>
      <trkpt lat="48.20382" lon="-2.97244">
        <ele>127.51</ele>
        <time>2020-08-12T11:30:21Z</time>
      </trkpt>
      <trkpt lat="48.20365" lon="-2.97295">
        <ele>128.47</ele>
        <time>2020-08-12T11:30:35Z</time>
      </trkpt>
      <trkpt lat="48.2034" lon="-2.97349">
        <ele>129.43</ele>
        <time>2020-08-12T11:30:49Z</time>
      </trkpt>
      <trkpt lat="48.2031" lon="-2.97395">
        <ele>130.88</ele>
        <time>2020-08-12T11:31:03Z</time>
      </trkpt>
      <trkpt lat="48.20268" lon="-2.97458">
        <ele>132.32</ele>
        <time>2020-08-12T11:31:21Z</time>
      </trkpt>
      <trkpt lat="48.20245" lon="-2.97489">
        <ele>132.8</ele>
        <time>2020-08-12T11:31:34Z</time>
      </trkpt>
      <trkpt lat="48.20228" lon="-2.97531">
        <ele>133.76</ele>
        <time>2020-08-12T11:31:45Z</time>
      </trkpt>
      <trkpt lat="48.20219" lon="-2.97568">
        <ele>136.16</ele>
        <time>2020-08-12T11:31:58Z</time>
      </trkpt>
      <trkpt lat="48.20218" lon="-2.97571">
        <ele>135.68</ele>
        <time>2020-08-12T11:32:00Z</time>
      </trkpt>
      <trkpt lat="48.20213" lon="-2.97577">
        <ele>135.68</ele>
        <time>2020-08-12T11:32:06Z</time>
      </trkpt>
      <trkpt lat="48.20213" lon="-2.97579">
        <ele>135.68</ele>
        <time>2020-08-12T11:32:07Z</time>
      </trkpt>
      <trkpt lat="48.20211" lon="-2.97592">
        <ele>136.64</ele>
        <time>2020-08-12T11:32:23Z</time>
      </trkpt>
      <trkpt lat="48.20211" lon="-2.97589">
        <ele>136.64</ele>
        <time>2020-08-12T11:32:38Z</time>
      </trkpt>
      <trkpt lat="48.2021" lon="-2.97587">
        <ele>136.64</ele>
        <time>2020-08-12T11:32:39Z</time>
      </trkpt>
      <trkpt lat="48.2021" lon="-2.97584">
        <ele>136.64</ele>
        <time>2020-08-12T11:32:40Z</time>
      </trkpt>
      <trkpt lat="48.20209" lon="-2.97566">
        <ele>136.64</ele>
        <time>2020-08-12T11:32:45Z</time>
      </trkpt>
      <trkpt lat="48.20212" lon="-2.97555">
        <ele>136.64</ele>
        <time>2020-08-12T11:32:48Z</time>
      </trkpt>
      <trkpt lat="48.20211" lon="-2.97554">
        <ele>136.64</ele>
        <time>2020-08-12T11:32:49Z</time>
      </trkpt>
      <trkpt lat="48.20209" lon="-2.97555">
        <ele>136.64</ele>
        <time>2020-08-12T11:32:50Z</time>
      </trkpt>
      <trkpt lat="48.20208" lon="-2.97557">
        <ele>136.64</ele>
        <time>2020-08-12T11:32:51Z</time>
      </trkpt>
      <trkpt lat="48.20207" lon="-2.97559">
        <ele>136.64</ele>
        <time>2020-08-12T11:32:52Z</time>
      </trkpt>
      <trkpt lat="48.20205" lon="-2.97561">
        <ele>136.64</ele>
        <time>2020-08-12T11:32:53Z</time>
      </trkpt>
      <trkpt lat="48.20202" lon="-2.97564">
        <ele>136.64</ele>
        <time>2020-08-12T11:32:54Z</time>
      </trkpt>
      <trkpt lat="48.20178" lon="-2.97627">
        <ele>135.68</ele>
        <time>2020-08-12T11:33:09Z</time>
      </trkpt>
      <trkpt lat="48.20163" lon="-2.9769">
        <ele>136.64</ele>
        <time>2020-08-12T11:33:25Z</time>
      </trkpt>
      <trkpt lat="48.20153" lon="-2.97753">
        <ele>137.61</ele>
        <time>2020-08-12T11:33:40Z</time>
      </trkpt>
      <trkpt lat="48.20146" lon="-2.97808">
        <ele>138.57</ele>
        <time>2020-08-12T11:33:54Z</time>
      </trkpt>
      <trkpt lat="48.20138" lon="-2.97871">
        <ele>139.53</ele>
        <time>2020-08-12T11:34:09Z</time>
      </trkpt>
      <trkpt lat="48.20133" lon="-2.97927">
        <ele>140.01</ele>
        <time>2020-08-12T11:34:23Z</time>
      </trkpt>
      <trkpt lat="48.20123" lon="-2.97994">
        <ele>140.97</ele>
        <time>2020-08-12T11:34:36Z</time>
      </trkpt>
      <trkpt lat="48.20112" lon="-2.98061">
        <ele>142.41</ele>
        <time>2020-08-12T11:34:51Z</time>
      </trkpt>
      <trkpt lat="48.20099" lon="-2.98117">
        <ele>142.89</ele>
        <time>2020-08-12T11:35:05Z</time>
      </trkpt>
      <trkpt lat="48.20075" lon="-2.9818">
        <ele>143.85</ele>
        <time>2020-08-12T11:35:20Z</time>
      </trkpt>
      <trkpt lat="48.20039" lon="-2.98257">
        <ele>145.78</ele>
        <time>2020-08-12T11:35:38Z</time>
      </trkpt>
      <trkpt lat="48.20007" lon="-2.98325">
        <ele>147.22</ele>
        <time>2020-08-12T11:35:54Z</time>
      </trkpt>
      <trkpt lat="48.19985" lon="-2.98376">
        <ele>148.18</ele>
        <time>2020-08-12T11:36:08Z</time>
      </trkpt>
      <trkpt lat="48.19965" lon="-2.98419">
        <ele>149.14</ele>
        <time>2020-08-12T11:36:21Z</time>
      </trkpt>
      <trkpt lat="48.19939" lon="-2.98474">
        <ele>150.1</ele>
        <time>2020-08-12T11:36:35Z</time>
      </trkpt>
      <trkpt lat="48.19903" lon="-2.98548">
        <ele>150.58</ele>
        <time>2020-08-12T11:36:53Z</time>
      </trkpt>
      <trkpt lat="48.1988" lon="-2.98599">
        <ele>151.06</ele>
        <time>2020-08-12T11:37:08Z</time>
      </trkpt>
      <trkpt lat="48.19854" lon="-2.98641">
        <ele>151.06</ele>
        <time>2020-08-12T11:37:22Z</time>
      </trkpt>
      <trkpt lat="48.1985" lon="-2.98647">
        <ele>149.62</ele>
        <time>2020-08-12T11:37:24Z</time>
      </trkpt>
      <trkpt lat="48.19842" lon="-2.98664">
        <ele>149.14</ele>
        <time>2020-08-12T11:37:30Z</time>
      </trkpt>
      <trkpt lat="48.19843" lon="-2.98668">
        <ele>149.14</ele>
        <time>2020-08-12T11:37:31Z</time>
      </trkpt>
      <trkpt lat="48.19844" lon="-2.9867">
        <ele>149.14</ele>
        <time>2020-08-12T11:37:33Z</time>
      </trkpt>
      <trkpt lat="48.19847" lon="-2.98672">
        <ele>149.14</ele>
        <time>2020-08-12T11:37:34Z</time>
      </trkpt>
      <trkpt lat="48.19854" lon="-2.98678">
        <ele>150.1</ele>
        <time>2020-08-12T11:37:39Z</time>
      </trkpt>
      <trkpt lat="48.19873" lon="-2.98711">
        <ele>151.54</ele>
        <time>2020-08-12T11:37:56Z</time>
      </trkpt>
      <trkpt lat="48.19874" lon="-2.98714">
        <ele>151.54</ele>
        <time>2020-08-12T11:37:59Z</time>
      </trkpt>
      <trkpt lat="48.19873" lon="-2.98718">
        <ele>151.54</ele>
        <time>2020-08-12T11:38:14Z</time>
      </trkpt>
      <trkpt lat="48.19876" lon="-2.98714">
        <ele>151.54</ele>
        <time>2020-08-12T11:38:52Z</time>
      </trkpt>
      <trkpt lat="48.19876" lon="-2.98714">
        <ele>151.54</ele>
        <time>2020-08-12T11:39:15Z</time>
      </trkpt>
      <trkpt lat="48.19876" lon="-2.98712">
        <ele>151.54</ele>
        <time>2020-08-12T11:39:38Z</time>
      </trkpt>
      <trkpt lat="48.19875" lon="-2.98713">
        <ele>152.03</ele>
        <time>2020-08-12T11:40:00Z</time>
      </trkpt>
      <trkpt lat="48.19875" lon="-2.98711">
        <ele>152.03</ele>
        <time>2020-08-12T11:40:18Z</time>
      </trkpt>
      <trkpt lat="48.19871" lon="-2.98712">
        <ele>152.03</ele>
        <time>2020-08-12T11:40:40Z</time>
      </trkpt>
      <trkpt lat="48.19869" lon="-2.9871">
        <ele>152.03</ele>
        <time>2020-08-12T11:41:03Z</time>
      </trkpt>
      <trkpt lat="48.19867" lon="-2.98709">
        <ele>152.03</ele>
        <time>2020-08-12T11:41:25Z</time>
      </trkpt>
      <trkpt lat="48.19867" lon="-2.98714">
        <ele>152.03</ele>
        <time>2020-08-12T11:41:45Z</time>
      </trkpt>
      <trkpt lat="48.19868" lon="-2.98713">
        <ele>152.03</ele>
        <time>2020-08-12T11:42:10Z</time>
      </trkpt>
      <trkpt lat="48.19871" lon="-2.98712">
        <ele>152.03</ele>
        <time>2020-08-12T11:42:35Z</time>
      </trkpt>
      <trkpt lat="48.1987" lon="-2.98706">
        <ele>152.03</ele>
        <time>2020-08-12T11:43:03Z</time>
      </trkpt>
      <trkpt lat="48.19869" lon="-2.98709">
        <ele>152.03</ele>
        <time>2020-08-12T11:43:28Z</time>
      </trkpt>
      <trkpt lat="48.19866" lon="-2.98707">
        <ele>152.03</ele>
        <time>2020-08-12T11:43:55Z</time>
      </trkpt>
      <trkpt lat="48.19869" lon="-2.98707">
        <ele>152.03</ele>
        <time>2020-08-12T11:44:23Z</time>
      </trkpt>
      <trkpt lat="48.19872" lon="-2.98707">
        <ele>152.03</ele>
        <time>2020-08-12T11:44:45Z</time>
      </trkpt>
      <trkpt lat="48.1987" lon="-2.98702">
        <ele>152.03</ele>
        <time>2020-08-12T11:45:11Z</time>
      </trkpt>
      <trkpt lat="48.19868" lon="-2.98705">
        <ele>152.03</ele>
        <time>2020-08-12T11:45:37Z</time>
      </trkpt>
      <trkpt lat="48.19869" lon="-2.98705">
        <ele>152.03</ele>
        <time>2020-08-12T11:46:02Z</time>
      </trkpt>
      <trkpt lat="48.19871" lon="-2.98703">
        <ele>152.51</ele>
        <time>2020-08-12T11:46:35Z</time>
      </trkpt>
      <trkpt lat="48.19869" lon="-2.98699">
        <ele>152.51</ele>
        <time>2020-08-12T11:47:05Z</time>
      </trkpt>
      <trkpt lat="48.19872" lon="-2.98704">
        <ele>152.51</ele>
        <time>2020-08-12T11:47:28Z</time>
      </trkpt>
      <trkpt lat="48.19873" lon="-2.98707">
        <ele>152.51</ele>
        <time>2020-08-12T11:47:57Z</time>
      </trkpt>
      <trkpt lat="48.19873" lon="-2.98708">
        <ele>152.99</ele>
        <time>2020-08-12T11:48:29Z</time>
      </trkpt>
      <trkpt lat="48.19873" lon="-2.98706">
        <ele>152.99</ele>
        <time>2020-08-12T11:48:56Z</time>
      </trkpt>
      <trkpt lat="48.1987" lon="-2.98708">
        <ele>152.99</ele>
        <time>2020-08-12T11:49:18Z</time>
      </trkpt>
      <trkpt lat="48.1987" lon="-2.9871">
        <ele>152.99</ele>
        <time>2020-08-12T11:49:44Z</time>
      </trkpt>
      <trkpt lat="48.1987" lon="-2.98709">
        <ele>152.99</ele>
        <time>2020-08-12T11:50:00Z</time>
      </trkpt>
      <trkpt lat="48.19871" lon="-2.9871">
        <ele>152.99</ele>
        <time>2020-08-12T11:50:20Z</time>
      </trkpt>
      <trkpt lat="48.1987" lon="-2.98711">
        <ele>152.99</ele>
        <time>2020-08-12T11:50:46Z</time>
      </trkpt>
      <trkpt lat="48.1987" lon="-2.98713">
        <ele>152.51</ele>
        <time>2020-08-12T11:51:13Z</time>
      </trkpt>
      <trkpt lat="48.19871" lon="-2.98715">
        <ele>152.51</ele>
        <time>2020-08-12T11:51:40Z</time>
      </trkpt>
      <trkpt lat="48.19873" lon="-2.98717">
        <ele>152.51</ele>
        <time>2020-08-12T11:52:11Z</time>
      </trkpt>
      <trkpt lat="48.1987" lon="-2.98714">
        <ele>152.51</ele>
        <time>2020-08-12T11:52:45Z</time>
      </trkpt>
      <trkpt lat="48.19874" lon="-2.98716">
        <ele>152.51</ele>
        <time>2020-08-12T11:53:27Z</time>
      </trkpt>
      <trkpt lat="48.19875" lon="-2.98717">
        <ele>152.51</ele>
        <time>2020-08-12T11:53:57Z</time>
      </trkpt>
      <trkpt lat="48.19874" lon="-2.98717">
        <ele>152.51</ele>
        <time>2020-08-12T11:54:37Z</time>
      </trkpt>
      <trkpt lat="48.19874" lon="-2.98712">
        <ele>152.03</ele>
        <time>2020-08-12T11:55:08Z</time>
      </trkpt>
      <trkpt lat="48.19871" lon="-2.98709">
        <ele>152.03</ele>
        <time>2020-08-12T11:55:38Z</time>
      </trkpt>
      <trkpt lat="48.19872" lon="-2.98713">
        <ele>152.03</ele>
        <time>2020-08-12T11:56:16Z</time>
      </trkpt>
      <trkpt lat="48.19876" lon="-2.98716">
        <ele>152.03</ele>
        <time>2020-08-12T11:57:00Z</time>
      </trkpt>
      <trkpt lat="48.19873" lon="-2.98715">
        <ele>152.03</ele>
        <time>2020-08-12T11:57:30Z</time>
      </trkpt>
      <trkpt lat="48.19871" lon="-2.98715">
        <ele>152.03</ele>
        <time>2020-08-12T11:58:06Z</time>
      </trkpt>
      <trkpt lat="48.19874" lon="-2.98712">
        <ele>152.03</ele>
        <time>2020-08-12T11:58:44Z</time>
      </trkpt>
      <trkpt lat="48.19874" lon="-2.98712">
        <ele>151.54</ele>
        <time>2020-08-12T11:59:26Z</time>
      </trkpt>
      <trkpt lat="48.19875" lon="-2.98712">
        <ele>151.54</ele>
        <time>2020-08-12T12:00:04Z</time>
      </trkpt>
      <trkpt lat="48.19874" lon="-2.98709">
        <ele>151.54</ele>
        <time>2020-08-12T12:00:35Z</time>
      </trkpt>
      <trkpt lat="48.1987" lon="-2.98708">
        <ele>151.54</ele>
        <time>2020-08-12T12:01:05Z</time>
      </trkpt>
      <trkpt lat="48.1987" lon="-2.98711">
        <ele>151.54</ele>
        <time>2020-08-12T12:01:20Z</time>
      </trkpt>
      <trkpt lat="48.19875" lon="-2.98714">
        <ele>151.54</ele>
        <time>2020-08-12T12:01:51Z</time>
      </trkpt>
      <trkpt lat="48.19876" lon="-2.98716">
        <ele>151.54</ele>
        <time>2020-08-12T12:02:14Z</time>
      </trkpt>
      <trkpt lat="48.19876" lon="-2.98717">
        <ele>150.1</ele>
        <time>2020-08-12T12:02:27Z</time>
      </trkpt>
      <trkpt lat="48.19875" lon="-2.98714">
        <ele>150.1</ele>
        <time>2020-08-12T12:02:59Z</time>
      </trkpt>
      <trkpt lat="48.19874" lon="-2.98704">
        <ele>150.1</ele>
        <time>2020-08-12T12:03:35Z</time>
      </trkpt>
      <trkpt lat="48.19873" lon="-2.98706">
        <ele>150.1</ele>
        <time>2020-08-12T12:04:13Z</time>
      </trkpt>
      <trkpt lat="48.19873" lon="-2.98711">
        <ele>150.1</ele>
        <time>2020-08-12T12:04:41Z</time>
      </trkpt>
      <trkpt lat="48.19871" lon="-2.98712">
        <ele>150.1</ele>
        <time>2020-08-12T12:05:17Z</time>
      </trkpt>
      <trkpt lat="48.19871" lon="-2.98711">
        <ele>150.1</ele>
        <time>2020-08-12T12:05:51Z</time>
      </trkpt>
      <trkpt lat="48.19873" lon="-2.9871">
        <ele>149.62</ele>
        <time>2020-08-12T12:06:24Z</time>
      </trkpt>
      <trkpt lat="48.19874" lon="-2.98709">
        <ele>150.1</ele>
        <time>2020-08-12T12:07:00Z</time>
      </trkpt>
      <trkpt lat="48.19874" lon="-2.98711">
        <ele>150.1</ele>
        <time>2020-08-12T12:07:25Z</time>
      </trkpt>
      <trkpt lat="48.19873" lon="-2.98716">
        <ele>150.1</ele>
        <time>2020-08-12T12:07:30Z</time>
      </trkpt>
      <trkpt lat="48.19872" lon="-2.98718">
        <ele>150.1</ele>
        <time>2020-08-12T12:07:31Z</time>
      </trkpt>
      <trkpt lat="48.19871" lon="-2.98719">
        <ele>150.1</ele>
        <time>2020-08-12T12:07:32Z</time>
      </trkpt>
      <trkpt lat="48.19869" lon="-2.9872">
        <ele>150.1</ele>
        <time>2020-08-12T12:07:33Z</time>
      </trkpt>
      <trkpt lat="48.19867" lon="-2.98719">
        <ele>150.1</ele>
        <time>2020-08-12T12:07:34Z</time>
      </trkpt>
      <trkpt lat="48.19865" lon="-2.98719">
        <ele>149.62</ele>
        <time>2020-08-12T12:07:35Z</time>
      </trkpt>
      <trkpt lat="48.19862" lon="-2.98718">
        <ele>149.62</ele>
        <time>2020-08-12T12:07:36Z</time>
      </trkpt>
      <trkpt lat="48.19861" lon="-2.98715">
        <ele>149.62</ele>
        <time>2020-08-12T12:07:37Z</time>
      </trkpt>
      <trkpt lat="48.19861" lon="-2.98711">
        <ele>149.62</ele>
        <time>2020-08-12T12:07:38Z</time>
      </trkpt>
      <trkpt lat="48.19861" lon="-2.98709">
        <ele>149.62</ele>
        <time>2020-08-12T12:07:39Z</time>
      </trkpt>
      <trkpt lat="48.19862" lon="-2.98706">
        <ele>149.62</ele>
        <time>2020-08-12T12:07:40Z</time>
      </trkpt>
      <trkpt lat="48.19863" lon="-2.98703">
        <ele>149.62</ele>
        <time>2020-08-12T12:07:41Z</time>
      </trkpt>
      <trkpt lat="48.19862" lon="-2.98699">
        <ele>149.62</ele>
        <time>2020-08-12T12:07:42Z</time>
      </trkpt>
      <trkpt lat="48.19861" lon="-2.98696">
        <ele>149.62</ele>
        <time>2020-08-12T12:07:43Z</time>
      </trkpt>
      <trkpt lat="48.1986" lon="-2.98693">
        <ele>149.62</ele>
        <time>2020-08-12T12:07:44Z</time>
      </trkpt>
      <trkpt lat="48.19858" lon="-2.98689">
        <ele>149.62</ele>
        <time>2020-08-12T12:07:45Z</time>
      </trkpt>
      <trkpt lat="48.19856" lon="-2.98685">
        <ele>149.14</ele>
        <time>2020-08-12T12:07:46Z</time>
      </trkpt>
      <trkpt lat="48.19853" lon="-2.98682">
        <ele>149.14</ele>
        <time>2020-08-12T12:07:47Z</time>
      </trkpt>
      <trkpt lat="48.1985" lon="-2.98683">
        <ele>148.66</ele>
        <time>2020-08-12T12:07:48Z</time>
      </trkpt>
      <trkpt lat="48.19847" lon="-2.98687">
        <ele>148.18</ele>
        <time>2020-08-12T12:07:49Z</time>
      </trkpt>
      <trkpt lat="48.19846" lon="-2.9869">
        <ele>148.18</ele>
        <time>2020-08-12T12:07:50Z</time>
      </trkpt>
      <trkpt lat="48.19845" lon="-2.98694">
        <ele>148.18</ele>
        <time>2020-08-12T12:07:51Z</time>
      </trkpt>
      <trkpt lat="48.19844" lon="-2.987">
        <ele>148.18</ele>
        <time>2020-08-12T12:07:52Z</time>
      </trkpt>
      <trkpt lat="48.19843" lon="-2.98701">
        <ele>148.18</ele>
        <time>2020-08-12T12:07:53Z</time>
      </trkpt>
      <trkpt lat="48.19842" lon="-2.98702">
        <ele>148.18</ele>
        <time>2020-08-12T12:08:04Z</time>
      </trkpt>
      <trkpt lat="48.19842" lon="-2.987">
        <ele>148.18</ele>
        <time>2020-08-12T12:08:44Z</time>
      </trkpt>
      <trkpt lat="48.19842" lon="-2.98699">
        <ele>148.18</ele>
        <time>2020-08-12T12:09:19Z</time>
      </trkpt>
      <trkpt lat="48.19842" lon="-2.98701">
        <ele>148.18</ele>
        <time>2020-08-12T12:09:40Z</time>
      </trkpt>
      <trkpt lat="48.19842" lon="-2.98699">
        <ele>147.7</ele>
        <time>2020-08-12T12:10:15Z</time>
      </trkpt>
      <trkpt lat="48.19841" lon="-2.98703">
        <ele>147.7</ele>
        <time>2020-08-12T12:10:39Z</time>
      </trkpt>
      <trkpt lat="48.19846" lon="-2.98704">
        <ele>147.22</ele>
        <time>2020-08-12T12:11:12Z</time>
      </trkpt>
      <trkpt lat="48.19841" lon="-2.98701">
        <ele>147.22</ele>
        <time>2020-08-12T12:11:24Z</time>
      </trkpt>
      <trkpt lat="48.1984" lon="-2.98697">
        <ele>147.22</ele>
        <time>2020-08-12T12:11:26Z</time>
      </trkpt>
      <trkpt lat="48.1984" lon="-2.98694">
        <ele>147.22</ele>
        <time>2020-08-12T12:11:27Z</time>
      </trkpt>
      <trkpt lat="48.19841" lon="-2.9869">
        <ele>146.74</ele>
        <time>2020-08-12T12:11:28Z</time>
      </trkpt>
      <trkpt lat="48.19842" lon="-2.98687">
        <ele>146.74</ele>
        <time>2020-08-12T12:11:29Z</time>
      </trkpt>
      <trkpt lat="48.19844" lon="-2.98684">
        <ele>146.74</ele>
        <time>2020-08-12T12:11:30Z</time>
      </trkpt>
      <trkpt lat="48.19846" lon="-2.98682">
        <ele>146.74</ele>
        <time>2020-08-12T12:11:31Z</time>
      </trkpt>
      <trkpt lat="48.19849" lon="-2.98681">
        <ele>146.74</ele>
        <time>2020-08-12T12:11:32Z</time>
      </trkpt>
      <trkpt lat="48.19851" lon="-2.98681">
        <ele>146.74</ele>
        <time>2020-08-12T12:11:33Z</time>
      </trkpt>
      <trkpt lat="48.19853" lon="-2.98681">
        <ele>146.74</ele>
        <time>2020-08-12T12:11:34Z</time>
      </trkpt>
      <trkpt lat="48.19855" lon="-2.98683">
        <ele>146.74</ele>
        <time>2020-08-12T12:11:35Z</time>
      </trkpt>
      <trkpt lat="48.19857" lon="-2.98684">
        <ele>146.74</ele>
        <time>2020-08-12T12:11:36Z</time>
      </trkpt>
      <trkpt lat="48.19858" lon="-2.98687">
        <ele>146.74</ele>
        <time>2020-08-12T12:11:37Z</time>
      </trkpt>
      <trkpt lat="48.19859" lon="-2.98689">
        <ele>146.74</ele>
        <time>2020-08-12T12:11:38Z</time>
      </trkpt>
      <trkpt lat="48.19861" lon="-2.98694">
        <ele>148.18</ele>
        <time>2020-08-12T12:11:40Z</time>
      </trkpt>
      <trkpt lat="48.19875" lon="-2.9872">
        <ele>148.66</ele>
        <time>2020-08-12T12:11:54Z</time>
      </trkpt>
      <trkpt lat="48.19871" lon="-2.98722">
        <ele>148.66</ele>
        <time>2020-08-12T12:12:15Z</time>
      </trkpt>
      <trkpt lat="48.1987" lon="-2.9872">
        <ele>148.18</ele>
        <time>2020-08-12T12:12:42Z</time>
      </trkpt>
      <trkpt lat="48.19872" lon="-2.98721">
        <ele>148.18</ele>
        <time>2020-08-12T12:13:12Z</time>
      </trkpt>
      <trkpt lat="48.19873" lon="-2.98723">
        <ele>148.18</ele>
        <time>2020-08-12T12:13:42Z</time>
      </trkpt>
      <trkpt lat="48.19873" lon="-2.98722">
        <ele>148.18</ele>
        <time>2020-08-12T12:14:15Z</time>
      </trkpt>
      <trkpt lat="48.19874" lon="-2.98718">
        <ele>148.18</ele>
        <time>2020-08-12T12:14:49Z</time>
      </trkpt>
      <trkpt lat="48.19874" lon="-2.98719">
        <ele>147.7</ele>
        <time>2020-08-12T12:15:13Z</time>
      </trkpt>
      <trkpt lat="48.19874" lon="-2.98721">
        <ele>147.7</ele>
        <time>2020-08-12T12:15:35Z</time>
      </trkpt>
      <trkpt lat="48.19874" lon="-2.98723">
        <ele>147.7</ele>
        <time>2020-08-12T12:16:02Z</time>
      </trkpt>
      <trkpt lat="48.19872" lon="-2.98727">
        <ele>147.7</ele>
        <time>2020-08-12T12:16:07Z</time>
      </trkpt>
      <trkpt lat="48.19871" lon="-2.98728">
        <ele>147.7</ele>
        <time>2020-08-12T12:16:08Z</time>
      </trkpt>
      <trkpt lat="48.1987" lon="-2.9873">
        <ele>147.7</ele>
        <time>2020-08-12T12:16:09Z</time>
      </trkpt>
      <trkpt lat="48.19869" lon="-2.98732">
        <ele>147.7</ele>
        <time>2020-08-12T12:16:10Z</time>
      </trkpt>
      <trkpt lat="48.19868" lon="-2.98734">
        <ele>147.7</ele>
        <time>2020-08-12T12:16:11Z</time>
      </trkpt>
      <trkpt lat="48.19867" lon="-2.98736">
        <ele>147.7</ele>
        <time>2020-08-12T12:16:12Z</time>
      </trkpt>
      <trkpt lat="48.19865" lon="-2.98738">
        <ele>147.7</ele>
        <time>2020-08-12T12:16:13Z</time>
      </trkpt>
      <trkpt lat="48.1986" lon="-2.98743">
        <ele>147.7</ele>
        <time>2020-08-12T12:16:17Z</time>
      </trkpt>
      <trkpt lat="48.19858" lon="-2.98742">
        <ele>147.7</ele>
        <time>2020-08-12T12:16:18Z</time>
      </trkpt>
      <trkpt lat="48.19855" lon="-2.98741">
        <ele>147.7</ele>
        <time>2020-08-12T12:16:19Z</time>
      </trkpt>
      <trkpt lat="48.19853" lon="-2.98738">
        <ele>147.7</ele>
        <time>2020-08-12T12:16:20Z</time>
      </trkpt>
      <trkpt lat="48.19851" lon="-2.98736">
        <ele>146.74</ele>
        <time>2020-08-12T12:16:21Z</time>
      </trkpt>
      <trkpt lat="48.19849" lon="-2.98734">
        <ele>146.74</ele>
        <time>2020-08-12T12:16:22Z</time>
      </trkpt>
      <trkpt lat="48.19848" lon="-2.98732">
        <ele>146.74</ele>
        <time>2020-08-12T12:16:23Z</time>
      </trkpt>
      <trkpt lat="48.19828" lon="-2.98716">
        <ele>145.3</ele>
        <time>2020-08-12T12:16:36Z</time>
      </trkpt>
      <trkpt lat="48.19823" lon="-2.98716">
        <ele>144.34</ele>
        <time>2020-08-12T12:16:53Z</time>
      </trkpt>
      <trkpt lat="48.19821" lon="-2.98716">
        <ele>144.34</ele>
        <time>2020-08-12T12:16:54Z</time>
      </trkpt>
      <trkpt lat="48.19819" lon="-2.98718">
        <ele>144.34</ele>
        <time>2020-08-12T12:16:55Z</time>
      </trkpt>
      <trkpt lat="48.19818" lon="-2.98721">
        <ele>144.34</ele>
        <time>2020-08-12T12:16:56Z</time>
      </trkpt>
      <trkpt lat="48.19816" lon="-2.98724">
        <ele>144.34</ele>
        <time>2020-08-12T12:16:57Z</time>
      </trkpt>
      <trkpt lat="48.19808" lon="-2.98768">
        <ele>144.34</ele>
        <time>2020-08-12T12:17:09Z</time>
      </trkpt>
      <trkpt lat="48.1981" lon="-2.98771">
        <ele>144.34</ele>
        <time>2020-08-12T12:17:10Z</time>
      </trkpt>
      <trkpt lat="48.19813" lon="-2.98773">
        <ele>144.34</ele>
        <time>2020-08-12T12:17:11Z</time>
      </trkpt>
      <trkpt lat="48.19815" lon="-2.98774">
        <ele>144.34</ele>
        <time>2020-08-12T12:17:12Z</time>
      </trkpt>
      <trkpt lat="48.19817" lon="-2.98775">
        <ele>144.34</ele>
        <time>2020-08-12T12:17:13Z</time>
      </trkpt>
      <trkpt lat="48.1982" lon="-2.98776">
        <ele>144.34</ele>
        <time>2020-08-12T12:17:14Z</time>
      </trkpt>
      <trkpt lat="48.19824" lon="-2.98777">
        <ele>145.3</ele>
        <time>2020-08-12T12:17:16Z</time>
      </trkpt>
      <trkpt lat="48.19836" lon="-2.98808">
        <ele>147.22</ele>
        <time>2020-08-12T12:17:28Z</time>
      </trkpt>
      <trkpt lat="48.19834" lon="-2.98862">
        <ele>149.62</ele>
        <time>2020-08-12T12:17:43Z</time>
      </trkpt>
      <trkpt lat="48.19834" lon="-2.98904">
        <ele>151.06</ele>
        <time>2020-08-12T12:17:58Z</time>
      </trkpt>
      <trkpt lat="48.1983" lon="-2.98964">
        <ele>151.06</ele>
        <time>2020-08-12T12:18:12Z</time>
      </trkpt>
      <trkpt lat="48.19823" lon="-2.98985">
        <ele>150.58</ele>
        <time>2020-08-12T12:18:20Z</time>
      </trkpt>
      <trkpt lat="48.19818" lon="-2.98993">
        <ele>150.58</ele>
        <time>2020-08-12T12:18:30Z</time>
      </trkpt>
      <trkpt lat="48.19819" lon="-2.98991">
        <ele>150.58</ele>
        <time>2020-08-12T12:18:56Z</time>
      </trkpt>
      <trkpt lat="48.19819" lon="-2.9899">
        <ele>150.58</ele>
        <time>2020-08-12T12:19:37Z</time>
      </trkpt>
      <trkpt lat="48.19818" lon="-2.9899">
        <ele>150.58</ele>
        <time>2020-08-12T12:20:08Z</time>
      </trkpt>
      <trkpt lat="48.19819" lon="-2.98989">
        <ele>150.58</ele>
        <time>2020-08-12T12:20:40Z</time>
      </trkpt>
      <trkpt lat="48.19819" lon="-2.98991">
        <ele>150.58</ele>
        <time>2020-08-12T12:21:13Z</time>
      </trkpt>
      <trkpt lat="48.19818" lon="-2.98991">
        <ele>150.58</ele>
        <time>2020-08-12T12:21:48Z</time>
      </trkpt>
      <trkpt lat="48.19819" lon="-2.98991">
        <ele>150.58</ele>
        <time>2020-08-12T12:22:19Z</time>
      </trkpt>
      <trkpt lat="48.19821" lon="-2.9899">
        <ele>150.58</ele>
        <time>2020-08-12T12:22:52Z</time>
      </trkpt>
      <trkpt lat="48.1982" lon="-2.98991">
        <ele>150.58</ele>
        <time>2020-08-12T12:23:19Z</time>
      </trkpt>
      <trkpt lat="48.1982" lon="-2.98992">
        <ele>149.14</ele>
        <time>2020-08-12T12:23:53Z</time>
      </trkpt>
      <trkpt lat="48.19821" lon="-2.98991">
        <ele>149.14</ele>
        <time>2020-08-12T12:24:24Z</time>
      </trkpt>
      <trkpt lat="48.19819" lon="-2.98991">
        <ele>149.14</ele>
        <time>2020-08-12T12:24:51Z</time>
      </trkpt>
      <trkpt lat="48.19821" lon="-2.98994">
        <ele>148.66</ele>
        <time>2020-08-12T12:25:21Z</time>
      </trkpt>
      <trkpt lat="48.19818" lon="-2.98992">
        <ele>148.66</ele>
        <time>2020-08-12T12:26:03Z</time>
      </trkpt>
      <trkpt lat="48.19818" lon="-2.98992">
        <ele>148.18</ele>
        <time>2020-08-12T12:26:36Z</time>
      </trkpt>
      <trkpt lat="48.19819" lon="-2.98989">
        <ele>148.18</ele>
        <time>2020-08-12T12:27:14Z</time>
      </trkpt>
      <trkpt lat="48.19817" lon="-2.98993">
        <ele>148.18</ele>
        <time>2020-08-12T12:27:43Z</time>
      </trkpt>
      <trkpt lat="48.19818" lon="-2.9899">
        <ele>147.7</ele>
        <time>2020-08-12T12:28:15Z</time>
      </trkpt>
      <trkpt lat="48.19816" lon="-2.98989">
        <ele>147.7</ele>
        <time>2020-08-12T12:28:45Z</time>
      </trkpt>
      <trkpt lat="48.19819" lon="-2.9899">
        <ele>147.7</ele>
        <time>2020-08-12T12:29:26Z</time>
      </trkpt>
      <trkpt lat="48.19818" lon="-2.98991">
        <ele>147.7</ele>
        <time>2020-08-12T12:29:55Z</time>
      </trkpt>
      <trkpt lat="48.19818" lon="-2.9899">
        <ele>147.7</ele>
        <time>2020-08-12T12:30:25Z</time>
      </trkpt>
      <trkpt lat="48.1982" lon="-2.98991">
        <ele>147.22</ele>
        <time>2020-08-12T12:30:55Z</time>
      </trkpt>
      <trkpt lat="48.19822" lon="-2.98989">
        <ele>147.22</ele>
        <time>2020-08-12T12:31:22Z</time>
      </trkpt>
      <trkpt lat="48.19821" lon="-2.98989">
        <ele>147.22</ele>
        <time>2020-08-12T12:31:42Z</time>
      </trkpt>
      <trkpt lat="48.1982" lon="-2.98988">
        <ele>147.22</ele>
        <time>2020-08-12T12:32:11Z</time>
      </trkpt>
      <trkpt lat="48.1982" lon="-2.98992">
        <ele>147.22</ele>
        <time>2020-08-12T12:32:44Z</time>
      </trkpt>
      <trkpt lat="48.19818" lon="-2.98987">
        <ele>147.7</ele>
        <time>2020-08-12T12:33:16Z</time>
      </trkpt>
      <trkpt lat="48.19818" lon="-2.9899">
        <ele>147.7</ele>
        <time>2020-08-12T12:33:45Z</time>
      </trkpt>
      <trkpt lat="48.19816" lon="-2.9899">
        <ele>147.7</ele>
        <time>2020-08-12T12:34:17Z</time>
      </trkpt>
      <trkpt lat="48.19816" lon="-2.9899">
        <ele>147.7</ele>
        <time>2020-08-12T12:34:46Z</time>
      </trkpt>
      <trkpt lat="48.19817" lon="-2.98992">
        <ele>147.7</ele>
        <time>2020-08-12T12:35:01Z</time>
      </trkpt>
      <trkpt lat="48.19816" lon="-2.98992">
        <ele>147.7</ele>
        <time>2020-08-12T12:35:03Z</time>
      </trkpt>
      <trkpt lat="48.1982" lon="-2.98978">
        <ele>147.7</ele>
        <time>2020-08-12T12:35:13Z</time>
      </trkpt>
      <trkpt lat="48.19826" lon="-2.98978">
        <ele>147.7</ele>
        <time>2020-08-12T12:35:16Z</time>
      </trkpt>
      <trkpt lat="48.19828" lon="-2.98942">
        <ele>147.7</ele>
        <time>2020-08-12T12:35:29Z</time>
      </trkpt>
      <trkpt lat="48.19828" lon="-2.98924">
        <ele>147.7</ele>
        <time>2020-08-12T12:35:35Z</time>
      </trkpt>
      <trkpt lat="48.19823" lon="-2.98921">
        <ele>147.7</ele>
        <time>2020-08-12T12:35:38Z</time>
      </trkpt>
      <trkpt lat="48.19821" lon="-2.98922">
        <ele>147.7</ele>
        <time>2020-08-12T12:35:39Z</time>
      </trkpt>
      <trkpt lat="48.19819" lon="-2.98924">
        <ele>147.7</ele>
        <time>2020-08-12T12:35:40Z</time>
      </trkpt>
      <trkpt lat="48.19817" lon="-2.98926">
        <ele>147.7</ele>
        <time>2020-08-12T12:35:41Z</time>
      </trkpt>
      <trkpt lat="48.19793" lon="-2.98959">
        <ele>146.74</ele>
        <time>2020-08-12T12:35:51Z</time>
      </trkpt>
      <trkpt lat="48.19791" lon="-2.98966">
        <ele>146.74</ele>
        <time>2020-08-12T12:35:52Z</time>
      </trkpt>
      <trkpt lat="48.19791" lon="-2.98972">
        <ele>146.74</ele>
        <time>2020-08-12T12:35:53Z</time>
      </trkpt>
      <trkpt lat="48.1979" lon="-2.98979">
        <ele>146.74</ele>
        <time>2020-08-12T12:35:54Z</time>
      </trkpt>
      <trkpt lat="48.1979" lon="-2.98988">
        <ele>146.26</ele>
        <time>2020-08-12T12:35:55Z</time>
      </trkpt>
      <trkpt lat="48.19784" lon="-2.99092">
        <ele>145.78</ele>
        <time>2020-08-12T12:36:12Z</time>
      </trkpt>
      <trkpt lat="48.19782" lon="-2.99156">
        <ele>145.78</ele>
        <time>2020-08-12T12:36:27Z</time>
      </trkpt>
      <trkpt lat="48.19784" lon="-2.99228">
        <ele>147.22</ele>
        <time>2020-08-12T12:36:46Z</time>
      </trkpt>
      <trkpt lat="48.19785" lon="-2.9923">
        <ele>147.22</ele>
        <time>2020-08-12T12:36:47Z</time>
      </trkpt>
      <trkpt lat="48.19787" lon="-2.99231">
        <ele>147.22</ele>
        <time>2020-08-12T12:36:48Z</time>
      </trkpt>
      <trkpt lat="48.19795" lon="-2.9924">
        <ele>147.7</ele>
        <time>2020-08-12T12:36:53Z</time>
      </trkpt>
      <trkpt lat="48.19797" lon="-2.9929">
        <ele>147.7</ele>
        <time>2020-08-12T12:37:07Z</time>
      </trkpt>
      <trkpt lat="48.198" lon="-2.99355">
        <ele>148.18</ele>
        <time>2020-08-12T12:37:22Z</time>
      </trkpt>
      <trkpt lat="48.19809" lon="-2.99435">
        <ele>149.14</ele>
        <time>2020-08-12T12:37:39Z</time>
      </trkpt>
      <trkpt lat="48.19827" lon="-2.99519">
        <ele>150.1</ele>
        <time>2020-08-12T12:37:58Z</time>
      </trkpt>
      <trkpt lat="48.19843" lon="-2.99588">
        <ele>151.06</ele>
        <time>2020-08-12T12:38:14Z</time>
      </trkpt>
      <trkpt lat="48.19859" lon="-2.99662">
        <ele>152.03</ele>
        <time>2020-08-12T12:38:32Z</time>
      </trkpt>
      <trkpt lat="48.1987" lon="-2.9971">
        <ele>152.99</ele>
        <time>2020-08-12T12:38:44Z</time>
      </trkpt>
      <trkpt lat="48.19884" lon="-2.99768">
        <ele>153.95</ele>
        <time>2020-08-12T12:38:58Z</time>
      </trkpt>
      <trkpt lat="48.199" lon="-2.99825">
        <ele>154.91</ele>
        <time>2020-08-12T12:39:14Z</time>
      </trkpt>
      <trkpt lat="48.19915" lon="-2.99871">
        <ele>155.87</ele>
        <time>2020-08-12T12:39:28Z</time>
      </trkpt>
      <trkpt lat="48.19938" lon="-2.99924">
        <ele>156.83</ele>
        <time>2020-08-12T12:39:42Z</time>
      </trkpt>
      <trkpt lat="48.19964" lon="-2.99971">
        <ele>157.31</ele>
        <time>2020-08-12T12:39:55Z</time>
      </trkpt>
      <trkpt lat="48.19999" lon="-3.00018">
        <ele>158.75</ele>
        <time>2020-08-12T12:40:10Z</time>
      </trkpt>
      <trkpt lat="48.20027" lon="-3.00049">
        <ele>159.24</ele>
        <time>2020-08-12T12:40:22Z</time>
      </trkpt>
      <trkpt lat="48.20063" lon="-3.00081">
        <ele>160.68</ele>
        <time>2020-08-12T12:40:36Z</time>
      </trkpt>
      <trkpt lat="48.20106" lon="-3.0011">
        <ele>161.64</ele>
        <time>2020-08-12T12:40:51Z</time>
      </trkpt>
      <trkpt lat="48.20161" lon="-3.00136">
        <ele>163.08</ele>
        <time>2020-08-12T12:41:06Z</time>
      </trkpt>
      <trkpt lat="48.20213" lon="-3.00148">
        <ele>163.56</ele>
        <time>2020-08-12T12:41:20Z</time>
      </trkpt>
      <trkpt lat="48.20275" lon="-3.00139">
        <ele>163.56</ele>
        <time>2020-08-12T12:41:35Z</time>
      </trkpt>
      <trkpt lat="48.20348" lon="-3.00115">
        <ele>161.64</ele>
        <time>2020-08-12T12:41:53Z</time>
      </trkpt>
      <trkpt lat="48.20409" lon="-3.00084">
        <ele>161.16</ele>
        <time>2020-08-12T12:42:10Z</time>
      </trkpt>
      <trkpt lat="48.20455" lon="-3.00064">
        <ele>160.2</ele>
        <time>2020-08-12T12:42:27Z</time>
      </trkpt>
      <trkpt lat="48.20529" lon="-3.00036">
        <ele>158.75</ele>
        <time>2020-08-12T12:42:49Z</time>
      </trkpt>
      <trkpt lat="48.20533" lon="-3.00035">
        <ele>158.75</ele>
        <time>2020-08-12T12:42:50Z</time>
      </trkpt>
      <trkpt lat="48.20538" lon="-3.00035">
        <ele>158.75</ele>
        <time>2020-08-12T12:42:51Z</time>
      </trkpt>
      <trkpt lat="48.20599" lon="-3.00032">
        <ele>157.31</ele>
        <time>2020-08-12T12:43:04Z</time>
      </trkpt>
      <trkpt lat="48.20651" lon="-3.00041">
        <ele>156.83</ele>
        <time>2020-08-12T12:43:16Z</time>
      </trkpt>
      <trkpt lat="48.20718" lon="-3.00069">
        <ele>155.87</ele>
        <time>2020-08-12T12:43:30Z</time>
      </trkpt>
      <trkpt lat="48.20785" lon="-3.00116">
        <ele>154.43</ele>
        <time>2020-08-12T12:43:45Z</time>
      </trkpt>
      <trkpt lat="48.20851" lon="-3.00189">
        <ele>153.47</ele>
        <time>2020-08-12T12:44:02Z</time>
      </trkpt>
      <trkpt lat="48.20921" lon="-3.0027">
        <ele>152.99</ele>
        <time>2020-08-12T12:44:20Z</time>
      </trkpt>
      <trkpt lat="48.20973" lon="-3.00331">
        <ele>152.99</ele>
        <time>2020-08-12T12:44:35Z</time>
      </trkpt>
      <trkpt lat="48.21021" lon="-3.00386">
        <ele>152.99</ele>
        <time>2020-08-12T12:44:49Z</time>
      </trkpt>
      <trkpt lat="48.21071" lon="-3.00443">
        <ele>154.91</ele>
        <time>2020-08-12T12:45:05Z</time>
      </trkpt>
      <trkpt lat="48.21129" lon="-3.00511">
        <ele>154.91</ele>
        <time>2020-08-12T12:45:23Z</time>
      </trkpt>
      <trkpt lat="48.21173" lon="-3.00563">
        <ele>154.91</ele>
        <time>2020-08-12T12:45:35Z</time>
      </trkpt>
      <trkpt lat="48.21188" lon="-3.00579">
        <ele>153.47</ele>
        <time>2020-08-12T12:45:39Z</time>
      </trkpt>
      <trkpt lat="48.21239" lon="-3.00639">
        <ele>152.99</ele>
        <time>2020-08-12T12:45:54Z</time>
      </trkpt>
      <trkpt lat="48.21281" lon="-3.00689">
        <ele>151.54</ele>
        <time>2020-08-12T12:46:08Z</time>
      </trkpt>
      <trkpt lat="48.21309" lon="-3.00722">
        <ele>150.58</ele>
        <time>2020-08-12T12:46:16Z</time>
      </trkpt>
      <trkpt lat="48.2137" lon="-3.00792">
        <ele>149.62</ele>
        <time>2020-08-12T12:46:34Z</time>
      </trkpt>
      <trkpt lat="48.2143" lon="-3.00862">
        <ele>148.66</ele>
        <time>2020-08-12T12:46:48Z</time>
      </trkpt>
      <trkpt lat="48.2149" lon="-3.00945">
        <ele>148.66</ele>
        <time>2020-08-12T12:47:03Z</time>
      </trkpt>
      <trkpt lat="48.21526" lon="-3.0101">
        <ele>148.66</ele>
        <time>2020-08-12T12:47:16Z</time>
      </trkpt>
      <trkpt lat="48.21554" lon="-3.01065">
        <ele>148.66</ele>
        <time>2020-08-12T12:47:28Z</time>
      </trkpt>
      <trkpt lat="48.21558" lon="-3.01074">
        <ele>148.66</ele>
        <time>2020-08-12T12:47:36Z</time>
      </trkpt>
      <trkpt lat="48.21562" lon="-3.01079">
        <ele>148.66</ele>
        <time>2020-08-12T12:48:08Z</time>
      </trkpt>
      <trkpt lat="48.21564" lon="-3.0108">
        <ele>148.66</ele>
        <time>2020-08-12T12:48:37Z</time>
      </trkpt>
      <trkpt lat="48.21564" lon="-3.0108">
        <ele>148.66</ele>
        <time>2020-08-12T12:49:09Z</time>
      </trkpt>
      <trkpt lat="48.21565" lon="-3.0109">
        <ele>148.66</ele>
        <time>2020-08-12T12:49:44Z</time>
      </trkpt>
      <trkpt lat="48.21576" lon="-3.01141">
        <ele>148.66</ele>
        <time>2020-08-12T12:49:57Z</time>
      </trkpt>
      <trkpt lat="48.21584" lon="-3.01224">
        <ele>148.66</ele>
        <time>2020-08-12T12:50:12Z</time>
      </trkpt>
      <trkpt lat="48.21572" lon="-3.01301">
        <ele>148.66</ele>
        <time>2020-08-12T12:50:26Z</time>
      </trkpt>
      <trkpt lat="48.21552" lon="-3.01367">
        <ele>150.1</ele>
        <time>2020-08-12T12:50:39Z</time>
      </trkpt>
      <trkpt lat="48.21524" lon="-3.01442">
        <ele>150.58</ele>
        <time>2020-08-12T12:50:52Z</time>
      </trkpt>
      <trkpt lat="48.21503" lon="-3.01506">
        <ele>151.54</ele>
        <time>2020-08-12T12:51:05Z</time>
      </trkpt>
      <trkpt lat="48.21488" lon="-3.01565">
        <ele>151.54</ele>
        <time>2020-08-12T12:51:19Z</time>
      </trkpt>
      <trkpt lat="48.21483" lon="-3.01677">
        <ele>152.03</ele>
        <time>2020-08-12T12:51:38Z</time>
      </trkpt>
      <trkpt lat="48.21496" lon="-3.01779">
        <ele>152.99</ele>
        <time>2020-08-12T12:51:56Z</time>
      </trkpt>
      <trkpt lat="48.21513" lon="-3.01895">
        <ele>154.43</ele>
        <time>2020-08-12T12:52:16Z</time>
      </trkpt>
      <trkpt lat="48.21531" lon="-3.02008">
        <ele>156.35</ele>
        <time>2020-08-12T12:52:36Z</time>
      </trkpt>
      <trkpt lat="48.21551" lon="-3.02108">
        <ele>158.27</ele>
        <time>2020-08-12T12:52:55Z</time>
      </trkpt>
      <trkpt lat="48.21579" lon="-3.02183">
        <ele>159.24</ele>
        <time>2020-08-12T12:53:11Z</time>
      </trkpt>
      <trkpt lat="48.21607" lon="-3.02231">
        <ele>160.2</ele>
        <time>2020-08-12T12:53:23Z</time>
      </trkpt>
      <trkpt lat="48.21645" lon="-3.02287">
        <ele>161.64</ele>
        <time>2020-08-12T12:53:38Z</time>
      </trkpt>
      <trkpt lat="48.21678" lon="-3.02336">
        <ele>162.6</ele>
        <time>2020-08-12T12:53:51Z</time>
      </trkpt>
      <trkpt lat="48.21707" lon="-3.02392">
        <ele>163.08</ele>
        <time>2020-08-12T12:54:05Z</time>
      </trkpt>
      <trkpt lat="48.21732" lon="-3.02481">
        <ele>164.04</ele>
        <time>2020-08-12T12:54:21Z</time>
      </trkpt>
      <trkpt lat="48.21739" lon="-3.02561">
        <ele>165.48</ele>
        <time>2020-08-12T12:54:35Z</time>
      </trkpt>
      <trkpt lat="48.21726" lon="-3.02633">
        <ele>166.45</ele>
        <time>2020-08-12T12:54:49Z</time>
      </trkpt>
      <trkpt lat="48.21705" lon="-3.02695">
        <ele>167.41</ele>
        <time>2020-08-12T12:55:01Z</time>
      </trkpt>
      <trkpt lat="48.21689" lon="-3.02738">
        <ele>167.89</ele>
        <time>2020-08-12T12:55:11Z</time>
      </trkpt>
      <trkpt lat="48.21667" lon="-3.02793">
        <ele>169.33</ele>
        <time>2020-08-12T12:55:23Z</time>
      </trkpt>
      <trkpt lat="48.21636" lon="-3.02873">
        <ele>169.81</ele>
        <time>2020-08-12T12:55:37Z</time>
      </trkpt>
      <trkpt lat="48.21603" lon="-3.02961">
        <ele>171.25</ele>
        <time>2020-08-12T12:55:54Z</time>
      </trkpt>
      <trkpt lat="48.2158" lon="-3.03029">
        <ele>172.21</ele>
        <time>2020-08-12T12:56:09Z</time>
      </trkpt>
      <trkpt lat="48.21553" lon="-3.03092">
        <ele>173.17</ele>
        <time>2020-08-12T12:56:22Z</time>
      </trkpt>
      <trkpt lat="48.21528" lon="-3.03177">
        <ele>173.66</ele>
        <time>2020-08-12T12:56:37Z</time>
      </trkpt>
      <trkpt lat="48.21508" lon="-3.03264">
        <ele>174.62</ele>
        <time>2020-08-12T12:56:52Z</time>
      </trkpt>
      <trkpt lat="48.21499" lon="-3.03328">
        <ele>175.1</ele>
        <time>2020-08-12T12:57:03Z</time>
      </trkpt>
      <trkpt lat="48.21494" lon="-3.03423">
        <ele>176.54</ele>
        <time>2020-08-12T12:57:19Z</time>
      </trkpt>
      <trkpt lat="48.21494" lon="-3.03488">
        <ele>177.02</ele>
        <time>2020-08-12T12:57:31Z</time>
      </trkpt>
      <trkpt lat="48.21494" lon="-3.03586">
        <ele>177.5</ele>
        <time>2020-08-12T12:57:48Z</time>
      </trkpt>
      <trkpt lat="48.21481" lon="-3.03638">
        <ele>177.5</ele>
        <time>2020-08-12T12:57:58Z</time>
      </trkpt>
      <trkpt lat="48.21482" lon="-3.03644">
        <ele>177.5</ele>
        <time>2020-08-12T12:57:59Z</time>
      </trkpt>
      <trkpt lat="48.21503" lon="-3.03767">
        <ele>177.5</ele>
        <time>2020-08-12T12:58:19Z</time>
      </trkpt>
      <trkpt lat="48.21517" lon="-3.03807">
        <ele>177.5</ele>
        <time>2020-08-12T12:58:29Z</time>
      </trkpt>
      <trkpt lat="48.21518" lon="-3.03814">
        <ele>177.5</ele>
        <time>2020-08-12T12:58:30Z</time>
      </trkpt>
      <trkpt lat="48.21522" lon="-3.03827">
        <ele>176.06</ele>
        <time>2020-08-12T12:58:32Z</time>
      </trkpt>
      <trkpt lat="48.21541" lon="-3.03932">
        <ele>175.1</ele>
        <time>2020-08-12T12:58:47Z</time>
      </trkpt>
      <trkpt lat="48.21547" lon="-3.03961">
        <ele>176.54</ele>
        <time>2020-08-12T12:58:53Z</time>
      </trkpt>
      <trkpt lat="48.21551" lon="-3.03969">
        <ele>177.98</ele>
        <time>2020-08-12T12:58:59Z</time>
      </trkpt>
      <trkpt lat="48.21553" lon="-3.03969">
        <ele>177.98</ele>
        <time>2020-08-12T12:59:00Z</time>
      </trkpt>
      <trkpt lat="48.21561" lon="-3.03974">
        <ele>177.98</ele>
        <time>2020-08-12T12:59:04Z</time>
      </trkpt>
      <trkpt lat="48.21561" lon="-3.03977">
        <ele>177.98</ele>
        <time>2020-08-12T12:59:05Z</time>
      </trkpt>
      <trkpt lat="48.21562" lon="-3.03981">
        <ele>177.98</ele>
        <time>2020-08-12T12:59:06Z</time>
      </trkpt>
      <trkpt lat="48.21565" lon="-3.04055">
        <ele>177.98</ele>
        <time>2020-08-12T12:59:21Z</time>
      </trkpt>
      <trkpt lat="48.21549" lon="-3.0415">
        <ele>178.46</ele>
        <time>2020-08-12T12:59:39Z</time>
      </trkpt>
      <trkpt lat="48.2153" lon="-3.04216">
        <ele>178.94</ele>
        <time>2020-08-12T12:59:51Z</time>
      </trkpt>
      <trkpt lat="48.21505" lon="-3.04293">
        <ele>178.94</ele>
        <time>2020-08-12T13:00:05Z</time>
      </trkpt>
      <trkpt lat="48.21488" lon="-3.04358">
        <ele>179.42</ele>
        <time>2020-08-12T13:00:17Z</time>
      </trkpt>
      <trkpt lat="48.21477" lon="-3.0446">
        <ele>179.9</ele>
        <time>2020-08-12T13:00:35Z</time>
      </trkpt>
      <trkpt lat="48.21484" lon="-3.04528">
        <ele>180.87</ele>
        <time>2020-08-12T13:00:49Z</time>
      </trkpt>
      <trkpt lat="48.215" lon="-3.04599">
        <ele>181.83</ele>
        <time>2020-08-12T13:01:04Z</time>
      </trkpt>
      <trkpt lat="48.21524" lon="-3.04677">
        <ele>183.27</ele>
        <time>2020-08-12T13:01:20Z</time>
      </trkpt>
      <trkpt lat="48.21547" lon="-3.04755">
        <ele>184.23</ele>
        <time>2020-08-12T13:01:35Z</time>
      </trkpt>
      <trkpt lat="48.21565" lon="-3.04815">
        <ele>185.19</ele>
        <time>2020-08-12T13:01:49Z</time>
      </trkpt>
      <trkpt lat="48.21594" lon="-3.04909">
        <ele>186.63</ele>
        <time>2020-08-12T13:02:09Z</time>
      </trkpt>
      <trkpt lat="48.2162" lon="-3.04994">
        <ele>188.08</ele>
        <time>2020-08-12T13:02:26Z</time>
      </trkpt>
      <trkpt lat="48.21648" lon="-3.05086">
        <ele>189.52</ele>
        <time>2020-08-12T13:02:44Z</time>
      </trkpt>
      <trkpt lat="48.21673" lon="-3.0517">
        <ele>190.96</ele>
        <time>2020-08-12T13:03:00Z</time>
      </trkpt>
      <trkpt lat="48.21689" lon="-3.05226">
        <ele>191.44</ele>
        <time>2020-08-12T13:03:10Z</time>
      </trkpt>
      <trkpt lat="48.21713" lon="-3.05306">
        <ele>192.4</ele>
        <time>2020-08-12T13:03:24Z</time>
      </trkpt>
      <trkpt lat="48.21728" lon="-3.05376">
        <ele>192.88</ele>
        <time>2020-08-12T13:03:37Z</time>
      </trkpt>
      <trkpt lat="48.21729" lon="-3.0544">
        <ele>192.88</ele>
        <time>2020-08-12T13:03:48Z</time>
      </trkpt>
      <trkpt lat="48.21725" lon="-3.05519">
        <ele>194.32</ele>
        <time>2020-08-12T13:04:01Z</time>
      </trkpt>
      <trkpt lat="48.21719" lon="-3.05598">
        <ele>195.28</ele>
        <time>2020-08-12T13:04:16Z</time>
      </trkpt>
      <trkpt lat="48.21713" lon="-3.05662">
        <ele>196.25</ele>
        <time>2020-08-12T13:04:31Z</time>
      </trkpt>
      <trkpt lat="48.21713" lon="-3.05665">
        <ele>196.25</ele>
        <time>2020-08-12T13:04:32Z</time>
      </trkpt>
      <trkpt lat="48.21706" lon="-3.05682">
        <ele>196.25</ele>
        <time>2020-08-12T13:04:46Z</time>
      </trkpt>
      <trkpt lat="48.21705" lon="-3.05692">
        <ele>196.25</ele>
        <time>2020-08-12T13:05:07Z</time>
      </trkpt>
      <trkpt lat="48.21702" lon="-3.05688">
        <ele>196.73</ele>
        <time>2020-08-12T13:05:33Z</time>
      </trkpt>
      <trkpt lat="48.21701" lon="-3.05691">
        <ele>196.73</ele>
        <time>2020-08-12T13:05:54Z</time>
      </trkpt>
      <trkpt lat="48.21696" lon="-3.05693">
        <ele>196.73</ele>
        <time>2020-08-12T13:06:22Z</time>
      </trkpt>
      <trkpt lat="48.21698" lon="-3.05693">
        <ele>196.73</ele>
        <time>2020-08-12T13:06:39Z</time>
      </trkpt>
      <trkpt lat="48.21699" lon="-3.05701">
        <ele>196.73</ele>
        <time>2020-08-12T13:06:55Z</time>
      </trkpt>
      <trkpt lat="48.21696" lon="-3.0573">
        <ele>197.69</ele>
        <time>2020-08-12T13:07:07Z</time>
      </trkpt>
      <trkpt lat="48.21682" lon="-3.05785">
        <ele>198.65</ele>
        <time>2020-08-12T13:07:20Z</time>
      </trkpt>
      <trkpt lat="48.21661" lon="-3.05848">
        <ele>199.13</ele>
        <time>2020-08-12T13:07:33Z</time>
      </trkpt>
      <trkpt lat="48.21629" lon="-3.05927">
        <ele>200.57</ele>
        <time>2020-08-12T13:07:48Z</time>
      </trkpt>
      <trkpt lat="48.21595" lon="-3.05995">
        <ele>202.01</ele>
        <time>2020-08-12T13:08:04Z</time>
      </trkpt>
      <trkpt lat="48.21564" lon="-3.0605">
        <ele>202.98</ele>
        <time>2020-08-12T13:08:19Z</time>
      </trkpt>
      <trkpt lat="48.21544" lon="-3.06097">
        <ele>204.42</ele>
        <time>2020-08-12T13:08:31Z</time>
      </trkpt>
      <trkpt lat="48.21534" lon="-3.06162">
        <ele>205.38</ele>
        <time>2020-08-12T13:08:44Z</time>
      </trkpt>
      <trkpt lat="48.21523" lon="-3.06231">
        <ele>206.34</ele>
        <time>2020-08-12T13:08:57Z</time>
      </trkpt>
      <trkpt lat="48.21518" lon="-3.06302">
        <ele>206.82</ele>
        <time>2020-08-12T13:09:09Z</time>
      </trkpt>
      <trkpt lat="48.21522" lon="-3.06399">
        <ele>207.3</ele>
        <time>2020-08-12T13:09:24Z</time>
      </trkpt>
      <trkpt lat="48.2154" lon="-3.06488">
        <ele>207.3</ele>
        <time>2020-08-12T13:09:40Z</time>
      </trkpt>
      <trkpt lat="48.2156" lon="-3.06534">
        <ele>207.78</ele>
        <time>2020-08-12T13:09:51Z</time>
      </trkpt>
      <trkpt lat="48.21604" lon="-3.06604">
        <ele>207.78</ele>
        <time>2020-08-12T13:10:07Z</time>
      </trkpt>
      <trkpt lat="48.21651" lon="-3.06667">
        <ele>207.78</ele>
        <time>2020-08-12T13:10:20Z</time>
      </trkpt>
      <trkpt lat="48.21674" lon="-3.067">
        <ele>207.78</ele>
        <time>2020-08-12T13:10:26Z</time>
      </trkpt>
      <trkpt lat="48.21685" lon="-3.06716">
        <ele>206.34</ele>
        <time>2020-08-12T13:10:29Z</time>
      </trkpt>
      <trkpt lat="48.21751" lon="-3.06804">
        <ele>206.34</ele>
        <time>2020-08-12T13:10:46Z</time>
      </trkpt>
      <trkpt lat="48.21791" lon="-3.06874">
        <ele>205.86</ele>
        <time>2020-08-12T13:10:59Z</time>
      </trkpt>
      <trkpt lat="48.21833" lon="-3.06989">
        <ele>204.42</ele>
        <time>2020-08-12T13:11:16Z</time>
      </trkpt>
      <trkpt lat="48.21854" lon="-3.07106">
        <ele>204.9</ele>
        <time>2020-08-12T13:11:32Z</time>
      </trkpt>
      <trkpt lat="48.21856" lon="-3.07121">
        <ele>204.9</ele>
        <time>2020-08-12T13:11:34Z</time>
      </trkpt>
      <trkpt lat="48.21859" lon="-3.07227">
        <ele>204.42</ele>
        <time>2020-08-12T13:11:48Z</time>
      </trkpt>
      <trkpt lat="48.21857" lon="-3.07274">
        <ele>204.42</ele>
        <time>2020-08-12T13:11:54Z</time>
      </trkpt>
      <trkpt lat="48.21857" lon="-3.07281">
        <ele>204.42</ele>
        <time>2020-08-12T13:11:55Z</time>
      </trkpt>
      <trkpt lat="48.21849" lon="-3.07398">
        <ele>204.42</ele>
        <time>2020-08-12T13:12:11Z</time>
      </trkpt>
      <trkpt lat="48.21845" lon="-3.07538">
        <ele>203.94</ele>
        <time>2020-08-12T13:12:29Z</time>
      </trkpt>
      <trkpt lat="48.21857" lon="-3.07664">
        <ele>205.38</ele>
        <time>2020-08-12T13:12:46Z</time>
      </trkpt>
      <trkpt lat="48.21881" lon="-3.07793">
        <ele>205.38</ele>
        <time>2020-08-12T13:13:03Z</time>
      </trkpt>
      <trkpt lat="48.21907" lon="-3.07948">
        <ele>205.38</ele>
        <time>2020-08-12T13:13:23Z</time>
      </trkpt>
      <trkpt lat="48.21916" lon="-3.08071">
        <ele>204.42</ele>
        <time>2020-08-12T13:13:39Z</time>
      </trkpt>
      <trkpt lat="48.21916" lon="-3.08108">
        <ele>203.94</ele>
        <time>2020-08-12T13:13:44Z</time>
      </trkpt>
      <trkpt lat="48.21909" lon="-3.08209">
        <ele>202.98</ele>
        <time>2020-08-12T13:13:58Z</time>
      </trkpt>
      <trkpt lat="48.21908" lon="-3.08216">
        <ele>202.98</ele>
        <time>2020-08-12T13:13:59Z</time>
      </trkpt>
      <trkpt lat="48.21895" lon="-3.08279">
        <ele>202.49</ele>
        <time>2020-08-12T13:14:12Z</time>
      </trkpt>
      <trkpt lat="48.2188" lon="-3.08334">
        <ele>202.01</ele>
        <time>2020-08-12T13:14:22Z</time>
      </trkpt>
      <trkpt lat="48.21847" lon="-3.08443">
        <ele>202.01</ele>
        <time>2020-08-12T13:14:38Z</time>
      </trkpt>
      <trkpt lat="48.21832" lon="-3.08489">
        <ele>202.01</ele>
        <time>2020-08-12T13:14:46Z</time>
      </trkpt>
      <trkpt lat="48.2183" lon="-3.08496">
        <ele>202.01</ele>
        <time>2020-08-12T13:14:47Z</time>
      </trkpt>
      <trkpt lat="48.21828" lon="-3.08502">
        <ele>202.01</ele>
        <time>2020-08-12T13:14:48Z</time>
      </trkpt>
      <trkpt lat="48.21826" lon="-3.08508">
        <ele>202.01</ele>
        <time>2020-08-12T13:14:49Z</time>
      </trkpt>
      <trkpt lat="48.21824" lon="-3.08514">
        <ele>202.01</ele>
        <time>2020-08-12T13:14:50Z</time>
      </trkpt>
      <trkpt lat="48.21802" lon="-3.08578">
        <ele>202.01</ele>
        <time>2020-08-12T13:15:04Z</time>
      </trkpt>
      <trkpt lat="48.21783" lon="-3.08627">
        <ele>201.53</ele>
        <time>2020-08-12T13:15:17Z</time>
      </trkpt>
      <trkpt lat="48.21763" lon="-3.08697">
        <ele>201.53</ele>
        <time>2020-08-12T13:15:29Z</time>
      </trkpt>
      <trkpt lat="48.21748" lon="-3.08794">
        <ele>201.05</ele>
        <time>2020-08-12T13:15:43Z</time>
      </trkpt>
      <trkpt lat="48.21744" lon="-3.08905">
        <ele>200.57</ele>
        <time>2020-08-12T13:15:57Z</time>
      </trkpt>
      <trkpt lat="48.21754" lon="-3.09012">
        <ele>199.61</ele>
        <time>2020-08-12T13:16:10Z</time>
      </trkpt>
      <trkpt lat="48.21775" lon="-3.09141">
        <ele>198.17</ele>
        <time>2020-08-12T13:16:25Z</time>
      </trkpt>
      <trkpt lat="48.21778" lon="-3.09156">
        <ele>198.17</ele>
        <time>2020-08-12T13:16:27Z</time>
      </trkpt>
      <trkpt lat="48.2178" lon="-3.09163">
        <ele>198.17</ele>
        <time>2020-08-12T13:16:28Z</time>
      </trkpt>
      <trkpt lat="48.21802" lon="-3.09301">
        <ele>196.73</ele>
        <time>2020-08-12T13:16:45Z</time>
      </trkpt>
      <trkpt lat="48.21809" lon="-3.0944">
        <ele>194.8</ele>
        <time>2020-08-12T13:17:00Z</time>
      </trkpt>
      <trkpt lat="48.21799" lon="-3.0956">
        <ele>193.84</ele>
        <time>2020-08-12T13:17:13Z</time>
      </trkpt>
      <trkpt lat="48.21773" lon="-3.09679">
        <ele>191.44</ele>
        <time>2020-08-12T13:17:27Z</time>
      </trkpt>
      <trkpt lat="48.21721" lon="-3.09839">
        <ele>189.52</ele>
        <time>2020-08-12T13:17:45Z</time>
      </trkpt>
      <trkpt lat="48.2167" lon="-3.10003">
        <ele>188.56</ele>
        <time>2020-08-12T13:18:05Z</time>
      </trkpt>
      <trkpt lat="48.21628" lon="-3.10134">
        <ele>187.59</ele>
        <time>2020-08-12T13:18:21Z</time>
      </trkpt>
      <trkpt lat="48.21581" lon="-3.10276">
        <ele>185.67</ele>
        <time>2020-08-12T13:18:38Z</time>
      </trkpt>
      <trkpt lat="48.21552" lon="-3.10349">
        <ele>185.67</ele>
        <time>2020-08-12T13:18:52Z</time>
      </trkpt>
      <trkpt lat="48.21519" lon="-3.1041">
        <ele>184.71</ele>
        <time>2020-08-12T13:19:04Z</time>
      </trkpt>
      <trkpt lat="48.21453" lon="-3.10528">
        <ele>184.23</ele>
        <time>2020-08-12T13:19:22Z</time>
      </trkpt>
      <trkpt lat="48.21431" lon="-3.10562">
        <ele>183.27</ele>
        <time>2020-08-12T13:19:28Z</time>
      </trkpt>
      <trkpt lat="48.21428" lon="-3.10568">
        <ele>183.27</ele>
        <time>2020-08-12T13:19:29Z</time>
      </trkpt>
      <trkpt lat="48.214" lon="-3.10617">
        <ele>184.23</ele>
        <time>2020-08-12T13:19:38Z</time>
      </trkpt>
      <trkpt lat="48.21371" lon="-3.10675">
        <ele>185.19</ele>
        <time>2020-08-12T13:19:50Z</time>
      </trkpt>
      <trkpt lat="48.21368" lon="-3.1068">
        <ele>184.71</ele>
        <time>2020-08-12T13:19:51Z</time>
      </trkpt>
      <trkpt lat="48.21365" lon="-3.10683">
        <ele>184.71</ele>
        <time>2020-08-12T13:19:52Z</time>
      </trkpt>
      <trkpt lat="48.21363" lon="-3.10685">
        <ele>184.71</ele>
        <time>2020-08-12T13:19:53Z</time>
      </trkpt>
      <trkpt lat="48.2136" lon="-3.10688">
        <ele>184.71</ele>
        <time>2020-08-12T13:19:54Z</time>
      </trkpt>
      <trkpt lat="48.21358" lon="-3.1069">
        <ele>184.23</ele>
        <time>2020-08-12T13:19:55Z</time>
      </trkpt>
      <trkpt lat="48.21357" lon="-3.10694">
        <ele>184.23</ele>
        <time>2020-08-12T13:19:56Z</time>
      </trkpt>
      <trkpt lat="48.21355" lon="-3.10699">
        <ele>184.23</ele>
        <time>2020-08-12T13:19:57Z</time>
      </trkpt>
      <trkpt lat="48.21342" lon="-3.10781">
        <ele>181.35</ele>
        <time>2020-08-12T13:20:10Z</time>
      </trkpt>
      <trkpt lat="48.21334" lon="-3.10868">
        <ele>179.42</ele>
        <time>2020-08-12T13:20:21Z</time>
      </trkpt>
      <trkpt lat="48.21339" lon="-3.10906">
        <ele>177.98</ele>
        <time>2020-08-12T13:20:29Z</time>
      </trkpt>
      <trkpt lat="48.21342" lon="-3.10909">
        <ele>177.02</ele>
        <time>2020-08-12T13:20:30Z</time>
      </trkpt>
      <trkpt lat="48.21359" lon="-3.10929">
        <ele>175.58</ele>
        <time>2020-08-12T13:20:40Z</time>
      </trkpt>
      <trkpt lat="48.21365" lon="-3.10939">
        <ele>175.58</ele>
        <time>2020-08-12T13:20:42Z</time>
      </trkpt>
      <trkpt lat="48.21372" lon="-3.10948">
        <ele>175.1</ele>
        <time>2020-08-12T13:20:44Z</time>
      </trkpt>
      <trkpt lat="48.21375" lon="-3.10953">
        <ele>175.1</ele>
        <time>2020-08-12T13:20:45Z</time>
      </trkpt>
      <trkpt lat="48.21382" lon="-3.10967">
        <ele>176.54</ele>
        <time>2020-08-12T13:20:48Z</time>
      </trkpt>
      <trkpt lat="48.2142" lon="-3.11039">
        <ele>175.1</ele>
        <time>2020-08-12T13:21:02Z</time>
      </trkpt>
      <trkpt lat="48.21423" lon="-3.11044">
        <ele>175.1</ele>
        <time>2020-08-12T13:21:03Z</time>
      </trkpt>
      <trkpt lat="48.21461" lon="-3.11112">
        <ele>174.62</ele>
        <time>2020-08-12T13:21:15Z</time>
      </trkpt>
      <trkpt lat="48.21479" lon="-3.1115">
        <ele>173.66</ele>
        <time>2020-08-12T13:21:25Z</time>
      </trkpt>
      <trkpt lat="48.21481" lon="-3.11156">
        <ele>173.66</ele>
        <time>2020-08-12T13:21:26Z</time>
      </trkpt>
      <trkpt lat="48.21486" lon="-3.11169">
        <ele>173.66</ele>
        <time>2020-08-12T13:21:28Z</time>
      </trkpt>
      <trkpt lat="48.21488" lon="-3.11175">
        <ele>173.17</ele>
        <time>2020-08-12T13:21:29Z</time>
      </trkpt>
      <trkpt lat="48.21491" lon="-3.11183">
        <ele>173.17</ele>
        <time>2020-08-12T13:21:30Z</time>
      </trkpt>
      <trkpt lat="48.21493" lon="-3.11189">
        <ele>173.17</ele>
        <time>2020-08-12T13:21:31Z</time>
      </trkpt>
      <trkpt lat="48.21495" lon="-3.11196">
        <ele>173.17</ele>
        <time>2020-08-12T13:21:32Z</time>
      </trkpt>
      <trkpt lat="48.21497" lon="-3.11204">
        <ele>173.17</ele>
        <time>2020-08-12T13:21:33Z</time>
      </trkpt>
      <trkpt lat="48.21499" lon="-3.11212">
        <ele>173.17</ele>
        <time>2020-08-12T13:21:34Z</time>
      </trkpt>
      <trkpt lat="48.21513" lon="-3.1134">
        <ele>171.25</ele>
        <time>2020-08-12T13:21:50Z</time>
      </trkpt>
      <trkpt lat="48.21521" lon="-3.11462">
        <ele>169.81</ele>
        <time>2020-08-12T13:22:05Z</time>
      </trkpt>
      <trkpt lat="48.21542" lon="-3.11606">
        <ele>166.93</ele>
        <time>2020-08-12T13:22:21Z</time>
      </trkpt>
      <trkpt lat="48.2157" lon="-3.11715">
        <ele>165.96</ele>
        <time>2020-08-12T13:22:34Z</time>
      </trkpt>
      <trkpt lat="48.21601" lon="-3.11803">
        <ele>164.52</ele>
        <time>2020-08-12T13:22:45Z</time>
      </trkpt>
      <trkpt lat="48.21626" lon="-3.11863">
        <ele>163.56</ele>
        <time>2020-08-12T13:22:54Z</time>
      </trkpt>
      <trkpt lat="48.21636" lon="-3.11884">
        <ele>163.08</ele>
        <time>2020-08-12T13:22:58Z</time>
      </trkpt>
      <trkpt lat="48.21639" lon="-3.1189">
        <ele>163.08</ele>
        <time>2020-08-12T13:22:59Z</time>
      </trkpt>
      <trkpt lat="48.21654" lon="-3.11922">
        <ele>162.12</ele>
        <time>2020-08-12T13:23:04Z</time>
      </trkpt>
      <trkpt lat="48.21694" lon="-3.1199">
        <ele>161.16</ele>
        <time>2020-08-12T13:23:15Z</time>
      </trkpt>
      <trkpt lat="48.21709" lon="-3.12014">
        <ele>161.16</ele>
        <time>2020-08-12T13:23:18Z</time>
      </trkpt>
      <trkpt lat="48.21773" lon="-3.12118">
        <ele>159.24</ele>
        <time>2020-08-12T13:23:32Z</time>
      </trkpt>
      <trkpt lat="48.21814" lon="-3.12201">
        <ele>158.27</ele>
        <time>2020-08-12T13:23:44Z</time>
      </trkpt>
      <trkpt lat="48.2184" lon="-3.12304">
        <ele>157.31</ele>
        <time>2020-08-12T13:23:57Z</time>
      </trkpt>
      <trkpt lat="48.21841" lon="-3.12368">
        <ele>156.35</ele>
        <time>2020-08-12T13:24:11Z</time>
      </trkpt>
      <trkpt lat="48.21832" lon="-3.12423">
        <ele>154.91</ele>
        <time>2020-08-12T13:24:23Z</time>
      </trkpt>
      <trkpt lat="48.21817" lon="-3.12468">
        <ele>154.43</ele>
        <time>2020-08-12T13:24:32Z</time>
      </trkpt>
      <trkpt lat="48.21814" lon="-3.12474">
        <ele>154.43</ele>
        <time>2020-08-12T13:24:33Z</time>
      </trkpt>
      <trkpt lat="48.218" lon="-3.12501">
        <ele>154.43</ele>
        <time>2020-08-12T13:24:38Z</time>
      </trkpt>
      <trkpt lat="48.21793" lon="-3.12512">
        <ele>153.95</ele>
        <time>2020-08-12T13:24:40Z</time>
      </trkpt>
      <trkpt lat="48.2179" lon="-3.12518">
        <ele>153.95</ele>
        <time>2020-08-12T13:24:41Z</time>
      </trkpt>
      <trkpt lat="48.2177" lon="-3.12554">
        <ele>153.95</ele>
        <time>2020-08-12T13:24:47Z</time>
      </trkpt>
      <trkpt lat="48.21767" lon="-3.12561">
        <ele>153.47</ele>
        <time>2020-08-12T13:24:48Z</time>
      </trkpt>
      <trkpt lat="48.21764" lon="-3.12567">
        <ele>153.47</ele>
        <time>2020-08-12T13:24:49Z</time>
      </trkpt>
      <trkpt lat="48.21741" lon="-3.12612">
        <ele>152.99</ele>
        <time>2020-08-12T13:24:56Z</time>
      </trkpt>
      <trkpt lat="48.21727" lon="-3.12644">
        <ele>152.99</ele>
        <time>2020-08-12T13:25:01Z</time>
      </trkpt>
      <trkpt lat="48.21695" lon="-3.12722">
        <ele>152.03</ele>
        <time>2020-08-12T13:25:14Z</time>
      </trkpt>
      <trkpt lat="48.2167" lon="-3.12788">
        <ele>151.54</ele>
        <time>2020-08-12T13:25:25Z</time>
      </trkpt>
      <trkpt lat="48.21636" lon="-3.12841">
        <ele>150.58</ele>
        <time>2020-08-12T13:25:37Z</time>
      </trkpt>
      <trkpt lat="48.2161" lon="-3.12875">
        <ele>150.1</ele>
        <time>2020-08-12T13:25:46Z</time>
      </trkpt>
      <trkpt lat="48.21608" lon="-3.12876">
        <ele>150.1</ele>
        <time>2020-08-12T13:25:47Z</time>
      </trkpt>
      <trkpt lat="48.21606" lon="-3.12876">
        <ele>150.1</ele>
        <time>2020-08-12T13:25:48Z</time>
      </trkpt>
      <trkpt lat="48.21605" lon="-3.12875">
        <ele>149.62</ele>
        <time>2020-08-12T13:25:49Z</time>
      </trkpt>
      <trkpt lat="48.21604" lon="-3.12874">
        <ele>149.62</ele>
        <time>2020-08-12T13:25:50Z</time>
      </trkpt>
      <trkpt lat="48.21603" lon="-3.1287">
        <ele>149.62</ele>
        <time>2020-08-12T13:25:51Z</time>
      </trkpt>
      <trkpt lat="48.21603" lon="-3.12865">
        <ele>149.14</ele>
        <time>2020-08-12T13:25:52Z</time>
      </trkpt>
      <trkpt lat="48.21604" lon="-3.12859">
        <ele>148.66</ele>
        <time>2020-08-12T13:25:53Z</time>
      </trkpt>
      <trkpt lat="48.21606" lon="-3.12831">
        <ele>146.26</ele>
        <time>2020-08-12T13:25:57Z</time>
      </trkpt>
      <trkpt lat="48.21606" lon="-3.12824">
        <ele>145.3</ele>
        <time>2020-08-12T13:25:58Z</time>
      </trkpt>
      <trkpt lat="48.21605" lon="-3.12818">
        <ele>144.34</ele>
        <time>2020-08-12T13:25:59Z</time>
      </trkpt>
      <trkpt lat="48.21603" lon="-3.12813">
        <ele>143.85</ele>
        <time>2020-08-12T13:26:00Z</time>
      </trkpt>
      <trkpt lat="48.21601" lon="-3.12808">
        <ele>143.37</ele>
        <time>2020-08-12T13:26:01Z</time>
      </trkpt>
      <trkpt lat="48.21597" lon="-3.12804">
        <ele>142.41</ele>
        <time>2020-08-12T13:26:02Z</time>
      </trkpt>
      <trkpt lat="48.21593" lon="-3.12802">
        <ele>141.93</ele>
        <time>2020-08-12T13:26:03Z</time>
      </trkpt>
      <trkpt lat="48.21589" lon="-3.12801">
        <ele>141.45</ele>
        <time>2020-08-12T13:26:04Z</time>
      </trkpt>
      <trkpt lat="48.21584" lon="-3.12799">
        <ele>140.97</ele>
        <time>2020-08-12T13:26:05Z</time>
      </trkpt>
      <trkpt lat="48.21578" lon="-3.12799">
        <ele>140.49</ele>
        <time>2020-08-12T13:26:06Z</time>
      </trkpt>
      <trkpt lat="48.21572" lon="-3.12798">
        <ele>140.01</ele>
        <time>2020-08-12T13:26:07Z</time>
      </trkpt>
      <trkpt lat="48.21508" lon="-3.12802">
        <ele>137.61</ele>
        <time>2020-08-12T13:26:18Z</time>
      </trkpt>
      <trkpt lat="48.21496" lon="-3.12802">
        <ele>137.13</ele>
        <time>2020-08-12T13:26:25Z</time>
      </trkpt>
      <trkpt lat="48.21495" lon="-3.12801">
        <ele>137.13</ele>
        <time>2020-08-12T13:26:26Z</time>
      </trkpt>
      <trkpt lat="48.21494" lon="-3.128">
        <ele>137.13</ele>
        <time>2020-08-12T13:26:27Z</time>
      </trkpt>
      <trkpt lat="48.21494" lon="-3.12797">
        <ele>137.13</ele>
        <time>2020-08-12T13:26:28Z</time>
      </trkpt>
      <trkpt lat="48.21494" lon="-3.12796">
        <ele>137.13</ele>
        <time>2020-08-12T13:26:29Z</time>
      </trkpt>
      <trkpt lat="48.21494" lon="-3.12794">
        <ele>137.13</ele>
        <time>2020-08-12T13:26:30Z</time>
      </trkpt>
      <trkpt lat="48.21494" lon="-3.12791">
        <ele>137.13</ele>
        <time>2020-08-12T13:26:31Z</time>
      </trkpt>
      <trkpt lat="48.21493" lon="-3.12788">
        <ele>137.13</ele>
        <time>2020-08-12T13:26:32Z</time>
      </trkpt>
      <trkpt lat="48.21493" lon="-3.12786">
        <ele>137.13</ele>
        <time>2020-08-12T13:26:33Z</time>
      </trkpt>
      <trkpt lat="48.21492" lon="-3.12783">
        <ele>137.13</ele>
        <time>2020-08-12T13:26:34Z</time>
      </trkpt>
      <trkpt lat="48.21492" lon="-3.12781">
        <ele>137.13</ele>
        <time>2020-08-12T13:26:35Z</time>
      </trkpt>
      <trkpt lat="48.2149" lon="-3.12775">
        <ele>136.64</ele>
        <time>2020-08-12T13:26:48Z</time>
      </trkpt>
      <trkpt lat="48.21485" lon="-3.12725">
        <ele>136.64</ele>
        <time>2020-08-12T13:27:00Z</time>
      </trkpt>
      <trkpt lat="48.21476" lon="-3.12677">
        <ele>136.64</ele>
        <time>2020-08-12T13:27:11Z</time>
      </trkpt>
      <trkpt lat="48.21475" lon="-3.12675">
        <ele>136.64</ele>
        <time>2020-08-12T13:27:12Z</time>
      </trkpt>
      <trkpt lat="48.21472" lon="-3.12674">
        <ele>136.64</ele>
        <time>2020-08-12T13:27:13Z</time>
      </trkpt>
      <trkpt lat="48.2147" lon="-3.12672">
        <ele>136.64</ele>
        <time>2020-08-12T13:27:14Z</time>
      </trkpt>
      <trkpt lat="48.21467" lon="-3.12671">
        <ele>136.64</ele>
        <time>2020-08-12T13:27:15Z</time>
      </trkpt>
      <trkpt lat="48.21437" lon="-3.12693">
        <ele>135.68</ele>
        <time>2020-08-12T13:27:25Z</time>
      </trkpt>
      <trkpt lat="48.21381" lon="-3.12757">
        <ele>134.24</ele>
        <time>2020-08-12T13:27:41Z</time>
      </trkpt>
      <trkpt lat="48.21328" lon="-3.12818">
        <ele>133.28</ele>
        <time>2020-08-12T13:27:58Z</time>
      </trkpt>
      <trkpt lat="48.21327" lon="-3.12822">
        <ele>133.28</ele>
        <time>2020-08-12T13:27:59Z</time>
      </trkpt>
      <trkpt lat="48.21327" lon="-3.12826">
        <ele>133.28</ele>
        <time>2020-08-12T13:28:00Z</time>
      </trkpt>
      <trkpt lat="48.21327" lon="-3.12828">
        <ele>133.28</ele>
        <time>2020-08-12T13:28:01Z</time>
      </trkpt>
      <trkpt lat="48.21326" lon="-3.12831">
        <ele>133.28</ele>
        <time>2020-08-12T13:28:14Z</time>
      </trkpt>
      <trkpt lat="48.21325" lon="-3.12831">
        <ele>133.28</ele>
        <time>2020-08-12T13:28:36Z</time>
      </trkpt>
      <trkpt lat="48.21325" lon="-3.12832">
        <ele>133.28</ele>
        <time>2020-08-12T13:28:59Z</time>
      </trkpt>
      <trkpt lat="48.21327" lon="-3.12831">
        <ele>133.28</ele>
        <time>2020-08-12T13:29:19Z</time>
      </trkpt>
      <trkpt lat="48.21326" lon="-3.12829">
        <ele>133.28</ele>
        <time>2020-08-12T13:29:34Z</time>
      </trkpt>
      <trkpt lat="48.21325" lon="-3.1283">
        <ele>133.28</ele>
        <time>2020-08-12T13:30:00Z</time>
      </trkpt>
      <trkpt lat="48.21323" lon="-3.12829">
        <ele>133.28</ele>
        <time>2020-08-12T13:30:25Z</time>
      </trkpt>
      <trkpt lat="48.21324" lon="-3.12827">
        <ele>133.28</ele>
        <time>2020-08-12T13:30:51Z</time>
      </trkpt>
      <trkpt lat="48.21324" lon="-3.12831">
        <ele>133.28</ele>
        <time>2020-08-12T13:31:12Z</time>
      </trkpt>
      <trkpt lat="48.21325" lon="-3.1283">
        <ele>133.28</ele>
        <time>2020-08-12T13:31:39Z</time>
      </trkpt>
      <trkpt lat="48.21325" lon="-3.12831">
        <ele>133.28</ele>
        <time>2020-08-12T13:32:04Z</time>
      </trkpt>
      <trkpt lat="48.21327" lon="-3.12833">
        <ele>133.28</ele>
        <time>2020-08-12T13:32:27Z</time>
      </trkpt>
      <trkpt lat="48.21327" lon="-3.12837">
        <ele>133.28</ele>
        <time>2020-08-12T13:32:51Z</time>
      </trkpt>
      <trkpt lat="48.21327" lon="-3.12837">
        <ele>132.8</ele>
        <time>2020-08-12T13:33:13Z</time>
      </trkpt>
      <trkpt lat="48.21326" lon="-3.12835">
        <ele>132.8</ele>
        <time>2020-08-12T13:33:35Z</time>
      </trkpt>
      <trkpt lat="48.21326" lon="-3.12833">
        <ele>132.8</ele>
        <time>2020-08-12T13:34:01Z</time>
      </trkpt>
      <trkpt lat="48.21323" lon="-3.12833">
        <ele>132.8</ele>
        <time>2020-08-12T13:34:18Z</time>
      </trkpt>
      <trkpt lat="48.21322" lon="-3.12832">
        <ele>132.8</ele>
        <time>2020-08-12T13:34:23Z</time>
      </trkpt>
      <trkpt lat="48.21321" lon="-3.12831">
        <ele>132.8</ele>
        <time>2020-08-12T13:34:24Z</time>
      </trkpt>
      <trkpt lat="48.2132" lon="-3.1283">
        <ele>132.8</ele>
        <time>2020-08-12T13:34:25Z</time>
      </trkpt>
      <trkpt lat="48.21319" lon="-3.12829">
        <ele>132.8</ele>
        <time>2020-08-12T13:34:26Z</time>
      </trkpt>
      <trkpt lat="48.21318" lon="-3.12828">
        <ele>132.8</ele>
        <time>2020-08-12T13:34:27Z</time>
      </trkpt>
      <trkpt lat="48.213" lon="-3.12814">
        <ele>132.8</ele>
        <time>2020-08-12T13:34:41Z</time>
      </trkpt>
      <trkpt lat="48.21297" lon="-3.12812">
        <ele>134.24</ele>
        <time>2020-08-12T13:34:43Z</time>
      </trkpt>
      <trkpt lat="48.21274" lon="-3.12795">
        <ele>135.2</ele>
        <time>2020-08-12T13:34:56Z</time>
      </trkpt>
      <trkpt lat="48.21237" lon="-3.12769">
        <ele>136.64</ele>
        <time>2020-08-12T13:35:12Z</time>
      </trkpt>
      <trkpt lat="48.21215" lon="-3.12753">
        <ele>137.13</ele>
        <time>2020-08-12T13:35:25Z</time>
      </trkpt>
      <trkpt lat="48.21206" lon="-3.12745">
        <ele>137.61</ele>
        <time>2020-08-12T13:35:38Z</time>
      </trkpt>
      <trkpt lat="48.21191" lon="-3.12724">
        <ele>137.13</ele>
        <time>2020-08-12T13:35:56Z</time>
      </trkpt>
      <trkpt lat="48.21191" lon="-3.12723">
        <ele>137.13</ele>
        <time>2020-08-12T13:35:57Z</time>
      </trkpt>
      <trkpt lat="48.21188" lon="-3.12722">
        <ele>137.13</ele>
        <time>2020-08-12T13:36:07Z</time>
      </trkpt>
      <trkpt lat="48.21189" lon="-3.12722">
        <ele>137.13</ele>
        <time>2020-08-12T13:36:30Z</time>
      </trkpt>
      <trkpt lat="48.2119" lon="-3.12722">
        <ele>137.13</ele>
        <time>2020-08-12T13:36:53Z</time>
      </trkpt>
      <trkpt lat="48.21189" lon="-3.12723">
        <ele>137.13</ele>
        <time>2020-08-12T13:37:21Z</time>
      </trkpt>
      <trkpt lat="48.21189" lon="-3.12726">
        <ele>137.13</ele>
        <time>2020-08-12T13:37:49Z</time>
      </trkpt>
      <trkpt lat="48.21188" lon="-3.12725">
        <ele>137.13</ele>
        <time>2020-08-12T13:38:19Z</time>
      </trkpt>
      <trkpt lat="48.2119" lon="-3.1272">
        <ele>137.13</ele>
        <time>2020-08-12T13:38:47Z</time>
      </trkpt>
      <trkpt lat="48.21189" lon="-3.12722">
        <ele>137.13</ele>
        <time>2020-08-12T13:39:18Z</time>
      </trkpt>
      <trkpt lat="48.21186" lon="-3.12722">
        <ele>137.13</ele>
        <time>2020-08-12T13:39:48Z</time>
      </trkpt>
      <trkpt lat="48.21185" lon="-3.12723">
        <ele>136.64</ele>
        <time>2020-08-12T13:40:25Z</time>
      </trkpt>
      <trkpt lat="48.21187" lon="-3.12722">
        <ele>136.64</ele>
        <time>2020-08-12T13:40:57Z</time>
      </trkpt>
      <trkpt lat="48.21186" lon="-3.12721">
        <ele>136.64</ele>
        <time>2020-08-12T13:41:32Z</time>
      </trkpt>
      <trkpt lat="48.21189" lon="-3.12722">
        <ele>136.64</ele>
        <time>2020-08-12T13:42:11Z</time>
      </trkpt>
      <trkpt lat="48.21188" lon="-3.12724">
        <ele>136.64</ele>
        <time>2020-08-12T13:42:55Z</time>
      </trkpt>
      <trkpt lat="48.21186" lon="-3.12721">
        <ele>136.64</ele>
        <time>2020-08-12T13:43:35Z</time>
      </trkpt>
      <trkpt lat="48.21184" lon="-3.12725">
        <ele>136.64</ele>
        <time>2020-08-12T13:44:02Z</time>
      </trkpt>
      <trkpt lat="48.21184" lon="-3.12723">
        <ele>136.16</ele>
        <time>2020-08-12T13:44:31Z</time>
      </trkpt>
      <trkpt lat="48.21187" lon="-3.12722">
        <ele>136.16</ele>
        <time>2020-08-12T13:45:00Z</time>
      </trkpt>
      <trkpt lat="48.21188" lon="-3.12721">
        <ele>136.16</ele>
        <time>2020-08-12T13:45:34Z</time>
      </trkpt>
      <trkpt lat="48.21187" lon="-3.1272">
        <ele>136.64</ele>
        <time>2020-08-12T13:46:06Z</time>
      </trkpt>
      <trkpt lat="48.21188" lon="-3.1272">
        <ele>136.64</ele>
        <time>2020-08-12T13:46:37Z</time>
      </trkpt>
      <trkpt lat="48.21186" lon="-3.12722">
        <ele>136.64</ele>
        <time>2020-08-12T13:47:12Z</time>
      </trkpt>
      <trkpt lat="48.21186" lon="-3.12722">
        <ele>136.64</ele>
        <time>2020-08-12T13:47:44Z</time>
      </trkpt>
      <trkpt lat="48.21187" lon="-3.12722">
        <ele>136.64</ele>
        <time>2020-08-12T13:48:18Z</time>
      </trkpt>
      <trkpt lat="48.21185" lon="-3.12722">
        <ele>137.13</ele>
        <time>2020-08-12T13:48:52Z</time>
      </trkpt>
      <trkpt lat="48.21187" lon="-3.12724">
        <ele>137.61</ele>
        <time>2020-08-12T13:49:33Z</time>
      </trkpt>
      <trkpt lat="48.21187" lon="-3.12721">
        <ele>137.61</ele>
        <time>2020-08-12T13:50:09Z</time>
      </trkpt>
      <trkpt lat="48.21186" lon="-3.12722">
        <ele>138.09</ele>
        <time>2020-08-12T13:50:47Z</time>
      </trkpt>
      <trkpt lat="48.21186" lon="-3.12724">
        <ele>138.09</ele>
        <time>2020-08-12T13:51:21Z</time>
      </trkpt>
      <trkpt lat="48.21189" lon="-3.12722">
        <ele>138.09</ele>
        <time>2020-08-12T13:52:02Z</time>
      </trkpt>
      <trkpt lat="48.21186" lon="-3.12724">
        <ele>138.57</ele>
        <time>2020-08-12T13:52:40Z</time>
      </trkpt>
      <trkpt lat="48.21185" lon="-3.12724">
        <ele>138.57</ele>
        <time>2020-08-12T13:53:14Z</time>
      </trkpt>
      <trkpt lat="48.21186" lon="-3.12722">
        <ele>138.09</ele>
        <time>2020-08-12T13:53:43Z</time>
      </trkpt>
      <trkpt lat="48.21187" lon="-3.12723">
        <ele>138.09</ele>
        <time>2020-08-12T13:54:13Z</time>
      </trkpt>
      <trkpt lat="48.21189" lon="-3.12718">
        <ele>138.09</ele>
        <time>2020-08-12T13:54:48Z</time>
      </trkpt>
      <trkpt lat="48.21186" lon="-3.1272">
        <ele>138.09</ele>
        <time>2020-08-12T13:55:18Z</time>
      </trkpt>
      <trkpt lat="48.21187" lon="-3.1272">
        <ele>138.09</ele>
        <time>2020-08-12T13:55:51Z</time>
      </trkpt>
      <trkpt lat="48.21187" lon="-3.1272">
        <ele>138.09</ele>
        <time>2020-08-12T13:56:27Z</time>
      </trkpt>
      <trkpt lat="48.21188" lon="-3.12722">
        <ele>138.09</ele>
        <time>2020-08-12T13:57:04Z</time>
      </trkpt>
      <trkpt lat="48.21188" lon="-3.12725">
        <ele>137.61</ele>
        <time>2020-08-12T13:57:40Z</time>
      </trkpt>
      <trkpt lat="48.21187" lon="-3.12723">
        <ele>137.61</ele>
        <time>2020-08-12T13:58:15Z</time>
      </trkpt>
      <trkpt lat="48.21188" lon="-3.12721">
        <ele>137.61</ele>
        <time>2020-08-12T13:58:43Z</time>
      </trkpt>
      <trkpt lat="48.21188" lon="-3.12723">
        <ele>136.64</ele>
        <time>2020-08-12T13:59:19Z</time>
      </trkpt>
      <trkpt lat="48.21188" lon="-3.12722">
        <ele>136.64</ele>
        <time>2020-08-12T13:59:51Z</time>
      </trkpt>
      <trkpt lat="48.21187" lon="-3.12723">
        <ele>136.16</ele>
        <time>2020-08-12T14:00:21Z</time>
      </trkpt>
      <trkpt lat="48.21186" lon="-3.12725">
        <ele>135.68</ele>
        <time>2020-08-12T14:00:48Z</time>
      </trkpt>
      <trkpt lat="48.21186" lon="-3.12723">
        <ele>135.2</ele>
        <time>2020-08-12T14:01:26Z</time>
      </trkpt>
      <trkpt lat="48.21187" lon="-3.12723">
        <ele>135.2</ele>
        <time>2020-08-12T14:01:52Z</time>
      </trkpt>
      <trkpt lat="48.21187" lon="-3.12724">
        <ele>134.72</ele>
        <time>2020-08-12T14:02:18Z</time>
      </trkpt>
      <trkpt lat="48.21186" lon="-3.12725">
        <ele>134.72</ele>
        <time>2020-08-12T14:02:32Z</time>
      </trkpt>
      <trkpt lat="48.21188" lon="-3.12728">
        <ele>134.72</ele>
        <time>2020-08-12T14:02:43Z</time>
      </trkpt>
      <trkpt lat="48.21189" lon="-3.1273">
        <ele>134.24</ele>
        <time>2020-08-12T14:02:44Z</time>
      </trkpt>
      <trkpt lat="48.2119" lon="-3.12731">
        <ele>134.24</ele>
        <time>2020-08-12T14:02:45Z</time>
      </trkpt>
      <trkpt lat="48.21192" lon="-3.12734">
        <ele>134.24</ele>
        <time>2020-08-12T14:02:46Z</time>
      </trkpt>
      <trkpt lat="48.21194" lon="-3.12736">
        <ele>134.24</ele>
        <time>2020-08-12T14:02:47Z</time>
      </trkpt>
      <trkpt lat="48.21196" lon="-3.12737">
        <ele>134.24</ele>
        <time>2020-08-12T14:02:48Z</time>
      </trkpt>
      <trkpt lat="48.21197" lon="-3.12738">
        <ele>134.24</ele>
        <time>2020-08-12T14:02:49Z</time>
      </trkpt>
      <trkpt lat="48.2122" lon="-3.12752">
        <ele>133.76</ele>
        <time>2020-08-12T14:03:01Z</time>
      </trkpt>
      <trkpt lat="48.21248" lon="-3.12772">
        <ele>132.8</ele>
        <time>2020-08-12T14:03:12Z</time>
      </trkpt>
      <trkpt lat="48.21278" lon="-3.12794">
        <ele>130.88</ele>
        <time>2020-08-12T14:03:23Z</time>
      </trkpt>
      <trkpt lat="48.21299" lon="-3.12811">
        <ele>129.43</ele>
        <time>2020-08-12T14:03:33Z</time>
      </trkpt>
      <trkpt lat="48.213" lon="-3.12815">
        <ele>129.92</ele>
        <time>2020-08-12T14:03:34Z</time>
      </trkpt>
      <trkpt lat="48.213" lon="-3.12822">
        <ele>129.92</ele>
        <time>2020-08-12T14:03:36Z</time>
      </trkpt>
      <trkpt lat="48.21299" lon="-3.12826">
        <ele>129.43</ele>
        <time>2020-08-12T14:03:37Z</time>
      </trkpt>
      <trkpt lat="48.21277" lon="-3.12875">
        <ele>129.43</ele>
        <time>2020-08-12T14:03:51Z</time>
      </trkpt>
      <trkpt lat="48.21257" lon="-3.12912">
        <ele>128.95</ele>
        <time>2020-08-12T14:04:03Z</time>
      </trkpt>
      <trkpt lat="48.21234" lon="-3.12953">
        <ele>128.95</ele>
        <time>2020-08-12T14:04:17Z</time>
      </trkpt>
      <trkpt lat="48.21213" lon="-3.1299">
        <ele>128.95</ele>
        <time>2020-08-12T14:04:34Z</time>
      </trkpt>
      <trkpt lat="48.21203" lon="-3.13008">
        <ele>128.95</ele>
        <time>2020-08-12T14:04:43Z</time>
      </trkpt>
      <trkpt lat="48.21203" lon="-3.1301">
        <ele>128.95</ele>
        <time>2020-08-12T14:04:44Z</time>
      </trkpt>
      <trkpt lat="48.21202" lon="-3.13012">
        <ele>128.47</ele>
        <time>2020-08-12T14:04:57Z</time>
      </trkpt>
      <trkpt lat="48.21201" lon="-3.13011">
        <ele>127.51</ele>
        <time>2020-08-12T14:05:28Z</time>
      </trkpt>
      <trkpt lat="48.21202" lon="-3.13014">
        <ele>126.07</ele>
        <time>2020-08-12T14:06:04Z</time>
      </trkpt>
      <trkpt lat="48.21202" lon="-3.13014">
        <ele>126.07</ele>
        <time>2020-08-12T14:06:32Z</time>
      </trkpt>
      <trkpt lat="48.21202" lon="-3.13011">
        <ele>127.51</ele>
        <time>2020-08-12T14:06:50Z</time>
      </trkpt>
      <trkpt lat="48.21203" lon="-3.13014">
        <ele>126.07</ele>
        <time>2020-08-12T14:07:25Z</time>
      </trkpt>
      <trkpt lat="48.21202" lon="-3.13014">
        <ele>127.03</ele>
        <time>2020-08-12T14:07:31Z</time>
      </trkpt>
      <trkpt lat="48.21204" lon="-3.13012">
        <ele>126.07</ele>
        <time>2020-08-12T14:08:09Z</time>
      </trkpt>
      <trkpt lat="48.21203" lon="-3.13014">
        <ele>126.07</ele>
        <time>2020-08-12T14:08:44Z</time>
      </trkpt>
      <trkpt lat="48.212" lon="-3.13016">
        <ele>129.43</ele>
        <time>2020-08-12T14:09:17Z</time>
      </trkpt>
      <trkpt lat="48.212" lon="-3.13015">
        <ele>128.47</ele>
        <time>2020-08-12T14:09:24Z</time>
      </trkpt>
      <trkpt lat="48.21201" lon="-3.13013">
        <ele>127.99</ele>
        <time>2020-08-12T14:09:37Z</time>
      </trkpt>
      <trkpt lat="48.212" lon="-3.13013">
        <ele>128.47</ele>
        <time>2020-08-12T14:09:57Z</time>
      </trkpt>
      <trkpt lat="48.212" lon="-3.13009">
        <ele>129.43</ele>
        <time>2020-08-12T14:10:40Z</time>
      </trkpt>
      <trkpt lat="48.21202" lon="-3.13012">
        <ele>129.43</ele>
        <time>2020-08-12T14:11:12Z</time>
      </trkpt>
      <trkpt lat="48.21202" lon="-3.13013">
        <ele>131.36</ele>
        <time>2020-08-12T14:11:42Z</time>
      </trkpt>
      <trkpt lat="48.21204" lon="-3.13014">
        <ele>130.88</ele>
        <time>2020-08-12T14:12:25Z</time>
      </trkpt>
      <trkpt lat="48.21201" lon="-3.13012">
        <ele>130.88</ele>
        <time>2020-08-12T14:12:52Z</time>
      </trkpt>
      <trkpt lat="48.21201" lon="-3.13013">
        <ele>129.92</ele>
        <time>2020-08-12T14:13:01Z</time>
      </trkpt>
      <trkpt lat="48.21203" lon="-3.13015">
        <ele>131.84</ele>
        <time>2020-08-12T14:13:30Z</time>
      </trkpt>
      <trkpt lat="48.21199" lon="-3.13013">
        <ele>132.32</ele>
        <time>2020-08-12T14:14:00Z</time>
      </trkpt>
      <trkpt lat="48.21201" lon="-3.13015">
        <ele>132.32</ele>
        <time>2020-08-12T14:14:25Z</time>
      </trkpt>
      <trkpt lat="48.212" lon="-3.13012">
        <ele>130.88</ele>
        <time>2020-08-12T14:14:52Z</time>
      </trkpt>
      <trkpt lat="48.21201" lon="-3.13015">
        <ele>129.43</ele>
        <time>2020-08-12T14:15:22Z</time>
      </trkpt>
      <trkpt lat="48.212" lon="-3.13013">
        <ele>128.95</ele>
        <time>2020-08-12T14:15:51Z</time>
      </trkpt>
      <trkpt lat="48.21201" lon="-3.13015">
        <ele>130.4</ele>
        <time>2020-08-12T14:16:02Z</time>
      </trkpt>
      <trkpt lat="48.21202" lon="-3.13015">
        <ele>130.4</ele>
        <time>2020-08-12T14:16:37Z</time>
      </trkpt>
      <trkpt lat="48.21202" lon="-3.13012">
        <ele>130.4</ele>
        <time>2020-08-12T14:16:58Z</time>
      </trkpt>
      <trkpt lat="48.21202" lon="-3.13014">
        <ele>130.88</ele>
        <time>2020-08-12T14:17:32Z</time>
      </trkpt>
      <trkpt lat="48.21203" lon="-3.13016">
        <ele>130.88</ele>
        <time>2020-08-12T14:18:06Z</time>
      </trkpt>
      <trkpt lat="48.21201" lon="-3.13012">
        <ele>130.88</ele>
        <time>2020-08-12T14:18:28Z</time>
      </trkpt>
      <trkpt lat="48.21201" lon="-3.1301">
        <ele>130.88</ele>
        <time>2020-08-12T14:18:41Z</time>
      </trkpt>
      <trkpt lat="48.21204" lon="-3.13007">
        <ele>130.88</ele>
        <time>2020-08-12T14:18:44Z</time>
      </trkpt>
      <trkpt lat="48.2121" lon="-3.13008">
        <ele>130.88</ele>
        <time>2020-08-12T14:18:55Z</time>
      </trkpt>
      <trkpt lat="48.21211" lon="-3.13009">
        <ele>130.88</ele>
        <time>2020-08-12T14:18:56Z</time>
      </trkpt>
      <trkpt lat="48.21212" lon="-3.13011">
        <ele>130.88</ele>
        <time>2020-08-12T14:18:57Z</time>
      </trkpt>
      <trkpt lat="48.21213" lon="-3.13012">
        <ele>129.92</ele>
        <time>2020-08-12T14:18:58Z</time>
      </trkpt>
      <trkpt lat="48.21215" lon="-3.13014">
        <ele>129.92</ele>
        <time>2020-08-12T14:18:59Z</time>
      </trkpt>
      <trkpt lat="48.21216" lon="-3.13016">
        <ele>129.92</ele>
        <time>2020-08-12T14:19:00Z</time>
      </trkpt>
      <trkpt lat="48.21227" lon="-3.1303">
        <ele>129.43</ele>
        <time>2020-08-12T14:19:07Z</time>
      </trkpt>
      <trkpt lat="48.21228" lon="-3.13031">
        <ele>129.43</ele>
        <time>2020-08-12T14:19:08Z</time>
      </trkpt>
      <trkpt lat="48.21231" lon="-3.13035">
        <ele>124.15</ele>
        <time>2020-08-12T14:19:14Z</time>
      </trkpt>
      <trkpt lat="48.21231" lon="-3.13035">
        <ele>135.2</ele>
        <time>2020-08-12T14:19:15Z</time>
      </trkpt>
      <trkpt lat="48.21231" lon="-3.13035">
        <ele>130.4</ele>
        <time>2020-08-12T14:19:16Z</time>
      </trkpt>
      <trkpt lat="48.21242" lon="-3.13045">
        <ele>129.92</ele>
        <time>2020-08-12T14:19:35Z</time>
      </trkpt>
      <trkpt lat="48.21272" lon="-3.13081">
        <ele>129.92</ele>
        <time>2020-08-12T14:19:49Z</time>
      </trkpt>
      <trkpt lat="48.21299" lon="-3.13108">
        <ele>129.92</ele>
        <time>2020-08-12T14:20:01Z</time>
      </trkpt>
      <trkpt lat="48.2134" lon="-3.13155">
        <ele>129.92</ele>
        <time>2020-08-12T14:20:16Z</time>
      </trkpt>
      <trkpt lat="48.21368" lon="-3.13221">
        <ele>129.92</ele>
        <time>2020-08-12T14:20:30Z</time>
      </trkpt>
      <trkpt lat="48.21374" lon="-3.13298">
        <ele>129.92</ele>
        <time>2020-08-12T14:20:45Z</time>
      </trkpt>
      <trkpt lat="48.21372" lon="-3.13369">
        <ele>129.92</ele>
        <time>2020-08-12T14:20:59Z</time>
      </trkpt>
      <trkpt lat="48.21381" lon="-3.13451">
        <ele>129.43</ele>
        <time>2020-08-12T14:21:13Z</time>
      </trkpt>
      <trkpt lat="48.21391" lon="-3.13551">
        <ele>129.43</ele>
        <time>2020-08-12T14:21:29Z</time>
      </trkpt>
      <trkpt lat="48.21394" lon="-3.13588">
        <ele>129.43</ele>
        <time>2020-08-12T14:21:35Z</time>
      </trkpt>
      <trkpt lat="48.21406" lon="-3.13689">
        <ele>128.95</ele>
        <time>2020-08-12T14:21:52Z</time>
      </trkpt>
      <trkpt lat="48.21434" lon="-3.13793">
        <ele>128.47</ele>
        <time>2020-08-12T14:22:10Z</time>
      </trkpt>
      <trkpt lat="48.21438" lon="-3.13911">
        <ele>128.47</ele>
        <time>2020-08-12T14:22:30Z</time>
      </trkpt>
      <trkpt lat="48.21446" lon="-3.14041">
        <ele>128.47</ele>
        <time>2020-08-12T14:22:52Z</time>
      </trkpt>
      <trkpt lat="48.21442" lon="-3.14159">
        <ele>128.47</ele>
        <time>2020-08-12T14:23:11Z</time>
      </trkpt>
      <trkpt lat="48.21439" lon="-3.14177">
        <ele>128.47</ele>
        <time>2020-08-12T14:23:14Z</time>
      </trkpt>
      <trkpt lat="48.21438" lon="-3.14184">
        <ele>128.47</ele>
        <time>2020-08-12T14:23:15Z</time>
      </trkpt>
      <trkpt lat="48.21438" lon="-3.14191">
        <ele>128.47</ele>
        <time>2020-08-12T14:23:16Z</time>
      </trkpt>
      <trkpt lat="48.21455" lon="-3.14287">
        <ele>128.47</ele>
        <time>2020-08-12T14:23:32Z</time>
      </trkpt>
      <trkpt lat="48.21457" lon="-3.14298">
        <ele>128.47</ele>
        <time>2020-08-12T14:23:34Z</time>
      </trkpt>
      <trkpt lat="48.21444" lon="-3.14397">
        <ele>128.47</ele>
        <time>2020-08-12T14:23:50Z</time>
      </trkpt>
      <trkpt lat="48.21424" lon="-3.14508">
        <ele>128.47</ele>
        <time>2020-08-12T14:24:08Z</time>
      </trkpt>
      <trkpt lat="48.21402" lon="-3.14621">
        <ele>128.47</ele>
        <time>2020-08-12T14:24:27Z</time>
      </trkpt>
      <trkpt lat="48.21397" lon="-3.14672">
        <ele>127.99</ele>
        <time>2020-08-12T14:24:35Z</time>
      </trkpt>
      <trkpt lat="48.21397" lon="-3.14679">
        <ele>127.99</ele>
        <time>2020-08-12T14:24:36Z</time>
      </trkpt>
      <trkpt lat="48.21394" lon="-3.14698">
        <ele>127.99</ele>
        <time>2020-08-12T14:24:39Z</time>
      </trkpt>
      <trkpt lat="48.21366" lon="-3.1481">
        <ele>127.99</ele>
        <time>2020-08-12T14:24:58Z</time>
      </trkpt>
      <trkpt lat="48.21337" lon="-3.14908">
        <ele>127.99</ele>
        <time>2020-08-12T14:25:15Z</time>
      </trkpt>
      <trkpt lat="48.21322" lon="-3.15004">
        <ele>127.99</ele>
        <time>2020-08-12T14:25:31Z</time>
      </trkpt>
      <trkpt lat="48.21315" lon="-3.15065">
        <ele>127.99</ele>
        <time>2020-08-12T14:25:41Z</time>
      </trkpt>
      <trkpt lat="48.21276" lon="-3.15162">
        <ele>128.95</ele>
        <time>2020-08-12T14:25:59Z</time>
      </trkpt>
      <trkpt lat="48.21243" lon="-3.15227">
        <ele>130.88</ele>
        <time>2020-08-12T14:26:15Z</time>
      </trkpt>
      <trkpt lat="48.2121" lon="-3.15294">
        <ele>131.36</ele>
        <time>2020-08-12T14:26:30Z</time>
      </trkpt>
      <trkpt lat="48.21192" lon="-3.15379">
        <ele>131.36</ele>
        <time>2020-08-12T14:26:45Z</time>
      </trkpt>
      <trkpt lat="48.21189" lon="-3.15458">
        <ele>131.36</ele>
        <time>2020-08-12T14:27:00Z</time>
      </trkpt>
      <trkpt lat="48.21192" lon="-3.15509">
        <ele>131.84</ele>
        <time>2020-08-12T14:27:11Z</time>
      </trkpt>
      <trkpt lat="48.21202" lon="-3.1559">
        <ele>131.84</ele>
        <time>2020-08-12T14:27:27Z</time>
      </trkpt>
      <trkpt lat="48.21217" lon="-3.15677">
        <ele>131.84</ele>
        <time>2020-08-12T14:27:42Z</time>
      </trkpt>
      <trkpt lat="48.21233" lon="-3.15737">
        <ele>131.84</ele>
        <time>2020-08-12T14:27:52Z</time>
      </trkpt>
      <trkpt lat="48.21246" lon="-3.15766">
        <ele>131.84</ele>
        <time>2020-08-12T14:27:57Z</time>
      </trkpt>
      <trkpt lat="48.21291" lon="-3.1583">
        <ele>131.84</ele>
        <time>2020-08-12T14:28:12Z</time>
      </trkpt>
      <trkpt lat="48.21338" lon="-3.15867">
        <ele>131.84</ele>
        <time>2020-08-12T14:28:28Z</time>
      </trkpt>
      <trkpt lat="48.21369" lon="-3.15902">
        <ele>131.84</ele>
        <time>2020-08-12T14:28:40Z</time>
      </trkpt>
      <trkpt lat="48.21399" lon="-3.15936">
        <ele>131.84</ele>
        <time>2020-08-12T14:28:52Z</time>
      </trkpt>
      <trkpt lat="48.2144" lon="-3.1598">
        <ele>132.8</ele>
        <time>2020-08-12T14:29:06Z</time>
      </trkpt>
      <trkpt lat="48.21478" lon="-3.16019">
        <ele>132.8</ele>
        <time>2020-08-12T14:29:19Z</time>
      </trkpt>
      <trkpt lat="48.21514" lon="-3.16043">
        <ele>132.8</ele>
        <time>2020-08-12T14:29:31Z</time>
      </trkpt>
      <trkpt lat="48.21556" lon="-3.16074">
        <ele>132.8</ele>
        <time>2020-08-12T14:29:44Z</time>
      </trkpt>
      <trkpt lat="48.21611" lon="-3.1609">
        <ele>132.8</ele>
        <time>2020-08-12T14:29:57Z</time>
      </trkpt>
      <trkpt lat="48.21672" lon="-3.16077">
        <ele>132.8</ele>
        <time>2020-08-12T14:30:12Z</time>
      </trkpt>
      <trkpt lat="48.21729" lon="-3.16054">
        <ele>133.28</ele>
        <time>2020-08-12T14:30:29Z</time>
      </trkpt>
      <trkpt lat="48.21807" lon="-3.16018">
        <ele>133.76</ele>
        <time>2020-08-12T14:30:49Z</time>
      </trkpt>
      <trkpt lat="48.21868" lon="-3.16015">
        <ele>134.72</ele>
        <time>2020-08-12T14:31:04Z</time>
      </trkpt>
      <trkpt lat="48.21891" lon="-3.16028">
        <ele>134.72</ele>
        <time>2020-08-12T14:31:10Z</time>
      </trkpt>
      <trkpt lat="48.21938" lon="-3.16075">
        <ele>134.72</ele>
        <time>2020-08-12T14:31:24Z</time>
      </trkpt>
      <trkpt lat="48.21984" lon="-3.16129">
        <ele>134.72</ele>
        <time>2020-08-12T14:31:37Z</time>
      </trkpt>
      <trkpt lat="48.21988" lon="-3.16137">
        <ele>134.72</ele>
        <time>2020-08-12T14:31:38Z</time>
      </trkpt>
      <trkpt lat="48.21991" lon="-3.16145">
        <ele>134.72</ele>
        <time>2020-08-12T14:31:39Z</time>
      </trkpt>
      <trkpt lat="48.22008" lon="-3.16221">
        <ele>134.72</ele>
        <time>2020-08-12T14:31:50Z</time>
      </trkpt>
      <trkpt lat="48.22005" lon="-3.16312">
        <ele>134.72</ele>
        <time>2020-08-12T14:32:03Z</time>
      </trkpt>
      <trkpt lat="48.21985" lon="-3.16399">
        <ele>134.72</ele>
        <time>2020-08-12T14:32:17Z</time>
      </trkpt>
      <trkpt lat="48.21945" lon="-3.16472">
        <ele>134.72</ele>
        <time>2020-08-12T14:32:31Z</time>
      </trkpt>
      <trkpt lat="48.21912" lon="-3.16551">
        <ele>135.2</ele>
        <time>2020-08-12T14:32:45Z</time>
      </trkpt>
      <trkpt lat="48.21901" lon="-3.1662">
        <ele>135.2</ele>
        <time>2020-08-12T14:32:56Z</time>
      </trkpt>
      <trkpt lat="48.21884" lon="-3.16736">
        <ele>135.2</ele>
        <time>2020-08-12T14:33:12Z</time>
      </trkpt>
      <trkpt lat="48.2188" lon="-3.16784">
        <ele>135.2</ele>
        <time>2020-08-12T14:33:19Z</time>
      </trkpt>
      <trkpt lat="48.21881" lon="-3.1679">
        <ele>135.2</ele>
        <time>2020-08-12T14:33:20Z</time>
      </trkpt>
      <trkpt lat="48.21883" lon="-3.16852">
        <ele>135.68</ele>
        <time>2020-08-12T14:33:29Z</time>
      </trkpt>
      <trkpt lat="48.21899" lon="-3.16943">
        <ele>136.16</ele>
        <time>2020-08-12T14:33:43Z</time>
      </trkpt>
      <trkpt lat="48.2193" lon="-3.17001">
        <ele>136.16</ele>
        <time>2020-08-12T14:33:55Z</time>
      </trkpt>
      <trkpt lat="48.21937" lon="-3.17009">
        <ele>136.16</ele>
        <time>2020-08-12T14:33:57Z</time>
      </trkpt>
      <trkpt lat="48.21975" lon="-3.17054">
        <ele>135.68</ele>
        <time>2020-08-12T14:34:09Z</time>
      </trkpt>
      <trkpt lat="48.22012" lon="-3.17085">
        <ele>136.16</ele>
        <time>2020-08-12T14:34:20Z</time>
      </trkpt>
      <trkpt lat="48.22039" lon="-3.17109">
        <ele>136.16</ele>
        <time>2020-08-12T14:34:29Z</time>
      </trkpt>
      <trkpt lat="48.22087" lon="-3.1713">
        <ele>136.16</ele>
        <time>2020-08-12T14:34:40Z</time>
      </trkpt>
      <trkpt lat="48.22106" lon="-3.17136">
        <ele>136.16</ele>
        <time>2020-08-12T14:34:43Z</time>
      </trkpt>
      <trkpt lat="48.22112" lon="-3.17137">
        <ele>136.16</ele>
        <time>2020-08-12T14:34:44Z</time>
      </trkpt>
      <trkpt lat="48.22184" lon="-3.17146">
        <ele>136.16</ele>
        <time>2020-08-12T14:34:57Z</time>
      </trkpt>
      <trkpt lat="48.22225" lon="-3.17154">
        <ele>136.16</ele>
        <time>2020-08-12T14:35:05Z</time>
      </trkpt>
      <trkpt lat="48.2223" lon="-3.17154">
        <ele>136.16</ele>
        <time>2020-08-12T14:35:06Z</time>
      </trkpt>
      <trkpt lat="48.22235" lon="-3.17155">
        <ele>136.16</ele>
        <time>2020-08-12T14:35:07Z</time>
      </trkpt>
      <trkpt lat="48.22245" lon="-3.17156">
        <ele>136.16</ele>
        <time>2020-08-12T14:35:09Z</time>
      </trkpt>
      <trkpt lat="48.22308" lon="-3.17165">
        <ele>136.64</ele>
        <time>2020-08-12T14:35:24Z</time>
      </trkpt>
      <trkpt lat="48.22339" lon="-3.17174">
        <ele>137.13</ele>
        <time>2020-08-12T14:35:32Z</time>
      </trkpt>
      <trkpt lat="48.22343" lon="-3.17175">
        <ele>137.13</ele>
        <time>2020-08-12T14:35:33Z</time>
      </trkpt>
      <trkpt lat="48.22365" lon="-3.17184">
        <ele>137.13</ele>
        <time>2020-08-12T14:35:38Z</time>
      </trkpt>
      <trkpt lat="48.2237" lon="-3.17186">
        <ele>137.13</ele>
        <time>2020-08-12T14:35:39Z</time>
      </trkpt>
      <trkpt lat="48.22374" lon="-3.17189">
        <ele>137.13</ele>
        <time>2020-08-12T14:35:40Z</time>
      </trkpt>
      <trkpt lat="48.22379" lon="-3.17192">
        <ele>137.13</ele>
        <time>2020-08-12T14:35:41Z</time>
      </trkpt>
      <trkpt lat="48.22383" lon="-3.17196">
        <ele>137.13</ele>
        <time>2020-08-12T14:35:42Z</time>
      </trkpt>
      <trkpt lat="48.22387" lon="-3.172">
        <ele>137.13</ele>
        <time>2020-08-12T14:35:43Z</time>
      </trkpt>
      <trkpt lat="48.22396" lon="-3.17209">
        <ele>137.13</ele>
        <time>2020-08-12T14:35:45Z</time>
      </trkpt>
      <trkpt lat="48.224" lon="-3.17214">
        <ele>137.13</ele>
        <time>2020-08-12T14:35:46Z</time>
      </trkpt>
      <trkpt lat="48.22404" lon="-3.17218">
        <ele>137.13</ele>
        <time>2020-08-12T14:35:47Z</time>
      </trkpt>
      <trkpt lat="48.22416" lon="-3.17231">
        <ele>137.13</ele>
        <time>2020-08-12T14:35:50Z</time>
      </trkpt>
      <trkpt lat="48.22457" lon="-3.1728">
        <ele>136.16</ele>
        <time>2020-08-12T14:36:01Z</time>
      </trkpt>
      <trkpt lat="48.2247" lon="-3.17295">
        <ele>137.61</ele>
        <time>2020-08-12T14:36:05Z</time>
      </trkpt>
      <trkpt lat="48.2248" lon="-3.17314">
        <ele>137.61</ele>
        <time>2020-08-12T14:36:09Z</time>
      </trkpt>
      <trkpt lat="48.22484" lon="-3.17326">
        <ele>137.61</ele>
        <time>2020-08-12T14:36:11Z</time>
      </trkpt>
      <trkpt lat="48.22491" lon="-3.17363">
        <ele>137.61</ele>
        <time>2020-08-12T14:36:17Z</time>
      </trkpt>
      <trkpt lat="48.22492" lon="-3.1737">
        <ele>137.61</ele>
        <time>2020-08-12T14:36:18Z</time>
      </trkpt>
      <trkpt lat="48.22491" lon="-3.17377">
        <ele>137.61</ele>
        <time>2020-08-12T14:36:19Z</time>
      </trkpt>
      <trkpt lat="48.22481" lon="-3.17463">
        <ele>138.09</ele>
        <time>2020-08-12T14:36:32Z</time>
      </trkpt>
      <trkpt lat="48.22474" lon="-3.17562">
        <ele>138.57</ele>
        <time>2020-08-12T14:36:47Z</time>
      </trkpt>
      <trkpt lat="48.22472" lon="-3.17588">
        <ele>138.57</ele>
        <time>2020-08-12T14:36:51Z</time>
      </trkpt>
      <trkpt lat="48.22469" lon="-3.176">
        <ele>138.57</ele>
        <time>2020-08-12T14:36:53Z</time>
      </trkpt>
      <trkpt lat="48.22467" lon="-3.17605">
        <ele>138.57</ele>
        <time>2020-08-12T14:36:54Z</time>
      </trkpt>
      <trkpt lat="48.22449" lon="-3.17692">
        <ele>138.57</ele>
        <time>2020-08-12T14:37:09Z</time>
      </trkpt>
      <trkpt lat="48.22443" lon="-3.17784">
        <ele>139.53</ele>
        <time>2020-08-12T14:37:27Z</time>
      </trkpt>
      <trkpt lat="48.22444" lon="-3.17827">
        <ele>140.01</ele>
        <time>2020-08-12T14:37:39Z</time>
      </trkpt>
      <trkpt lat="48.22446" lon="-3.17828">
        <ele>140.01</ele>
        <time>2020-08-12T14:37:40Z</time>
      </trkpt>
      <trkpt lat="48.22449" lon="-3.17828">
        <ele>140.01</ele>
        <time>2020-08-12T14:37:41Z</time>
      </trkpt>
      <trkpt lat="48.22505" lon="-3.17835">
        <ele>140.49</ele>
        <time>2020-08-12T14:37:56Z</time>
      </trkpt>
      <trkpt lat="48.22554" lon="-3.17855">
        <ele>138.09</ele>
        <time>2020-08-12T14:38:10Z</time>
      </trkpt>
      <trkpt lat="48.22584" lon="-3.1788">
        <ele>138.09</ele>
        <time>2020-08-12T14:38:22Z</time>
      </trkpt>
      <trkpt lat="48.22622" lon="-3.17914">
        <ele>138.09</ele>
        <time>2020-08-12T14:38:36Z</time>
      </trkpt>
      <trkpt lat="48.22653" lon="-3.17931">
        <ele>139.53</ele>
        <time>2020-08-12T14:38:49Z</time>
      </trkpt>
      <trkpt lat="48.22656" lon="-3.17929">
        <ele>139.53</ele>
        <time>2020-08-12T14:38:50Z</time>
      </trkpt>
      <trkpt lat="48.22658" lon="-3.17927">
        <ele>139.53</ele>
        <time>2020-08-12T14:38:51Z</time>
      </trkpt>
      <trkpt lat="48.22659" lon="-3.17924">
        <ele>139.53</ele>
        <time>2020-08-12T14:38:52Z</time>
      </trkpt>
      <trkpt lat="48.22672" lon="-3.17878">
        <ele>139.53</ele>
        <time>2020-08-12T14:39:03Z</time>
      </trkpt>
      <trkpt lat="48.22674" lon="-3.17877">
        <ele>139.53</ele>
        <time>2020-08-12T14:39:04Z</time>
      </trkpt>
      <trkpt lat="48.22676" lon="-3.17877">
        <ele>139.53</ele>
        <time>2020-08-12T14:39:05Z</time>
      </trkpt>
      <trkpt lat="48.22704" lon="-3.1789">
        <ele>140.97</ele>
        <time>2020-08-12T14:39:21Z</time>
      </trkpt>
      <trkpt lat="48.22705" lon="-3.17892">
        <ele>140.97</ele>
        <time>2020-08-12T14:39:25Z</time>
      </trkpt>
      <trkpt lat="48.22706" lon="-3.17894">
        <ele>141.45</ele>
        <time>2020-08-12T14:39:26Z</time>
      </trkpt>
      <trkpt lat="48.22707" lon="-3.17896">
        <ele>141.45</ele>
        <time>2020-08-12T14:39:27Z</time>
      </trkpt>
      <trkpt lat="48.22707" lon="-3.17898">
        <ele>141.45</ele>
        <time>2020-08-12T14:39:28Z</time>
      </trkpt>
      <trkpt lat="48.22708" lon="-3.179">
        <ele>141.45</ele>
        <time>2020-08-12T14:39:29Z</time>
      </trkpt>
      <trkpt lat="48.22708" lon="-3.17903">
        <ele>141.45</ele>
        <time>2020-08-12T14:39:30Z</time>
      </trkpt>
      <trkpt lat="48.22708" lon="-3.17906">
        <ele>141.45</ele>
        <time>2020-08-12T14:39:31Z</time>
      </trkpt>
      <trkpt lat="48.22706" lon="-3.17976">
        <ele>141.45</ele>
        <time>2020-08-12T14:39:45Z</time>
      </trkpt>
      <trkpt lat="48.22702" lon="-3.18031">
        <ele>140.01</ele>
        <time>2020-08-12T14:39:58Z</time>
      </trkpt>
      <trkpt lat="48.22696" lon="-3.18125">
        <ele>140.97</ele>
        <time>2020-08-12T14:40:17Z</time>
      </trkpt>
      <trkpt lat="48.22695" lon="-3.18216">
        <ele>141.93</ele>
        <time>2020-08-12T14:40:35Z</time>
      </trkpt>
      <trkpt lat="48.22702" lon="-3.18301">
        <ele>142.89</ele>
        <time>2020-08-12T14:40:52Z</time>
      </trkpt>
      <trkpt lat="48.22703" lon="-3.18303">
        <ele>142.89</ele>
        <time>2020-08-12T14:40:53Z</time>
      </trkpt>
      <trkpt lat="48.22704" lon="-3.18305">
        <ele>142.89</ele>
        <time>2020-08-12T14:40:54Z</time>
      </trkpt>
      <trkpt lat="48.22705" lon="-3.18306">
        <ele>142.89</ele>
        <time>2020-08-12T14:40:55Z</time>
      </trkpt>
      <trkpt lat="48.22707" lon="-3.18306">
        <ele>142.89</ele>
        <time>2020-08-12T14:40:56Z</time>
      </trkpt>
      <trkpt lat="48.22709" lon="-3.18306">
        <ele>142.89</ele>
        <time>2020-08-12T14:40:57Z</time>
      </trkpt>
      <trkpt lat="48.2271" lon="-3.18306">
        <ele>143.37</ele>
        <time>2020-08-12T14:40:58Z</time>
      </trkpt>
      <trkpt lat="48.22711" lon="-3.18306">
        <ele>143.37</ele>
        <time>2020-08-12T14:40:59Z</time>
      </trkpt>
      <trkpt lat="48.22712" lon="-3.18306">
        <ele>143.37</ele>
        <time>2020-08-12T14:41:00Z</time>
      </trkpt>
      <trkpt lat="48.22714" lon="-3.18306">
        <ele>143.37</ele>
        <time>2020-08-12T14:41:01Z</time>
      </trkpt>
      <trkpt lat="48.22732" lon="-3.18311">
        <ele>145.3</ele>
        <time>2020-08-12T14:41:15Z</time>
      </trkpt>
      <trkpt lat="48.22764" lon="-3.18325">
        <ele>147.7</ele>
        <time>2020-08-12T14:41:31Z</time>
      </trkpt>
      <trkpt lat="48.22768" lon="-3.18325">
        <ele>147.7</ele>
        <time>2020-08-12T14:41:33Z</time>
      </trkpt>
      <trkpt lat="48.2277" lon="-3.18326">
        <ele>148.18</ele>
        <time>2020-08-12T14:41:34Z</time>
      </trkpt>
      <trkpt lat="48.22772" lon="-3.18327">
        <ele>148.18</ele>
        <time>2020-08-12T14:41:35Z</time>
      </trkpt>
      <trkpt lat="48.22774" lon="-3.18329">
        <ele>148.18</ele>
        <time>2020-08-12T14:41:36Z</time>
      </trkpt>
      <trkpt lat="48.22776" lon="-3.18331">
        <ele>148.18</ele>
        <time>2020-08-12T14:41:37Z</time>
      </trkpt>
      <trkpt lat="48.22812" lon="-3.18372">
        <ele>150.1</ele>
        <time>2020-08-12T14:41:57Z</time>
      </trkpt>
      <trkpt lat="48.22843" lon="-3.18404">
        <ele>152.03</ele>
        <time>2020-08-12T14:42:14Z</time>
      </trkpt>
      <trkpt lat="48.22879" lon="-3.18442">
        <ele>153.95</ele>
        <time>2020-08-12T14:42:32Z</time>
      </trkpt>
      <trkpt lat="48.22906" lon="-3.18468">
        <ele>155.39</ele>
        <time>2020-08-12T14:42:47Z</time>
      </trkpt>
      <trkpt lat="48.22916" lon="-3.18476">
        <ele>156.35</ele>
        <time>2020-08-12T14:42:54Z</time>
      </trkpt>
      <trkpt lat="48.22917" lon="-3.18477">
        <ele>156.35</ele>
        <time>2020-08-12T14:42:55Z</time>
      </trkpt>
      <trkpt lat="48.22919" lon="-3.1848">
        <ele>156.83</ele>
        <time>2020-08-12T14:43:12Z</time>
      </trkpt>
      <trkpt lat="48.2292" lon="-3.1848">
        <ele>156.83</ele>
        <time>2020-08-12T14:43:46Z</time>
      </trkpt>
    </trkseg>
  </trk>
</gpx>